<?xml version="1.0" encoding="UTF-8" standalone="no" ?>
<gpx xmlns="http://www.topografix.com/GPX/1/1" xmlns:xsi="http://www.w3.org/2001/XMLSchema-instance" xsi:schemaLocation="http://www.topografix.com/GPX/1/1 http://www.topografix.com/GPX/1/1/gpx.xsd" version="1.1" creator="VisuGPX - https://www.visugpx.com">
  <metadata>
    <name>Revel-Tencin-Revel </name>
    <desc><![CDATA[File with points/tracks from Locus Map/3.37.2]]></desc>
  </metadata>
  <trk>
    <name><![CDATA[2019-04-22 13:41:51]]></name>
    <desc><![CDATA[Julien2]]></desc>
    <trkseg>
      <trkpt lat="45.18384" lon="5.87295">
        <ele>676.05</ele>
        <time>2019-04-22T11:42:05.000Z</time>
      </trkpt>
      <trkpt lat="45.18401" lon="5.87247">
        <ele>676.98</ele>
        <time>2019-04-22T11:42:10.000Z</time>
      </trkpt>
      <trkpt lat="45.18423" lon="5.87215">
        <ele>672.74</ele>
        <time>2019-04-22T11:42:15.000Z</time>
      </trkpt>
      <trkpt lat="45.18438" lon="5.8719">
        <ele>670.41</ele>
        <time>2019-04-22T11:42:20.000Z</time>
      </trkpt>
      <trkpt lat="45.18422" lon="5.87168">
        <ele>669.34</ele>
        <time>2019-04-22T11:42:25.000Z</time>
      </trkpt>
      <trkpt lat="45.18415" lon="5.87123">
        <ele>663.9</ele>
        <time>2019-04-22T11:42:30.000Z</time>
      </trkpt>
      <trkpt lat="45.18449" lon="5.87096">
        <ele>661.79</ele>
        <time>2019-04-22T11:42:35.000Z</time>
      </trkpt>
      <trkpt lat="45.18484" lon="5.87081">
        <ele>657.09</ele>
        <time>2019-04-22T11:42:40.000Z</time>
      </trkpt>
      <trkpt lat="45.18522" lon="5.8705">
        <ele>651.3</ele>
        <time>2019-04-22T11:42:45.000Z</time>
      </trkpt>
      <trkpt lat="45.18573" lon="5.87062">
        <ele>651.07</ele>
        <time>2019-04-22T11:42:50.000Z</time>
      </trkpt>
      <trkpt lat="45.18587" lon="5.8699">
        <ele>650.29</ele>
        <time>2019-04-22T11:42:55.000Z</time>
      </trkpt>
      <trkpt lat="45.18587" lon="5.86924">
        <ele>648.42</ele>
        <time>2019-04-22T11:43:00.000Z</time>
      </trkpt>
      <trkpt lat="45.18576" lon="5.86872">
        <ele>641.96</ele>
        <time>2019-04-22T11:43:05.000Z</time>
      </trkpt>
      <trkpt lat="45.18598" lon="5.86873">
        <ele>646.32</ele>
        <time>2019-04-22T11:43:10.000Z</time>
      </trkpt>
      <trkpt lat="45.18619" lon="5.86914">
        <ele>645.36</ele>
        <time>2019-04-22T11:43:15.000Z</time>
      </trkpt>
      <trkpt lat="45.18665" lon="5.86907">
        <ele>636.38</ele>
        <time>2019-04-22T11:43:20.000Z</time>
      </trkpt>
      <trkpt lat="45.18677" lon="5.86832">
        <ele>632.53</ele>
        <time>2019-04-22T11:43:25.000Z</time>
      </trkpt>
      <trkpt lat="45.18708" lon="5.86758">
        <ele>628.23</ele>
        <time>2019-04-22T11:43:30.000Z</time>
      </trkpt>
      <trkpt lat="45.18754" lon="5.86703">
        <ele>616.72</ele>
        <time>2019-04-22T11:43:35.000Z</time>
      </trkpt>
      <trkpt lat="45.18793" lon="5.86625">
        <ele>612.06</ele>
        <time>2019-04-22T11:43:40.000Z</time>
      </trkpt>
      <trkpt lat="45.18785" lon="5.86526">
        <ele>606.97</ele>
        <time>2019-04-22T11:43:45.000Z</time>
      </trkpt>
      <trkpt lat="45.18785" lon="5.86447">
        <ele>604.57</ele>
        <time>2019-04-22T11:43:50.000Z</time>
      </trkpt>
      <trkpt lat="45.1884" lon="5.8644">
        <ele>599.23</ele>
        <time>2019-04-22T11:43:55.000Z</time>
      </trkpt>
      <trkpt lat="45.18884" lon="5.86386">
        <ele>598.33</ele>
        <time>2019-04-22T11:44:00.000Z</time>
      </trkpt>
      <trkpt lat="45.18909" lon="5.86303">
        <ele>595.51</ele>
        <time>2019-04-22T11:44:05.000Z</time>
      </trkpt>
      <trkpt lat="45.18927" lon="5.86212">
        <ele>594.08</ele>
        <time>2019-04-22T11:44:10.000Z</time>
      </trkpt>
      <trkpt lat="45.18934" lon="5.86126">
        <ele>592.1</ele>
        <time>2019-04-22T11:44:15.000Z</time>
      </trkpt>
      <trkpt lat="45.18959" lon="5.86028">
        <ele>585.97</ele>
        <time>2019-04-22T11:44:20.000Z</time>
      </trkpt>
      <trkpt lat="45.18963" lon="5.85932">
        <ele>577.68</ele>
        <time>2019-04-22T11:44:25.000Z</time>
      </trkpt>
      <trkpt lat="45.18954" lon="5.85837">
        <ele>573.6</ele>
        <time>2019-04-22T11:44:30.000Z</time>
      </trkpt>
      <trkpt lat="45.1895" lon="5.85737">
        <ele>564.39</ele>
        <time>2019-04-22T11:44:35.000Z</time>
      </trkpt>
      <trkpt lat="45.18936" lon="5.85643">
        <ele>557.69</ele>
        <time>2019-04-22T11:44:40.000Z</time>
      </trkpt>
      <trkpt lat="45.18969" lon="5.85588">
        <ele>555.91</ele>
        <time>2019-04-22T11:44:45.000Z</time>
      </trkpt>
      <trkpt lat="45.1902" lon="5.85531">
        <ele>553.24</ele>
        <time>2019-04-22T11:44:50.000Z</time>
      </trkpt>
      <trkpt lat="45.19085" lon="5.85501">
        <ele>544.31</ele>
        <time>2019-04-22T11:44:55.000Z</time>
      </trkpt>
      <trkpt lat="45.19139" lon="5.85455">
        <ele>540.77</ele>
        <time>2019-04-22T11:45:00.000Z</time>
      </trkpt>
      <trkpt lat="45.19199" lon="5.85391">
        <ele>527.81</ele>
        <time>2019-04-22T11:45:05.000Z</time>
      </trkpt>
      <trkpt lat="45.19263" lon="5.8537">
        <ele>522.5</ele>
        <time>2019-04-22T11:45:10.000Z</time>
      </trkpt>
      <trkpt lat="45.19327" lon="5.85338">
        <ele>516.38</ele>
        <time>2019-04-22T11:45:15.000Z</time>
      </trkpt>
      <trkpt lat="45.19355" lon="5.85371">
        <ele>510.08</ele>
        <time>2019-04-22T11:45:20.000Z</time>
      </trkpt>
      <trkpt lat="45.19372" lon="5.8537">
        <ele>505.21</ele>
        <time>2019-04-22T11:45:25.000Z</time>
      </trkpt>
      <trkpt lat="45.19374" lon="5.8534">
        <ele>501.3</ele>
        <time>2019-04-22T11:45:30.000Z</time>
      </trkpt>
      <trkpt lat="45.19372" lon="5.85293">
        <ele>497.92</ele>
        <time>2019-04-22T11:45:35.000Z</time>
      </trkpt>
      <trkpt lat="45.19378" lon="5.85231">
        <ele>496.4</ele>
        <time>2019-04-22T11:45:40.000Z</time>
      </trkpt>
      <trkpt lat="45.19409" lon="5.85171">
        <ele>493.9</ele>
        <time>2019-04-22T11:45:45.000Z</time>
      </trkpt>
      <trkpt lat="45.19461" lon="5.85183">
        <ele>489.33</ele>
        <time>2019-04-22T11:45:50.000Z</time>
      </trkpt>
      <trkpt lat="45.19466" lon="5.85096">
        <ele>486.4</ele>
        <time>2019-04-22T11:45:55.000Z</time>
      </trkpt>
      <trkpt lat="45.195" lon="5.85024">
        <ele>481.7</ele>
        <time>2019-04-22T11:46:00.000Z</time>
      </trkpt>
      <trkpt lat="45.19558" lon="5.84988">
        <ele>476.58</ele>
        <time>2019-04-22T11:46:05.000Z</time>
      </trkpt>
      <trkpt lat="45.1962" lon="5.8494">
        <ele>473.17</ele>
        <time>2019-04-22T11:46:10.000Z</time>
      </trkpt>
      <trkpt lat="45.19672" lon="5.84879">
        <ele>466.47</ele>
        <time>2019-04-22T11:46:15.000Z</time>
      </trkpt>
      <trkpt lat="45.19735" lon="5.84847">
        <ele>459.02</ele>
        <time>2019-04-22T11:46:20.000Z</time>
      </trkpt>
      <trkpt lat="45.19799" lon="5.84804">
        <ele>455.29</ele>
        <time>2019-04-22T11:46:25.000Z</time>
      </trkpt>
      <trkpt lat="45.19853" lon="5.84787">
        <ele>448.79</ele>
        <time>2019-04-22T11:46:30.000Z</time>
      </trkpt>
      <trkpt lat="45.19865" lon="5.84738">
        <ele>448.37</ele>
        <time>2019-04-22T11:46:35.000Z</time>
      </trkpt>
      <trkpt lat="45.19857" lon="5.84672">
        <ele>442.2</ele>
        <time>2019-04-22T11:46:40.000Z</time>
      </trkpt>
      <trkpt lat="45.19896" lon="5.84593">
        <ele>434.56</ele>
        <time>2019-04-22T11:46:45.000Z</time>
      </trkpt>
      <trkpt lat="45.19939" lon="5.84523">
        <ele>428.27</ele>
        <time>2019-04-22T11:46:50.000Z</time>
      </trkpt>
      <trkpt lat="45.19984" lon="5.84478">
        <ele>421.76</ele>
        <time>2019-04-22T11:46:55.000Z</time>
      </trkpt>
      <trkpt lat="45.20044" lon="5.84474">
        <ele>410.19</ele>
        <time>2019-04-22T11:47:00.000Z</time>
      </trkpt>
      <trkpt lat="45.20104" lon="5.84461">
        <ele>403.82</ele>
        <time>2019-04-22T11:47:05.000Z</time>
      </trkpt>
      <trkpt lat="45.20146" lon="5.84545">
        <ele>401.11</ele>
        <time>2019-04-22T11:47:10.000Z</time>
      </trkpt>
      <trkpt lat="45.20186" lon="5.84631">
        <ele>394.91</ele>
        <time>2019-04-22T11:47:15.000Z</time>
      </trkpt>
      <trkpt lat="45.20234" lon="5.84704">
        <ele>388.74</ele>
        <time>2019-04-22T11:47:20.000Z</time>
      </trkpt>
      <trkpt lat="45.20278" lon="5.84783">
        <ele>383.02</ele>
        <time>2019-04-22T11:47:25.000Z</time>
      </trkpt>
      <trkpt lat="45.2032" lon="5.84879">
        <ele>380.65</ele>
        <time>2019-04-22T11:47:30.000Z</time>
      </trkpt>
      <trkpt lat="45.20371" lon="5.84957">
        <ele>382.97</ele>
        <time>2019-04-22T11:47:35.000Z</time>
      </trkpt>
      <trkpt lat="45.20409" lon="5.85035">
        <ele>377.22</ele>
        <time>2019-04-22T11:47:40.000Z</time>
      </trkpt>
      <trkpt lat="45.20432" lon="5.85103">
        <ele>371.98</ele>
        <time>2019-04-22T11:47:45.000Z</time>
      </trkpt>
      <trkpt lat="45.20449" lon="5.85125">
        <ele>361.57</ele>
        <time>2019-04-22T11:47:50.000Z</time>
      </trkpt>
      <trkpt lat="45.20431" lon="5.85083">
        <ele>356.73</ele>
        <time>2019-04-22T11:47:55.000Z</time>
      </trkpt>
      <trkpt lat="45.20409" lon="5.85033">
        <ele>356.44</ele>
        <time>2019-04-22T11:48:00.000Z</time>
      </trkpt>
      <trkpt lat="45.20387" lon="5.8496">
        <ele>351.56</ele>
        <time>2019-04-22T11:48:05.000Z</time>
      </trkpt>
      <trkpt lat="45.20358" lon="5.84889">
        <ele>343.62</ele>
        <time>2019-04-22T11:48:10.000Z</time>
      </trkpt>
      <trkpt lat="45.2034" lon="5.84804">
        <ele>335.35</ele>
        <time>2019-04-22T11:48:15.000Z</time>
      </trkpt>
      <trkpt lat="45.20321" lon="5.8471">
        <ele>329.78</ele>
        <time>2019-04-22T11:48:20.000Z</time>
      </trkpt>
      <trkpt lat="45.20291" lon="5.84622">
        <ele>320.22</ele>
        <time>2019-04-22T11:48:25.000Z</time>
      </trkpt>
      <trkpt lat="45.20262" lon="5.84522">
        <ele>312.99</ele>
        <time>2019-04-22T11:48:30.000Z</time>
      </trkpt>
      <trkpt lat="45.20236" lon="5.84422">
        <ele>308.23</ele>
        <time>2019-04-22T11:48:35.000Z</time>
      </trkpt>
      <trkpt lat="45.20212" lon="5.84335">
        <ele>301.3</ele>
        <time>2019-04-22T11:48:40.000Z</time>
      </trkpt>
      <trkpt lat="45.20183" lon="5.84248">
        <ele>296.13</ele>
        <time>2019-04-22T11:48:45.000Z</time>
      </trkpt>
      <trkpt lat="45.20137" lon="5.84214">
        <ele>282.77</ele>
        <time>2019-04-22T11:48:50.000Z</time>
      </trkpt>
      <trkpt lat="45.2008" lon="5.84244">
        <ele>277.52</ele>
        <time>2019-04-22T11:48:55.000Z</time>
      </trkpt>
      <trkpt lat="45.20024" lon="5.84257">
        <ele>266.37</ele>
        <time>2019-04-22T11:49:00.000Z</time>
      </trkpt>
      <trkpt lat="45.19989" lon="5.84247">
        <ele>261.83</ele>
        <time>2019-04-22T11:49:05.000Z</time>
      </trkpt>
      <trkpt lat="45.20024" lon="5.84206">
        <ele>260.11</ele>
        <time>2019-04-22T11:49:10.000Z</time>
      </trkpt>
      <trkpt lat="45.20064" lon="5.84176">
        <ele>258.38</ele>
        <time>2019-04-22T11:49:15.000Z</time>
      </trkpt>
      <trkpt lat="45.20091" lon="5.84137">
        <ele>258.41</ele>
        <time>2019-04-22T11:49:20.000Z</time>
      </trkpt>
      <trkpt lat="45.20103" lon="5.84094">
        <ele>256.87</ele>
        <time>2019-04-22T11:49:25.000Z</time>
      </trkpt>
      <trkpt lat="45.20122" lon="5.84057">
        <ele>256.56</ele>
        <time>2019-04-22T11:49:30.000Z</time>
      </trkpt>
      <trkpt lat="45.20138" lon="5.84026">
        <ele>257.39</ele>
        <time>2019-04-22T11:49:35.000Z</time>
      </trkpt>
      <trkpt lat="45.20142" lon="5.84004">
        <ele>259.35</ele>
        <time>2019-04-22T11:49:40.000Z</time>
      </trkpt>
      <trkpt lat="45.20142" lon="5.83991">
        <ele>256.22</ele>
        <time>2019-04-22T11:50:07.000Z</time>
      </trkpt>
      <trkpt lat="45.20147" lon="5.83976">
        <ele>252.67</ele>
        <time>2019-04-22T11:50:12.000Z</time>
      </trkpt>
      <trkpt lat="45.20149" lon="5.83946">
        <ele>247.23</ele>
        <time>2019-04-22T11:50:17.000Z</time>
      </trkpt>
      <trkpt lat="45.20151" lon="5.83912">
        <ele>244.48</ele>
        <time>2019-04-22T11:50:22.000Z</time>
      </trkpt>
      <trkpt lat="45.20155" lon="5.83873">
        <ele>248.56</ele>
        <time>2019-04-22T11:50:27.000Z</time>
      </trkpt>
      <trkpt lat="45.20171" lon="5.83847">
        <ele>246.34</ele>
        <time>2019-04-22T11:50:32.000Z</time>
      </trkpt>
      <trkpt lat="45.20202" lon="5.83832">
        <ele>245.24</ele>
        <time>2019-04-22T11:50:37.000Z</time>
      </trkpt>
      <trkpt lat="45.20239" lon="5.83818">
        <ele>245.02</ele>
        <time>2019-04-22T11:50:42.000Z</time>
      </trkpt>
      <trkpt lat="45.20272" lon="5.83794">
        <ele>242.11</ele>
        <time>2019-04-22T11:50:47.000Z</time>
      </trkpt>
      <trkpt lat="45.20304" lon="5.83763">
        <ele>238.52</ele>
        <time>2019-04-22T11:50:52.000Z</time>
      </trkpt>
      <trkpt lat="45.20339" lon="5.8373">
        <ele>240.85</ele>
        <time>2019-04-22T11:50:57.000Z</time>
      </trkpt>
      <trkpt lat="45.2037" lon="5.83697">
        <ele>240.84</ele>
        <time>2019-04-22T11:51:02.000Z</time>
      </trkpt>
      <trkpt lat="45.20402" lon="5.83666">
        <ele>234.09</ele>
        <time>2019-04-22T11:51:07.000Z</time>
      </trkpt>
      <trkpt lat="45.20432" lon="5.83632">
        <ele>230.85</ele>
        <time>2019-04-22T11:51:12.000Z</time>
      </trkpt>
      <trkpt lat="45.20467" lon="5.83601">
        <ele>227.83</ele>
        <time>2019-04-22T11:51:17.000Z</time>
      </trkpt>
      <trkpt lat="45.205" lon="5.8357">
        <ele>227.71</ele>
        <time>2019-04-22T11:51:22.000Z</time>
      </trkpt>
      <trkpt lat="45.20534" lon="5.83543">
        <ele>226.42</ele>
        <time>2019-04-22T11:51:27.000Z</time>
      </trkpt>
      <trkpt lat="45.20569" lon="5.83519">
        <ele>225.67</ele>
        <time>2019-04-22T11:51:32.000Z</time>
      </trkpt>
      <trkpt lat="45.20601" lon="5.83495">
        <ele>223.92</ele>
        <time>2019-04-22T11:51:37.000Z</time>
      </trkpt>
      <trkpt lat="45.20635" lon="5.8347">
        <ele>223.16</ele>
        <time>2019-04-22T11:51:42.000Z</time>
      </trkpt>
      <trkpt lat="45.20668" lon="5.83444">
        <ele>222.43</ele>
        <time>2019-04-22T11:51:47.000Z</time>
      </trkpt>
      <trkpt lat="45.20699" lon="5.83419">
        <ele>219.36</ele>
        <time>2019-04-22T11:51:52.000Z</time>
      </trkpt>
      <trkpt lat="45.20733" lon="5.83395">
        <ele>223.41</ele>
        <time>2019-04-22T11:51:57.000Z</time>
      </trkpt>
      <trkpt lat="45.20767" lon="5.83367">
        <ele>219.19</ele>
        <time>2019-04-22T11:52:02.000Z</time>
      </trkpt>
      <trkpt lat="45.208" lon="5.8334">
        <ele>217.2</ele>
        <time>2019-04-22T11:52:07.000Z</time>
      </trkpt>
      <trkpt lat="45.20833" lon="5.83316">
        <ele>218.36</ele>
        <time>2019-04-22T11:52:12.000Z</time>
      </trkpt>
      <trkpt lat="45.20862" lon="5.83292">
        <ele>217.59</ele>
        <time>2019-04-22T11:52:17.000Z</time>
      </trkpt>
      <trkpt lat="45.20893" lon="5.83271">
        <ele>219.47</ele>
        <time>2019-04-22T11:52:22.000Z</time>
      </trkpt>
      <trkpt lat="45.20925" lon="5.8325">
        <ele>218.44</ele>
        <time>2019-04-22T11:52:27.000Z</time>
      </trkpt>
      <trkpt lat="45.20951" lon="5.83231">
        <ele>220.91</ele>
        <time>2019-04-22T11:52:32.000Z</time>
      </trkpt>
      <trkpt lat="45.20979" lon="5.83226">
        <ele>223.07</ele>
        <time>2019-04-22T11:52:37.000Z</time>
      </trkpt>
      <trkpt lat="45.20996" lon="5.83227">
        <ele>222.33</ele>
        <time>2019-04-22T11:52:42.000Z</time>
      </trkpt>
      <trkpt lat="45.21014" lon="5.83247">
        <ele>223</ele>
        <time>2019-04-22T11:52:47.000Z</time>
      </trkpt>
      <trkpt lat="45.21036" lon="5.8326">
        <ele>221.96</ele>
        <time>2019-04-22T11:52:52.000Z</time>
      </trkpt>
      <trkpt lat="45.21055" lon="5.83254">
        <ele>222.78</ele>
        <time>2019-04-22T11:52:57.000Z</time>
      </trkpt>
      <trkpt lat="45.21065" lon="5.83251">
        <ele>224</ele>
        <time>2019-04-22T11:53:02.000Z</time>
      </trkpt>
      <trkpt lat="45.21071" lon="5.83238">
        <ele>228.35</ele>
        <time>2019-04-22T11:53:31.000Z</time>
      </trkpt>
      <trkpt lat="45.21078" lon="5.83214">
        <ele>226.15</ele>
        <time>2019-04-22T11:53:36.000Z</time>
      </trkpt>
      <trkpt lat="45.21085" lon="5.83188">
        <ele>224.4</ele>
        <time>2019-04-22T11:53:41.000Z</time>
      </trkpt>
      <trkpt lat="45.21097" lon="5.83166">
        <ele>228.33</ele>
        <time>2019-04-22T11:53:46.000Z</time>
      </trkpt>
      <trkpt lat="45.21108" lon="5.83145">
        <ele>226.65</ele>
        <time>2019-04-22T11:53:51.000Z</time>
      </trkpt>
      <trkpt lat="45.21119" lon="5.83126">
        <ele>227.37</ele>
        <time>2019-04-22T11:53:56.000Z</time>
      </trkpt>
      <trkpt lat="45.21126" lon="5.83138">
        <ele>227.47</ele>
        <time>2019-04-22T11:55:36.000Z</time>
      </trkpt>
      <trkpt lat="45.21132" lon="5.83159">
        <ele>222.25</ele>
        <time>2019-04-22T11:55:41.000Z</time>
      </trkpt>
      <trkpt lat="45.21142" lon="5.8318">
        <ele>219.22</ele>
        <time>2019-04-22T11:55:46.000Z</time>
      </trkpt>
      <trkpt lat="45.21156" lon="5.83203">
        <ele>219.16</ele>
        <time>2019-04-22T11:55:51.000Z</time>
      </trkpt>
      <trkpt lat="45.2118" lon="5.83192">
        <ele>219.4</ele>
        <time>2019-04-22T11:55:56.000Z</time>
      </trkpt>
      <trkpt lat="45.21203" lon="5.83173">
        <ele>217.93</ele>
        <time>2019-04-22T11:56:01.000Z</time>
      </trkpt>
      <trkpt lat="45.21223" lon="5.8316">
        <ele>217.19</ele>
        <time>2019-04-22T11:56:06.000Z</time>
      </trkpt>
      <trkpt lat="45.21238" lon="5.83164">
        <ele>215.82</ele>
        <time>2019-04-22T11:56:11.000Z</time>
      </trkpt>
      <trkpt lat="45.21255" lon="5.83176">
        <ele>217.61</ele>
        <time>2019-04-22T11:56:16.000Z</time>
      </trkpt>
      <trkpt lat="45.2127" lon="5.83194">
        <ele>215.16</ele>
        <time>2019-04-22T11:56:21.000Z</time>
      </trkpt>
      <trkpt lat="45.21287" lon="5.83213">
        <ele>213.05</ele>
        <time>2019-04-22T11:56:26.000Z</time>
      </trkpt>
      <trkpt lat="45.21306" lon="5.83233">
        <ele>216.24</ele>
        <time>2019-04-22T11:56:31.000Z</time>
      </trkpt>
      <trkpt lat="45.21326" lon="5.83257">
        <ele>216.08</ele>
        <time>2019-04-22T11:56:36.000Z</time>
      </trkpt>
      <trkpt lat="45.21345" lon="5.83277">
        <ele>216.33</ele>
        <time>2019-04-22T11:56:41.000Z</time>
      </trkpt>
      <trkpt lat="45.21353" lon="5.83286">
        <ele>217.59</ele>
        <time>2019-04-22T11:56:46.000Z</time>
      </trkpt>
      <trkpt lat="45.21362" lon="5.83295">
        <ele>218.17</ele>
        <time>2019-04-22T11:57:29.000Z</time>
      </trkpt>
      <trkpt lat="45.21377" lon="5.83308">
        <ele>218.32</ele>
        <time>2019-04-22T11:57:34.000Z</time>
      </trkpt>
      <trkpt lat="45.21393" lon="5.83326">
        <ele>218.52</ele>
        <time>2019-04-22T11:57:39.000Z</time>
      </trkpt>
      <trkpt lat="45.21411" lon="5.83347">
        <ele>216.83</ele>
        <time>2019-04-22T11:57:44.000Z</time>
      </trkpt>
      <trkpt lat="45.21431" lon="5.8337">
        <ele>217.27</ele>
        <time>2019-04-22T11:57:49.000Z</time>
      </trkpt>
      <trkpt lat="45.2145" lon="5.8339">
        <ele>217.07</ele>
        <time>2019-04-22T11:57:54.000Z</time>
      </trkpt>
      <trkpt lat="45.21471" lon="5.83416">
        <ele>215.35</ele>
        <time>2019-04-22T11:57:59.000Z</time>
      </trkpt>
      <trkpt lat="45.21497" lon="5.83443">
        <ele>216.64</ele>
        <time>2019-04-22T11:58:04.000Z</time>
      </trkpt>
      <trkpt lat="45.21521" lon="5.83474">
        <ele>219.97</ele>
        <time>2019-04-22T11:58:09.000Z</time>
      </trkpt>
      <trkpt lat="45.21539" lon="5.83505">
        <ele>217.11</ele>
        <time>2019-04-22T11:58:14.000Z</time>
      </trkpt>
      <trkpt lat="45.21553" lon="5.83539">
        <ele>216</ele>
        <time>2019-04-22T11:58:19.000Z</time>
      </trkpt>
      <trkpt lat="45.21569" lon="5.83572">
        <ele>214</ele>
        <time>2019-04-22T11:58:24.000Z</time>
      </trkpt>
      <trkpt lat="45.21585" lon="5.83609">
        <ele>208.7</ele>
        <time>2019-04-22T11:58:29.000Z</time>
      </trkpt>
      <trkpt lat="45.21599" lon="5.83644">
        <ele>208.86</ele>
        <time>2019-04-22T11:58:34.000Z</time>
      </trkpt>
      <trkpt lat="45.21615" lon="5.83678">
        <ele>210.48</ele>
        <time>2019-04-22T11:58:39.000Z</time>
      </trkpt>
      <trkpt lat="45.21632" lon="5.83711">
        <ele>212.32</ele>
        <time>2019-04-22T11:58:44.000Z</time>
      </trkpt>
      <trkpt lat="45.21647" lon="5.83742">
        <ele>212.44</ele>
        <time>2019-04-22T11:58:49.000Z</time>
      </trkpt>
      <trkpt lat="45.21664" lon="5.83772">
        <ele>211.61</ele>
        <time>2019-04-22T11:58:54.000Z</time>
      </trkpt>
      <trkpt lat="45.21682" lon="5.83807">
        <ele>214.33</ele>
        <time>2019-04-22T11:58:59.000Z</time>
      </trkpt>
      <trkpt lat="45.21698" lon="5.83837">
        <ele>213.71</ele>
        <time>2019-04-22T11:59:04.000Z</time>
      </trkpt>
      <trkpt lat="45.21714" lon="5.83866">
        <ele>213.76</ele>
        <time>2019-04-22T11:59:09.000Z</time>
      </trkpt>
      <trkpt lat="45.21732" lon="5.83898">
        <ele>208.07</ele>
        <time>2019-04-22T11:59:14.000Z</time>
      </trkpt>
      <trkpt lat="45.21752" lon="5.83929">
        <ele>210.76</ele>
        <time>2019-04-22T11:59:19.000Z</time>
      </trkpt>
      <trkpt lat="45.21769" lon="5.83959">
        <ele>216.79</ele>
        <time>2019-04-22T11:59:24.000Z</time>
      </trkpt>
      <trkpt lat="45.21789" lon="5.83989">
        <ele>217.55</ele>
        <time>2019-04-22T11:59:29.000Z</time>
      </trkpt>
      <trkpt lat="45.21808" lon="5.84017">
        <ele>214.75</ele>
        <time>2019-04-22T11:59:34.000Z</time>
      </trkpt>
      <trkpt lat="45.21827" lon="5.84047">
        <ele>215.15</ele>
        <time>2019-04-22T11:59:39.000Z</time>
      </trkpt>
      <trkpt lat="45.21845" lon="5.84073">
        <ele>210.87</ele>
        <time>2019-04-22T11:59:44.000Z</time>
      </trkpt>
      <trkpt lat="45.21866" lon="5.84104">
        <ele>215.73</ele>
        <time>2019-04-22T11:59:49.000Z</time>
      </trkpt>
      <trkpt lat="45.21883" lon="5.8413">
        <ele>217.39</ele>
        <time>2019-04-22T11:59:54.000Z</time>
      </trkpt>
      <trkpt lat="45.21904" lon="5.84156">
        <ele>216.71</ele>
        <time>2019-04-22T11:59:59.000Z</time>
      </trkpt>
      <trkpt lat="45.21923" lon="5.8418">
        <ele>219.23</ele>
        <time>2019-04-22T12:00:04.000Z</time>
      </trkpt>
      <trkpt lat="45.21942" lon="5.84205">
        <ele>218.35</ele>
        <time>2019-04-22T12:00:09.000Z</time>
      </trkpt>
      <trkpt lat="45.21963" lon="5.84226">
        <ele>215.58</ele>
        <time>2019-04-22T12:00:14.000Z</time>
      </trkpt>
      <trkpt lat="45.21978" lon="5.84244">
        <ele>213.75</ele>
        <time>2019-04-22T12:00:19.000Z</time>
      </trkpt>
      <trkpt lat="45.21999" lon="5.84264">
        <ele>214.06</ele>
        <time>2019-04-22T12:00:24.000Z</time>
      </trkpt>
      <trkpt lat="45.22018" lon="5.84281">
        <ele>214.98</ele>
        <time>2019-04-22T12:00:29.000Z</time>
      </trkpt>
      <trkpt lat="45.22037" lon="5.84305">
        <ele>214.53</ele>
        <time>2019-04-22T12:00:34.000Z</time>
      </trkpt>
      <trkpt lat="45.2206" lon="5.84329">
        <ele>214.59</ele>
        <time>2019-04-22T12:00:39.000Z</time>
      </trkpt>
      <trkpt lat="45.22082" lon="5.84353">
        <ele>219.71</ele>
        <time>2019-04-22T12:00:44.000Z</time>
      </trkpt>
      <trkpt lat="45.22102" lon="5.84377">
        <ele>219.83</ele>
        <time>2019-04-22T12:00:49.000Z</time>
      </trkpt>
      <trkpt lat="45.2212" lon="5.84401">
        <ele>222.76</ele>
        <time>2019-04-22T12:00:54.000Z</time>
      </trkpt>
      <trkpt lat="45.22143" lon="5.84426">
        <ele>220.29</ele>
        <time>2019-04-22T12:00:59.000Z</time>
      </trkpt>
      <trkpt lat="45.2216" lon="5.84453">
        <ele>224.8</ele>
        <time>2019-04-22T12:01:04.000Z</time>
      </trkpt>
      <trkpt lat="45.22182" lon="5.84487">
        <ele>222.2</ele>
        <time>2019-04-22T12:01:09.000Z</time>
      </trkpt>
      <trkpt lat="45.22198" lon="5.84512">
        <ele>219.07</ele>
        <time>2019-04-22T12:01:14.000Z</time>
      </trkpt>
      <trkpt lat="45.2222" lon="5.84537">
        <ele>217.38</ele>
        <time>2019-04-22T12:01:19.000Z</time>
      </trkpt>
      <trkpt lat="45.22245" lon="5.84564">
        <ele>218.01</ele>
        <time>2019-04-22T12:01:24.000Z</time>
      </trkpt>
      <trkpt lat="45.22272" lon="5.84594">
        <ele>219.7</ele>
        <time>2019-04-22T12:01:29.000Z</time>
      </trkpt>
      <trkpt lat="45.22294" lon="5.84625">
        <ele>217.3</ele>
        <time>2019-04-22T12:01:34.000Z</time>
      </trkpt>
      <trkpt lat="45.22313" lon="5.84658">
        <ele>213.34</ele>
        <time>2019-04-22T12:01:39.000Z</time>
      </trkpt>
      <trkpt lat="45.22337" lon="5.84684">
        <ele>214.97</ele>
        <time>2019-04-22T12:01:44.000Z</time>
      </trkpt>
      <trkpt lat="45.2236" lon="5.84711">
        <ele>218.16</ele>
        <time>2019-04-22T12:01:49.000Z</time>
      </trkpt>
      <trkpt lat="45.2238" lon="5.84738">
        <ele>221.29</ele>
        <time>2019-04-22T12:01:54.000Z</time>
      </trkpt>
      <trkpt lat="45.224" lon="5.84767">
        <ele>222.95</ele>
        <time>2019-04-22T12:01:59.000Z</time>
      </trkpt>
      <trkpt lat="45.22418" lon="5.8479">
        <ele>221.39</ele>
        <time>2019-04-22T12:02:04.000Z</time>
      </trkpt>
      <trkpt lat="45.22444" lon="5.84817">
        <ele>222.94</ele>
        <time>2019-04-22T12:02:09.000Z</time>
      </trkpt>
      <trkpt lat="45.22469" lon="5.84844">
        <ele>221.07</ele>
        <time>2019-04-22T12:02:14.000Z</time>
      </trkpt>
      <trkpt lat="45.22492" lon="5.84873">
        <ele>220.38</ele>
        <time>2019-04-22T12:02:19.000Z</time>
      </trkpt>
      <trkpt lat="45.2251" lon="5.849">
        <ele>214.69</ele>
        <time>2019-04-22T12:02:24.000Z</time>
      </trkpt>
      <trkpt lat="45.22528" lon="5.84925">
        <ele>216.24</ele>
        <time>2019-04-22T12:02:29.000Z</time>
      </trkpt>
      <trkpt lat="45.22546" lon="5.84951">
        <ele>213.91</ele>
        <time>2019-04-22T12:02:34.000Z</time>
      </trkpt>
      <trkpt lat="45.22567" lon="5.8497">
        <ele>215.37</ele>
        <time>2019-04-22T12:02:39.000Z</time>
      </trkpt>
      <trkpt lat="45.22588" lon="5.84993">
        <ele>217.99</ele>
        <time>2019-04-22T12:02:44.000Z</time>
      </trkpt>
      <trkpt lat="45.2261" lon="5.85017">
        <ele>224.4</ele>
        <time>2019-04-22T12:02:49.000Z</time>
      </trkpt>
      <trkpt lat="45.22631" lon="5.85044">
        <ele>222.13</ele>
        <time>2019-04-22T12:02:54.000Z</time>
      </trkpt>
      <trkpt lat="45.22648" lon="5.85066">
        <ele>219.9</ele>
        <time>2019-04-22T12:02:59.000Z</time>
      </trkpt>
      <trkpt lat="45.2267" lon="5.8509">
        <ele>220.62</ele>
        <time>2019-04-22T12:03:04.000Z</time>
      </trkpt>
      <trkpt lat="45.2269" lon="5.85116">
        <ele>220.85</ele>
        <time>2019-04-22T12:03:09.000Z</time>
      </trkpt>
      <trkpt lat="45.22712" lon="5.8514">
        <ele>221.23</ele>
        <time>2019-04-22T12:03:14.000Z</time>
      </trkpt>
      <trkpt lat="45.22734" lon="5.85165">
        <ele>218.96</ele>
        <time>2019-04-22T12:03:19.000Z</time>
      </trkpt>
      <trkpt lat="45.22755" lon="5.85192">
        <ele>220.42</ele>
        <time>2019-04-22T12:03:24.000Z</time>
      </trkpt>
      <trkpt lat="45.22774" lon="5.85216">
        <ele>219.9</ele>
        <time>2019-04-22T12:03:29.000Z</time>
      </trkpt>
      <trkpt lat="45.22795" lon="5.85244">
        <ele>221.73</ele>
        <time>2019-04-22T12:03:34.000Z</time>
      </trkpt>
      <trkpt lat="45.22817" lon="5.85269">
        <ele>221.04</ele>
        <time>2019-04-22T12:03:39.000Z</time>
      </trkpt>
      <trkpt lat="45.22841" lon="5.85296">
        <ele>223.53</ele>
        <time>2019-04-22T12:03:44.000Z</time>
      </trkpt>
      <trkpt lat="45.22864" lon="5.85323">
        <ele>226.23</ele>
        <time>2019-04-22T12:03:49.000Z</time>
      </trkpt>
      <trkpt lat="45.22884" lon="5.85352">
        <ele>219.75</ele>
        <time>2019-04-22T12:03:54.000Z</time>
      </trkpt>
      <trkpt lat="45.22907" lon="5.8538">
        <ele>217.17</ele>
        <time>2019-04-22T12:03:59.000Z</time>
      </trkpt>
      <trkpt lat="45.22923" lon="5.854">
        <ele>218.43</ele>
        <time>2019-04-22T12:04:04.000Z</time>
      </trkpt>
      <trkpt lat="45.22928" lon="5.85426">
        <ele>216.87</ele>
        <time>2019-04-22T12:04:09.000Z</time>
      </trkpt>
      <trkpt lat="45.22937" lon="5.85452">
        <ele>217.4</ele>
        <time>2019-04-22T12:04:14.000Z</time>
      </trkpt>
      <trkpt lat="45.2295" lon="5.85476">
        <ele>218</ele>
        <time>2019-04-22T12:04:19.000Z</time>
      </trkpt>
      <trkpt lat="45.22964" lon="5.85502">
        <ele>219.13</ele>
        <time>2019-04-22T12:04:24.000Z</time>
      </trkpt>
      <trkpt lat="45.22977" lon="5.85521">
        <ele>217.99</ele>
        <time>2019-04-22T12:04:29.000Z</time>
      </trkpt>
      <trkpt lat="45.22992" lon="5.85513">
        <ele>222.94</ele>
        <time>2019-04-22T12:04:34.000Z</time>
      </trkpt>
      <trkpt lat="45.23001" lon="5.85497">
        <ele>222.09</ele>
        <time>2019-04-22T12:04:39.000Z</time>
      </trkpt>
      <trkpt lat="45.23007" lon="5.85487">
        <ele>219.72</ele>
        <time>2019-04-22T12:04:52.000Z</time>
      </trkpt>
      <trkpt lat="45.23018" lon="5.85473">
        <ele>221.8</ele>
        <time>2019-04-22T12:04:57.000Z</time>
      </trkpt>
      <trkpt lat="45.23032" lon="5.85455">
        <ele>218.88</ele>
        <time>2019-04-22T12:05:02.000Z</time>
      </trkpt>
      <trkpt lat="45.23049" lon="5.8543">
        <ele>221.91</ele>
        <time>2019-04-22T12:05:07.000Z</time>
      </trkpt>
      <trkpt lat="45.23065" lon="5.85404">
        <ele>221.51</ele>
        <time>2019-04-22T12:05:12.000Z</time>
      </trkpt>
      <trkpt lat="45.23079" lon="5.85379">
        <ele>216.98</ele>
        <time>2019-04-22T12:05:17.000Z</time>
      </trkpt>
      <trkpt lat="45.23096" lon="5.85404">
        <ele>215.87</ele>
        <time>2019-04-22T12:05:22.000Z</time>
      </trkpt>
      <trkpt lat="45.2312" lon="5.85437">
        <ele>216.08</ele>
        <time>2019-04-22T12:05:27.000Z</time>
      </trkpt>
      <trkpt lat="45.2314" lon="5.85463">
        <ele>210.66</ele>
        <time>2019-04-22T12:05:32.000Z</time>
      </trkpt>
      <trkpt lat="45.23169" lon="5.8548">
        <ele>211.67</ele>
        <time>2019-04-22T12:05:37.000Z</time>
      </trkpt>
      <trkpt lat="45.232" lon="5.85489">
        <ele>213.61</ele>
        <time>2019-04-22T12:05:42.000Z</time>
      </trkpt>
      <trkpt lat="45.23233" lon="5.85496">
        <ele>212.44</ele>
        <time>2019-04-22T12:05:47.000Z</time>
      </trkpt>
      <trkpt lat="45.23262" lon="5.85499">
        <ele>213.3</ele>
        <time>2019-04-22T12:05:52.000Z</time>
      </trkpt>
      <trkpt lat="45.23295" lon="5.85497">
        <ele>216.04</ele>
        <time>2019-04-22T12:05:57.000Z</time>
      </trkpt>
      <trkpt lat="45.23324" lon="5.85497">
        <ele>218.47</ele>
        <time>2019-04-22T12:06:02.000Z</time>
      </trkpt>
      <trkpt lat="45.23347" lon="5.855">
        <ele>217.65</ele>
        <time>2019-04-22T12:06:07.000Z</time>
      </trkpt>
      <trkpt lat="45.23371" lon="5.85502">
        <ele>220.33</ele>
        <time>2019-04-22T12:06:12.000Z</time>
      </trkpt>
      <trkpt lat="45.23396" lon="5.85501">
        <ele>218.67</ele>
        <time>2019-04-22T12:06:17.000Z</time>
      </trkpt>
      <trkpt lat="45.23421" lon="5.85502">
        <ele>217.8</ele>
        <time>2019-04-22T12:06:22.000Z</time>
      </trkpt>
      <trkpt lat="45.23457" lon="5.85507">
        <ele>219.92</ele>
        <time>2019-04-22T12:06:27.000Z</time>
      </trkpt>
      <trkpt lat="45.23486" lon="5.85515">
        <ele>218.44</ele>
        <time>2019-04-22T12:06:32.000Z</time>
      </trkpt>
      <trkpt lat="45.23511" lon="5.85517">
        <ele>216.48</ele>
        <time>2019-04-22T12:06:37.000Z</time>
      </trkpt>
      <trkpt lat="45.23533" lon="5.85521">
        <ele>211.56</ele>
        <time>2019-04-22T12:06:42.000Z</time>
      </trkpt>
      <trkpt lat="45.23552" lon="5.85512">
        <ele>212.5</ele>
        <time>2019-04-22T12:06:47.000Z</time>
      </trkpt>
      <trkpt lat="45.23561" lon="5.85506">
        <ele>211.7</ele>
        <time>2019-04-22T12:06:58.000Z</time>
      </trkpt>
      <trkpt lat="45.23569" lon="5.85508">
        <ele>213.38</ele>
        <time>2019-04-22T12:07:24.000Z</time>
      </trkpt>
      <trkpt lat="45.23577" lon="5.85514">
        <ele>212.58</ele>
        <time>2019-04-22T12:07:35.000Z</time>
      </trkpt>
      <trkpt lat="45.23588" lon="5.85515">
        <ele>220.9</ele>
        <time>2019-04-22T12:07:52.000Z</time>
      </trkpt>
      <trkpt lat="45.23607" lon="5.85513">
        <ele>219.99</ele>
        <time>2019-04-22T12:07:57.000Z</time>
      </trkpt>
      <trkpt lat="45.23628" lon="5.85506">
        <ele>220.62</ele>
        <time>2019-04-22T12:08:02.000Z</time>
      </trkpt>
      <trkpt lat="45.23648" lon="5.85502">
        <ele>222.58</ele>
        <time>2019-04-22T12:08:07.000Z</time>
      </trkpt>
      <trkpt lat="45.23668" lon="5.85499">
        <ele>226.34</ele>
        <time>2019-04-22T12:08:12.000Z</time>
      </trkpt>
      <trkpt lat="45.23682" lon="5.85506">
        <ele>222.48</ele>
        <time>2019-04-22T12:08:17.000Z</time>
      </trkpt>
      <trkpt lat="45.23696" lon="5.85528">
        <ele>222.41</ele>
        <time>2019-04-22T12:08:22.000Z</time>
      </trkpt>
      <trkpt lat="45.23711" lon="5.85551">
        <ele>224.77</ele>
        <time>2019-04-22T12:08:27.000Z</time>
      </trkpt>
      <trkpt lat="45.23728" lon="5.85571">
        <ele>223.19</ele>
        <time>2019-04-22T12:08:32.000Z</time>
      </trkpt>
      <trkpt lat="45.23741" lon="5.85592">
        <ele>223.94</ele>
        <time>2019-04-22T12:08:37.000Z</time>
      </trkpt>
      <trkpt lat="45.23747" lon="5.85621">
        <ele>221.8</ele>
        <time>2019-04-22T12:08:42.000Z</time>
      </trkpt>
      <trkpt lat="45.23752" lon="5.85651">
        <ele>217.45</ele>
        <time>2019-04-22T12:08:47.000Z</time>
      </trkpt>
      <trkpt lat="45.23761" lon="5.85676">
        <ele>217.71</ele>
        <time>2019-04-22T12:08:52.000Z</time>
      </trkpt>
      <trkpt lat="45.23767" lon="5.85703">
        <ele>218.81</ele>
        <time>2019-04-22T12:08:57.000Z</time>
      </trkpt>
      <trkpt lat="45.23774" lon="5.85725">
        <ele>221.17</ele>
        <time>2019-04-22T12:09:02.000Z</time>
      </trkpt>
      <trkpt lat="45.23781" lon="5.85746">
        <ele>222.65</ele>
        <time>2019-04-22T12:09:07.000Z</time>
      </trkpt>
      <trkpt lat="45.23786" lon="5.85772">
        <ele>220.21</ele>
        <time>2019-04-22T12:09:12.000Z</time>
      </trkpt>
      <trkpt lat="45.23791" lon="5.85799">
        <ele>220.94</ele>
        <time>2019-04-22T12:09:17.000Z</time>
      </trkpt>
      <trkpt lat="45.23794" lon="5.85824">
        <ele>222.13</ele>
        <time>2019-04-22T12:09:22.000Z</time>
      </trkpt>
      <trkpt lat="45.23797" lon="5.85853">
        <ele>219.34</ele>
        <time>2019-04-22T12:09:27.000Z</time>
      </trkpt>
      <trkpt lat="45.238" lon="5.85876">
        <ele>219.28</ele>
        <time>2019-04-22T12:09:32.000Z</time>
      </trkpt>
      <trkpt lat="45.23806" lon="5.85893">
        <ele>220.27</ele>
        <time>2019-04-22T12:09:37.000Z</time>
      </trkpt>
      <trkpt lat="45.23814" lon="5.85911">
        <ele>223.37</ele>
        <time>2019-04-22T12:09:42.000Z</time>
      </trkpt>
      <trkpt lat="45.23815" lon="5.85925">
        <ele>217.66</ele>
        <time>2019-04-22T12:09:47.000Z</time>
      </trkpt>
      <trkpt lat="45.23815" lon="5.8594">
        <ele>214.42</ele>
        <time>2019-04-22T12:10:22.000Z</time>
      </trkpt>
      <trkpt lat="45.23814" lon="5.85961">
        <ele>217.13</ele>
        <time>2019-04-22T12:10:27.000Z</time>
      </trkpt>
      <trkpt lat="45.23815" lon="5.8598">
        <ele>215.75</ele>
        <time>2019-04-22T12:10:32.000Z</time>
      </trkpt>
      <trkpt lat="45.23815" lon="5.85997">
        <ele>215.65</ele>
        <time>2019-04-22T12:10:37.000Z</time>
      </trkpt>
      <trkpt lat="45.23817" lon="5.86017">
        <ele>217.42</ele>
        <time>2019-04-22T12:10:42.000Z</time>
      </trkpt>
      <trkpt lat="45.23818" lon="5.86037">
        <ele>219.6</ele>
        <time>2019-04-22T12:10:47.000Z</time>
      </trkpt>
      <trkpt lat="45.23821" lon="5.86058">
        <ele>220.57</ele>
        <time>2019-04-22T12:10:52.000Z</time>
      </trkpt>
      <trkpt lat="45.23819" lon="5.86078">
        <ele>220.18</ele>
        <time>2019-04-22T12:10:57.000Z</time>
      </trkpt>
      <trkpt lat="45.23817" lon="5.86097">
        <ele>219.46</ele>
        <time>2019-04-22T12:11:02.000Z</time>
      </trkpt>
      <trkpt lat="45.23814" lon="5.86118">
        <ele>222.07</ele>
        <time>2019-04-22T12:11:07.000Z</time>
      </trkpt>
      <trkpt lat="45.23814" lon="5.86136">
        <ele>222.5</ele>
        <time>2019-04-22T12:11:12.000Z</time>
      </trkpt>
      <trkpt lat="45.23813" lon="5.86153">
        <ele>221.59</ele>
        <time>2019-04-22T12:11:17.000Z</time>
      </trkpt>
      <trkpt lat="45.23807" lon="5.86182">
        <ele>216.34</ele>
        <time>2019-04-22T12:11:22.000Z</time>
      </trkpt>
      <trkpt lat="45.23811" lon="5.86204">
        <ele>216.28</ele>
        <time>2019-04-22T12:11:27.000Z</time>
      </trkpt>
      <trkpt lat="45.23819" lon="5.86223">
        <ele>222.83</ele>
        <time>2019-04-22T12:11:32.000Z</time>
      </trkpt>
      <trkpt lat="45.23825" lon="5.86234">
        <ele>223.73</ele>
        <time>2019-04-22T12:12:19.000Z</time>
      </trkpt>
      <trkpt lat="45.23838" lon="5.86235">
        <ele>222.23</ele>
        <time>2019-04-22T12:12:24.000Z</time>
      </trkpt>
      <trkpt lat="45.23856" lon="5.8623">
        <ele>224.29</ele>
        <time>2019-04-22T12:12:29.000Z</time>
      </trkpt>
      <trkpt lat="45.23871" lon="5.86216">
        <ele>225.75</ele>
        <time>2019-04-22T12:12:34.000Z</time>
      </trkpt>
      <trkpt lat="45.2388" lon="5.86205">
        <ele>227.94</ele>
        <time>2019-04-22T12:12:39.000Z</time>
      </trkpt>
      <trkpt lat="45.23872" lon="5.86216">
        <ele>223</ele>
        <time>2019-04-22T12:12:45.000Z</time>
      </trkpt>
      <trkpt lat="45.23859" lon="5.86232">
        <ele>223.36</ele>
        <time>2019-04-22T12:12:50.000Z</time>
      </trkpt>
      <trkpt lat="45.23839" lon="5.86235">
        <ele>226.27</ele>
        <time>2019-04-22T12:12:55.000Z</time>
      </trkpt>
      <trkpt lat="45.23824" lon="5.86237">
        <ele>225.41</ele>
        <time>2019-04-22T12:13:00.000Z</time>
      </trkpt>
      <trkpt lat="45.23813" lon="5.86251">
        <ele>227.87</ele>
        <time>2019-04-22T12:13:05.000Z</time>
      </trkpt>
      <trkpt lat="45.23804" lon="5.86273">
        <ele>224.53</ele>
        <time>2019-04-22T12:13:10.000Z</time>
      </trkpt>
      <trkpt lat="45.23791" lon="5.86291">
        <ele>224.44</ele>
        <time>2019-04-22T12:13:15.000Z</time>
      </trkpt>
      <trkpt lat="45.23776" lon="5.86307">
        <ele>222.36</ele>
        <time>2019-04-22T12:13:20.000Z</time>
      </trkpt>
      <trkpt lat="45.23758" lon="5.86322">
        <ele>210.94</ele>
        <time>2019-04-22T12:13:25.000Z</time>
      </trkpt>
      <trkpt lat="45.2374" lon="5.86338">
        <ele>211.45</ele>
        <time>2019-04-22T12:13:30.000Z</time>
      </trkpt>
      <trkpt lat="45.23728" lon="5.86362">
        <ele>211.94</ele>
        <time>2019-04-22T12:13:35.000Z</time>
      </trkpt>
      <trkpt lat="45.2372" lon="5.86382">
        <ele>212.85</ele>
        <time>2019-04-22T12:13:40.000Z</time>
      </trkpt>
      <trkpt lat="45.23714" lon="5.86401">
        <ele>218.26</ele>
        <time>2019-04-22T12:13:45.000Z</time>
      </trkpt>
      <trkpt lat="45.23706" lon="5.86424">
        <ele>217.88</ele>
        <time>2019-04-22T12:13:50.000Z</time>
      </trkpt>
      <trkpt lat="45.23698" lon="5.86447">
        <ele>217.85</ele>
        <time>2019-04-22T12:13:55.000Z</time>
      </trkpt>
      <trkpt lat="45.23689" lon="5.8647">
        <ele>216.03</ele>
        <time>2019-04-22T12:14:00.000Z</time>
      </trkpt>
      <trkpt lat="45.23684" lon="5.86491">
        <ele>219.37</ele>
        <time>2019-04-22T12:14:05.000Z</time>
      </trkpt>
      <trkpt lat="45.23676" lon="5.86512">
        <ele>219.36</ele>
        <time>2019-04-22T12:14:10.000Z</time>
      </trkpt>
      <trkpt lat="45.2367" lon="5.86529">
        <ele>218.24</ele>
        <time>2019-04-22T12:14:15.000Z</time>
      </trkpt>
      <trkpt lat="45.23662" lon="5.86554">
        <ele>221.19</ele>
        <time>2019-04-22T12:14:20.000Z</time>
      </trkpt>
      <trkpt lat="45.23652" lon="5.86578">
        <ele>219.03</ele>
        <time>2019-04-22T12:14:25.000Z</time>
      </trkpt>
      <trkpt lat="45.23645" lon="5.86603">
        <ele>223.67</ele>
        <time>2019-04-22T12:14:30.000Z</time>
      </trkpt>
      <trkpt lat="45.23637" lon="5.86626">
        <ele>224.18</ele>
        <time>2019-04-22T12:14:35.000Z</time>
      </trkpt>
      <trkpt lat="45.23634" lon="5.86648">
        <ele>225.06</ele>
        <time>2019-04-22T12:14:40.000Z</time>
      </trkpt>
      <trkpt lat="45.23627" lon="5.86668">
        <ele>224.81</ele>
        <time>2019-04-22T12:14:45.000Z</time>
      </trkpt>
      <trkpt lat="45.23621" lon="5.86691">
        <ele>223.73</ele>
        <time>2019-04-22T12:14:50.000Z</time>
      </trkpt>
      <trkpt lat="45.23614" lon="5.86714">
        <ele>225.02</ele>
        <time>2019-04-22T12:14:55.000Z</time>
      </trkpt>
      <trkpt lat="45.23609" lon="5.86734">
        <ele>227.95</ele>
        <time>2019-04-22T12:15:00.000Z</time>
      </trkpt>
      <trkpt lat="45.23601" lon="5.86759">
        <ele>225.51</ele>
        <time>2019-04-22T12:15:05.000Z</time>
      </trkpt>
      <trkpt lat="45.23595" lon="5.86785">
        <ele>223.14</ele>
        <time>2019-04-22T12:15:10.000Z</time>
      </trkpt>
      <trkpt lat="45.23591" lon="5.86809">
        <ele>223.46</ele>
        <time>2019-04-22T12:15:15.000Z</time>
      </trkpt>
      <trkpt lat="45.23585" lon="5.86834">
        <ele>222.68</ele>
        <time>2019-04-22T12:15:20.000Z</time>
      </trkpt>
      <trkpt lat="45.23575" lon="5.86859">
        <ele>223.48</ele>
        <time>2019-04-22T12:15:25.000Z</time>
      </trkpt>
      <trkpt lat="45.23565" lon="5.86883">
        <ele>221.81</ele>
        <time>2019-04-22T12:15:30.000Z</time>
      </trkpt>
      <trkpt lat="45.23558" lon="5.86906">
        <ele>217.22</ele>
        <time>2019-04-22T12:15:35.000Z</time>
      </trkpt>
      <trkpt lat="45.2355" lon="5.8693">
        <ele>220.92</ele>
        <time>2019-04-22T12:15:40.000Z</time>
      </trkpt>
      <trkpt lat="45.23543" lon="5.86954">
        <ele>222.27</ele>
        <time>2019-04-22T12:15:45.000Z</time>
      </trkpt>
      <trkpt lat="45.23539" lon="5.8698">
        <ele>224.39</ele>
        <time>2019-04-22T12:15:50.000Z</time>
      </trkpt>
      <trkpt lat="45.23536" lon="5.87003">
        <ele>227.21</ele>
        <time>2019-04-22T12:15:55.000Z</time>
      </trkpt>
      <trkpt lat="45.23537" lon="5.87023">
        <ele>228.39</ele>
        <time>2019-04-22T12:16:00.000Z</time>
      </trkpt>
      <trkpt lat="45.23535" lon="5.87045">
        <ele>226.82</ele>
        <time>2019-04-22T12:16:05.000Z</time>
      </trkpt>
      <trkpt lat="45.23532" lon="5.87065">
        <ele>223.95</ele>
        <time>2019-04-22T12:16:10.000Z</time>
      </trkpt>
      <trkpt lat="45.23529" lon="5.87086">
        <ele>226.27</ele>
        <time>2019-04-22T12:16:15.000Z</time>
      </trkpt>
      <trkpt lat="45.23526" lon="5.8711">
        <ele>228.31</ele>
        <time>2019-04-22T12:16:20.000Z</time>
      </trkpt>
      <trkpt lat="45.23524" lon="5.87134">
        <ele>228.51</ele>
        <time>2019-04-22T12:16:25.000Z</time>
      </trkpt>
      <trkpt lat="45.23523" lon="5.87157">
        <ele>227.86</ele>
        <time>2019-04-22T12:16:30.000Z</time>
      </trkpt>
      <trkpt lat="45.23522" lon="5.87179">
        <ele>226.86</ele>
        <time>2019-04-22T12:16:35.000Z</time>
      </trkpt>
      <trkpt lat="45.2352" lon="5.87204">
        <ele>227.82</ele>
        <time>2019-04-22T12:16:40.000Z</time>
      </trkpt>
      <trkpt lat="45.23517" lon="5.87229">
        <ele>225.01</ele>
        <time>2019-04-22T12:16:45.000Z</time>
      </trkpt>
      <trkpt lat="45.23515" lon="5.87254">
        <ele>224.27</ele>
        <time>2019-04-22T12:16:50.000Z</time>
      </trkpt>
      <trkpt lat="45.23517" lon="5.87278">
        <ele>224.32</ele>
        <time>2019-04-22T12:16:55.000Z</time>
      </trkpt>
      <trkpt lat="45.23521" lon="5.87301">
        <ele>223.43</ele>
        <time>2019-04-22T12:17:00.000Z</time>
      </trkpt>
      <trkpt lat="45.23525" lon="5.87322">
        <ele>224.23</ele>
        <time>2019-04-22T12:17:05.000Z</time>
      </trkpt>
      <trkpt lat="45.23529" lon="5.87343">
        <ele>221.99</ele>
        <time>2019-04-22T12:17:10.000Z</time>
      </trkpt>
      <trkpt lat="45.23532" lon="5.87363">
        <ele>220.42</ele>
        <time>2019-04-22T12:17:15.000Z</time>
      </trkpt>
      <trkpt lat="45.23538" lon="5.87385">
        <ele>220.04</ele>
        <time>2019-04-22T12:17:20.000Z</time>
      </trkpt>
      <trkpt lat="45.23545" lon="5.87406">
        <ele>219.84</ele>
        <time>2019-04-22T12:17:25.000Z</time>
      </trkpt>
      <trkpt lat="45.23556" lon="5.87429">
        <ele>217.93</ele>
        <time>2019-04-22T12:17:30.000Z</time>
      </trkpt>
      <trkpt lat="45.23571" lon="5.87454">
        <ele>220</ele>
        <time>2019-04-22T12:17:35.000Z</time>
      </trkpt>
      <trkpt lat="45.23579" lon="5.8748">
        <ele>217.31</ele>
        <time>2019-04-22T12:17:40.000Z</time>
      </trkpt>
      <trkpt lat="45.23587" lon="5.87507">
        <ele>215.19</ele>
        <time>2019-04-22T12:17:45.000Z</time>
      </trkpt>
      <trkpt lat="45.23594" lon="5.87533">
        <ele>216.43</ele>
        <time>2019-04-22T12:17:50.000Z</time>
      </trkpt>
      <trkpt lat="45.23604" lon="5.87559">
        <ele>218.13</ele>
        <time>2019-04-22T12:17:55.000Z</time>
      </trkpt>
      <trkpt lat="45.23613" lon="5.87583">
        <ele>218.01</ele>
        <time>2019-04-22T12:18:00.000Z</time>
      </trkpt>
      <trkpt lat="45.23626" lon="5.87606">
        <ele>219.75</ele>
        <time>2019-04-22T12:18:05.000Z</time>
      </trkpt>
      <trkpt lat="45.23635" lon="5.87632">
        <ele>221.81</ele>
        <time>2019-04-22T12:18:10.000Z</time>
      </trkpt>
      <trkpt lat="45.23643" lon="5.87656">
        <ele>221.13</ele>
        <time>2019-04-22T12:18:15.000Z</time>
      </trkpt>
      <trkpt lat="45.23648" lon="5.87683">
        <ele>221.27</ele>
        <time>2019-04-22T12:18:20.000Z</time>
      </trkpt>
      <trkpt lat="45.23654" lon="5.8771">
        <ele>220.19</ele>
        <time>2019-04-22T12:18:25.000Z</time>
      </trkpt>
      <trkpt lat="45.23661" lon="5.87735">
        <ele>220.28</ele>
        <time>2019-04-22T12:18:30.000Z</time>
      </trkpt>
      <trkpt lat="45.23669" lon="5.87756">
        <ele>217.12</ele>
        <time>2019-04-22T12:18:35.000Z</time>
      </trkpt>
      <trkpt lat="45.2368" lon="5.87775">
        <ele>215.9</ele>
        <time>2019-04-22T12:18:40.000Z</time>
      </trkpt>
      <trkpt lat="45.23693" lon="5.87794">
        <ele>219.64</ele>
        <time>2019-04-22T12:18:45.000Z</time>
      </trkpt>
      <trkpt lat="45.23704" lon="5.87811">
        <ele>219.26</ele>
        <time>2019-04-22T12:18:50.000Z</time>
      </trkpt>
      <trkpt lat="45.2371" lon="5.87827">
        <ele>218.65</ele>
        <time>2019-04-22T12:18:55.000Z</time>
      </trkpt>
      <trkpt lat="45.23717" lon="5.87837">
        <ele>220.32</ele>
        <time>2019-04-22T12:20:22.000Z</time>
      </trkpt>
      <trkpt lat="45.2373" lon="5.87854">
        <ele>223.09</ele>
        <time>2019-04-22T12:20:27.000Z</time>
      </trkpt>
      <trkpt lat="45.23743" lon="5.87867">
        <ele>222.52</ele>
        <time>2019-04-22T12:20:32.000Z</time>
      </trkpt>
      <trkpt lat="45.23756" lon="5.87881">
        <ele>224.63</ele>
        <time>2019-04-22T12:20:37.000Z</time>
      </trkpt>
      <trkpt lat="45.23775" lon="5.87894">
        <ele>224.84</ele>
        <time>2019-04-22T12:20:42.000Z</time>
      </trkpt>
      <trkpt lat="45.23802" lon="5.87909">
        <ele>223.41</ele>
        <time>2019-04-22T12:20:47.000Z</time>
      </trkpt>
      <trkpt lat="45.23816" lon="5.8791">
        <ele>224.84</ele>
        <time>2019-04-22T12:20:52.000Z</time>
      </trkpt>
      <trkpt lat="45.23834" lon="5.87923">
        <ele>224.97</ele>
        <time>2019-04-22T12:20:57.000Z</time>
      </trkpt>
      <trkpt lat="45.23854" lon="5.87937">
        <ele>225.65</ele>
        <time>2019-04-22T12:21:02.000Z</time>
      </trkpt>
      <trkpt lat="45.2387" lon="5.87948">
        <ele>227.38</ele>
        <time>2019-04-22T12:21:07.000Z</time>
      </trkpt>
      <trkpt lat="45.23883" lon="5.87957">
        <ele>225.45</ele>
        <time>2019-04-22T12:21:12.000Z</time>
      </trkpt>
      <trkpt lat="45.23897" lon="5.87961">
        <ele>225.04</ele>
        <time>2019-04-22T12:21:17.000Z</time>
      </trkpt>
      <trkpt lat="45.23913" lon="5.8797">
        <ele>227.81</ele>
        <time>2019-04-22T12:21:22.000Z</time>
      </trkpt>
      <trkpt lat="45.23931" lon="5.87975">
        <ele>227.31</ele>
        <time>2019-04-22T12:21:27.000Z</time>
      </trkpt>
      <trkpt lat="45.23946" lon="5.87979">
        <ele>226.45</ele>
        <time>2019-04-22T12:21:32.000Z</time>
      </trkpt>
      <trkpt lat="45.23963" lon="5.87987">
        <ele>223.95</ele>
        <time>2019-04-22T12:21:37.000Z</time>
      </trkpt>
      <trkpt lat="45.23983" lon="5.88002">
        <ele>224.55</ele>
        <time>2019-04-22T12:21:42.000Z</time>
      </trkpt>
      <trkpt lat="45.23998" lon="5.88011">
        <ele>222.99</ele>
        <time>2019-04-22T12:21:47.000Z</time>
      </trkpt>
      <trkpt lat="45.24019" lon="5.88022">
        <ele>223.31</ele>
        <time>2019-04-22T12:21:52.000Z</time>
      </trkpt>
      <trkpt lat="45.24034" lon="5.88027">
        <ele>224.21</ele>
        <time>2019-04-22T12:21:57.000Z</time>
      </trkpt>
      <trkpt lat="45.24051" lon="5.88034">
        <ele>226.63</ele>
        <time>2019-04-22T12:22:02.000Z</time>
      </trkpt>
      <trkpt lat="45.24068" lon="5.88044">
        <ele>223.7</ele>
        <time>2019-04-22T12:22:07.000Z</time>
      </trkpt>
      <trkpt lat="45.24086" lon="5.88052">
        <ele>225.64</ele>
        <time>2019-04-22T12:22:12.000Z</time>
      </trkpt>
      <trkpt lat="45.24104" lon="5.88063">
        <ele>227.35</ele>
        <time>2019-04-22T12:22:17.000Z</time>
      </trkpt>
      <trkpt lat="45.24122" lon="5.88077">
        <ele>224.27</ele>
        <time>2019-04-22T12:22:22.000Z</time>
      </trkpt>
      <trkpt lat="45.2414" lon="5.88086">
        <ele>227.66</ele>
        <time>2019-04-22T12:22:27.000Z</time>
      </trkpt>
      <trkpt lat="45.24156" lon="5.88093">
        <ele>226.75</ele>
        <time>2019-04-22T12:22:32.000Z</time>
      </trkpt>
      <trkpt lat="45.24169" lon="5.881">
        <ele>226.48</ele>
        <time>2019-04-22T12:22:37.000Z</time>
      </trkpt>
      <trkpt lat="45.24184" lon="5.88109">
        <ele>225.56</ele>
        <time>2019-04-22T12:22:42.000Z</time>
      </trkpt>
      <trkpt lat="45.24201" lon="5.8812">
        <ele>222.19</ele>
        <time>2019-04-22T12:22:47.000Z</time>
      </trkpt>
      <trkpt lat="45.24217" lon="5.88128">
        <ele>223.87</ele>
        <time>2019-04-22T12:22:52.000Z</time>
      </trkpt>
      <trkpt lat="45.2423" lon="5.88135">
        <ele>220.69</ele>
        <time>2019-04-22T12:22:57.000Z</time>
      </trkpt>
      <trkpt lat="45.24243" lon="5.88143">
        <ele>219.68</ele>
        <time>2019-04-22T12:23:02.000Z</time>
      </trkpt>
      <trkpt lat="45.24258" lon="5.88152">
        <ele>219.25</ele>
        <time>2019-04-22T12:23:07.000Z</time>
      </trkpt>
      <trkpt lat="45.24274" lon="5.88161">
        <ele>217.41</ele>
        <time>2019-04-22T12:23:12.000Z</time>
      </trkpt>
      <trkpt lat="45.24289" lon="5.88162">
        <ele>221.96</ele>
        <time>2019-04-22T12:23:17.000Z</time>
      </trkpt>
      <trkpt lat="45.24307" lon="5.88165">
        <ele>222.12</ele>
        <time>2019-04-22T12:23:22.000Z</time>
      </trkpt>
      <trkpt lat="45.24326" lon="5.88167">
        <ele>221.02</ele>
        <time>2019-04-22T12:23:27.000Z</time>
      </trkpt>
      <trkpt lat="45.24345" lon="5.88173">
        <ele>221.97</ele>
        <time>2019-04-22T12:23:32.000Z</time>
      </trkpt>
      <trkpt lat="45.24363" lon="5.88182">
        <ele>224.94</ele>
        <time>2019-04-22T12:23:37.000Z</time>
      </trkpt>
      <trkpt lat="45.2438" lon="5.88191">
        <ele>225.58</ele>
        <time>2019-04-22T12:23:42.000Z</time>
      </trkpt>
      <trkpt lat="45.24395" lon="5.88199">
        <ele>225.41</ele>
        <time>2019-04-22T12:23:47.000Z</time>
      </trkpt>
      <trkpt lat="45.24413" lon="5.88208">
        <ele>225.42</ele>
        <time>2019-04-22T12:23:52.000Z</time>
      </trkpt>
      <trkpt lat="45.24431" lon="5.88218">
        <ele>224.34</ele>
        <time>2019-04-22T12:23:57.000Z</time>
      </trkpt>
      <trkpt lat="45.24447" lon="5.88224">
        <ele>225.67</ele>
        <time>2019-04-22T12:24:02.000Z</time>
      </trkpt>
      <trkpt lat="45.24466" lon="5.88227">
        <ele>227.18</ele>
        <time>2019-04-22T12:24:07.000Z</time>
      </trkpt>
      <trkpt lat="45.24481" lon="5.88231">
        <ele>224.77</ele>
        <time>2019-04-22T12:24:12.000Z</time>
      </trkpt>
      <trkpt lat="45.24492" lon="5.88238">
        <ele>226.29</ele>
        <time>2019-04-22T12:24:17.000Z</time>
      </trkpt>
      <trkpt lat="45.24508" lon="5.88247">
        <ele>226.24</ele>
        <time>2019-04-22T12:24:22.000Z</time>
      </trkpt>
      <trkpt lat="45.24524" lon="5.88256">
        <ele>225.99</ele>
        <time>2019-04-22T12:24:27.000Z</time>
      </trkpt>
      <trkpt lat="45.24538" lon="5.88261">
        <ele>225.94</ele>
        <time>2019-04-22T12:24:32.000Z</time>
      </trkpt>
      <trkpt lat="45.24553" lon="5.88267">
        <ele>226.09</ele>
        <time>2019-04-22T12:24:37.000Z</time>
      </trkpt>
      <trkpt lat="45.24567" lon="5.88274">
        <ele>226.62</ele>
        <time>2019-04-22T12:24:42.000Z</time>
      </trkpt>
      <trkpt lat="45.2458" lon="5.88286">
        <ele>224.87</ele>
        <time>2019-04-22T12:24:47.000Z</time>
      </trkpt>
      <trkpt lat="45.24597" lon="5.88297">
        <ele>223.37</ele>
        <time>2019-04-22T12:24:52.000Z</time>
      </trkpt>
      <trkpt lat="45.24614" lon="5.88305">
        <ele>221.74</ele>
        <time>2019-04-22T12:24:57.000Z</time>
      </trkpt>
      <trkpt lat="45.24629" lon="5.88312">
        <ele>222.03</ele>
        <time>2019-04-22T12:25:02.000Z</time>
      </trkpt>
      <trkpt lat="45.24645" lon="5.88321">
        <ele>219.96</ele>
        <time>2019-04-22T12:25:07.000Z</time>
      </trkpt>
      <trkpt lat="45.24659" lon="5.88329">
        <ele>221.11</ele>
        <time>2019-04-22T12:25:12.000Z</time>
      </trkpt>
      <trkpt lat="45.24675" lon="5.88341">
        <ele>220.74</ele>
        <time>2019-04-22T12:25:17.000Z</time>
      </trkpt>
      <trkpt lat="45.24691" lon="5.8835">
        <ele>219.84</ele>
        <time>2019-04-22T12:25:22.000Z</time>
      </trkpt>
      <trkpt lat="45.24706" lon="5.88358">
        <ele>220.83</ele>
        <time>2019-04-22T12:25:27.000Z</time>
      </trkpt>
      <trkpt lat="45.24718" lon="5.88363">
        <ele>221.22</ele>
        <time>2019-04-22T12:25:32.000Z</time>
      </trkpt>
      <trkpt lat="45.24729" lon="5.88367">
        <ele>220.22</ele>
        <time>2019-04-22T12:25:37.000Z</time>
      </trkpt>
      <trkpt lat="45.24739" lon="5.88372">
        <ele>220.57</ele>
        <time>2019-04-22T12:25:42.000Z</time>
      </trkpt>
      <trkpt lat="45.24751" lon="5.88376">
        <ele>220.03</ele>
        <time>2019-04-22T12:25:47.000Z</time>
      </trkpt>
      <trkpt lat="45.24763" lon="5.8838">
        <ele>221.27</ele>
        <time>2019-04-22T12:25:52.000Z</time>
      </trkpt>
      <trkpt lat="45.24776" lon="5.88385">
        <ele>218.67</ele>
        <time>2019-04-22T12:25:57.000Z</time>
      </trkpt>
      <trkpt lat="45.24788" lon="5.88386">
        <ele>216.36</ele>
        <time>2019-04-22T12:26:02.000Z</time>
      </trkpt>
      <trkpt lat="45.248" lon="5.88384">
        <ele>217.59</ele>
        <time>2019-04-22T12:26:07.000Z</time>
      </trkpt>
      <trkpt lat="45.24813" lon="5.88381">
        <ele>217.16</ele>
        <time>2019-04-22T12:26:12.000Z</time>
      </trkpt>
      <trkpt lat="45.24827" lon="5.88372">
        <ele>214.74</ele>
        <time>2019-04-22T12:26:17.000Z</time>
      </trkpt>
      <trkpt lat="45.24839" lon="5.8836">
        <ele>211.86</ele>
        <time>2019-04-22T12:26:22.000Z</time>
      </trkpt>
      <trkpt lat="45.24853" lon="5.88346">
        <ele>207.55</ele>
        <time>2019-04-22T12:26:27.000Z</time>
      </trkpt>
      <trkpt lat="45.2487" lon="5.88337">
        <ele>208.42</ele>
        <time>2019-04-22T12:26:32.000Z</time>
      </trkpt>
      <trkpt lat="45.24884" lon="5.88327">
        <ele>210.87</ele>
        <time>2019-04-22T12:26:37.000Z</time>
      </trkpt>
      <trkpt lat="45.24902" lon="5.88315">
        <ele>214.55</ele>
        <time>2019-04-22T12:26:42.000Z</time>
      </trkpt>
      <trkpt lat="45.2492" lon="5.88309">
        <ele>219.71</ele>
        <time>2019-04-22T12:26:47.000Z</time>
      </trkpt>
      <trkpt lat="45.24936" lon="5.88308">
        <ele>220.54</ele>
        <time>2019-04-22T12:26:52.000Z</time>
      </trkpt>
      <trkpt lat="45.24952" lon="5.88313">
        <ele>217.67</ele>
        <time>2019-04-22T12:26:57.000Z</time>
      </trkpt>
      <trkpt lat="45.24965" lon="5.88322">
        <ele>219.32</ele>
        <time>2019-04-22T12:27:02.000Z</time>
      </trkpt>
      <trkpt lat="45.24979" lon="5.88335">
        <ele>219.71</ele>
        <time>2019-04-22T12:27:07.000Z</time>
      </trkpt>
      <trkpt lat="45.24993" lon="5.88348">
        <ele>220.39</ele>
        <time>2019-04-22T12:27:12.000Z</time>
      </trkpt>
      <trkpt lat="45.2501" lon="5.8836">
        <ele>219.8</ele>
        <time>2019-04-22T12:27:17.000Z</time>
      </trkpt>
      <trkpt lat="45.25029" lon="5.88371">
        <ele>220.71</ele>
        <time>2019-04-22T12:27:22.000Z</time>
      </trkpt>
      <trkpt lat="45.25045" lon="5.88369">
        <ele>223.34</ele>
        <time>2019-04-22T12:27:27.000Z</time>
      </trkpt>
      <trkpt lat="45.25057" lon="5.88371">
        <ele>223.99</ele>
        <time>2019-04-22T12:27:32.000Z</time>
      </trkpt>
      <trkpt lat="45.25067" lon="5.88384">
        <ele>225.05</ele>
        <time>2019-04-22T12:27:37.000Z</time>
      </trkpt>
      <trkpt lat="45.25077" lon="5.88401">
        <ele>226.08</ele>
        <time>2019-04-22T12:27:42.000Z</time>
      </trkpt>
      <trkpt lat="45.25091" lon="5.88414">
        <ele>229.73</ele>
        <time>2019-04-22T12:27:47.000Z</time>
      </trkpt>
      <trkpt lat="45.25107" lon="5.88426">
        <ele>230.74</ele>
        <time>2019-04-22T12:27:52.000Z</time>
      </trkpt>
      <trkpt lat="45.25122" lon="5.88435">
        <ele>228.94</ele>
        <time>2019-04-22T12:27:57.000Z</time>
      </trkpt>
      <trkpt lat="45.25134" lon="5.88441">
        <ele>229.22</ele>
        <time>2019-04-22T12:28:02.000Z</time>
      </trkpt>
      <trkpt lat="45.25146" lon="5.88454">
        <ele>226.83</ele>
        <time>2019-04-22T12:28:07.000Z</time>
      </trkpt>
      <trkpt lat="45.25163" lon="5.88465">
        <ele>228.83</ele>
        <time>2019-04-22T12:28:12.000Z</time>
      </trkpt>
      <trkpt lat="45.25182" lon="5.88474">
        <ele>230.06</ele>
        <time>2019-04-22T12:28:17.000Z</time>
      </trkpt>
      <trkpt lat="45.25202" lon="5.88477">
        <ele>228.34</ele>
        <time>2019-04-22T12:28:22.000Z</time>
      </trkpt>
      <trkpt lat="45.25221" lon="5.88481">
        <ele>228.2</ele>
        <time>2019-04-22T12:28:27.000Z</time>
      </trkpt>
      <trkpt lat="45.25243" lon="5.88487">
        <ele>225.66</ele>
        <time>2019-04-22T12:28:32.000Z</time>
      </trkpt>
      <trkpt lat="45.25263" lon="5.88496">
        <ele>219.8</ele>
        <time>2019-04-22T12:28:37.000Z</time>
      </trkpt>
      <trkpt lat="45.25282" lon="5.88509">
        <ele>218.62</ele>
        <time>2019-04-22T12:28:42.000Z</time>
      </trkpt>
      <trkpt lat="45.25301" lon="5.88522">
        <ele>221.46</ele>
        <time>2019-04-22T12:28:47.000Z</time>
      </trkpt>
      <trkpt lat="45.2532" lon="5.88537">
        <ele>220.98</ele>
        <time>2019-04-22T12:28:52.000Z</time>
      </trkpt>
      <trkpt lat="45.25335" lon="5.88549">
        <ele>219.58</ele>
        <time>2019-04-22T12:28:57.000Z</time>
      </trkpt>
      <trkpt lat="45.25342" lon="5.88558">
        <ele>218.17</ele>
        <time>2019-04-22T12:29:18.000Z</time>
      </trkpt>
      <trkpt lat="45.25336" lon="5.8857">
        <ele>216.25</ele>
        <time>2019-04-22T12:30:09.000Z</time>
      </trkpt>
      <trkpt lat="45.25321" lon="5.88587">
        <ele>219.14</ele>
        <time>2019-04-22T12:30:14.000Z</time>
      </trkpt>
      <trkpt lat="45.25317" lon="5.8861">
        <ele>217.25</ele>
        <time>2019-04-22T12:30:19.000Z</time>
      </trkpt>
      <trkpt lat="45.25333" lon="5.88629">
        <ele>218.78</ele>
        <time>2019-04-22T12:30:24.000Z</time>
      </trkpt>
      <trkpt lat="45.25348" lon="5.88638">
        <ele>219.28</ele>
        <time>2019-04-22T12:30:29.000Z</time>
      </trkpt>
      <trkpt lat="45.25364" lon="5.88646">
        <ele>218.76</ele>
        <time>2019-04-22T12:30:34.000Z</time>
      </trkpt>
      <trkpt lat="45.25378" lon="5.88657">
        <ele>218.96</ele>
        <time>2019-04-22T12:30:39.000Z</time>
      </trkpt>
      <trkpt lat="45.25394" lon="5.88668">
        <ele>218.24</ele>
        <time>2019-04-22T12:30:44.000Z</time>
      </trkpt>
      <trkpt lat="45.2541" lon="5.88678">
        <ele>221.23</ele>
        <time>2019-04-22T12:30:49.000Z</time>
      </trkpt>
      <trkpt lat="45.25425" lon="5.88688">
        <ele>222.48</ele>
        <time>2019-04-22T12:30:54.000Z</time>
      </trkpt>
      <trkpt lat="45.25443" lon="5.88699">
        <ele>227.03</ele>
        <time>2019-04-22T12:30:59.000Z</time>
      </trkpt>
      <trkpt lat="45.25462" lon="5.8871">
        <ele>229.4</ele>
        <time>2019-04-22T12:31:04.000Z</time>
      </trkpt>
      <trkpt lat="45.2548" lon="5.88721">
        <ele>230.64</ele>
        <time>2019-04-22T12:31:09.000Z</time>
      </trkpt>
      <trkpt lat="45.25496" lon="5.88729">
        <ele>227.76</ele>
        <time>2019-04-22T12:31:14.000Z</time>
      </trkpt>
      <trkpt lat="45.25514" lon="5.8874">
        <ele>228.2</ele>
        <time>2019-04-22T12:31:19.000Z</time>
      </trkpt>
      <trkpt lat="45.25532" lon="5.8875">
        <ele>231.47</ele>
        <time>2019-04-22T12:31:24.000Z</time>
      </trkpt>
      <trkpt lat="45.25549" lon="5.88763">
        <ele>234.16</ele>
        <time>2019-04-22T12:31:29.000Z</time>
      </trkpt>
      <trkpt lat="45.25569" lon="5.88778">
        <ele>237.62</ele>
        <time>2019-04-22T12:31:34.000Z</time>
      </trkpt>
      <trkpt lat="45.25592" lon="5.88796">
        <ele>236.86</ele>
        <time>2019-04-22T12:31:39.000Z</time>
      </trkpt>
      <trkpt lat="45.25608" lon="5.88808">
        <ele>236.97</ele>
        <time>2019-04-22T12:31:44.000Z</time>
      </trkpt>
      <trkpt lat="45.25624" lon="5.8882">
        <ele>237.02</ele>
        <time>2019-04-22T12:31:49.000Z</time>
      </trkpt>
      <trkpt lat="45.25644" lon="5.88835">
        <ele>235.16</ele>
        <time>2019-04-22T12:31:54.000Z</time>
      </trkpt>
      <trkpt lat="45.25667" lon="5.88851">
        <ele>234.25</ele>
        <time>2019-04-22T12:31:59.000Z</time>
      </trkpt>
      <trkpt lat="45.25689" lon="5.88868">
        <ele>238.42</ele>
        <time>2019-04-22T12:32:04.000Z</time>
      </trkpt>
      <trkpt lat="45.25708" lon="5.88883">
        <ele>236.58</ele>
        <time>2019-04-22T12:32:09.000Z</time>
      </trkpt>
      <trkpt lat="45.25729" lon="5.88899">
        <ele>235.48</ele>
        <time>2019-04-22T12:32:14.000Z</time>
      </trkpt>
      <trkpt lat="45.25747" lon="5.88907">
        <ele>236.22</ele>
        <time>2019-04-22T12:32:19.000Z</time>
      </trkpt>
      <trkpt lat="45.25768" lon="5.88915">
        <ele>236.34</ele>
        <time>2019-04-22T12:32:24.000Z</time>
      </trkpt>
      <trkpt lat="45.25789" lon="5.88924">
        <ele>230.82</ele>
        <time>2019-04-22T12:32:29.000Z</time>
      </trkpt>
      <trkpt lat="45.25814" lon="5.88949">
        <ele>229.95</ele>
        <time>2019-04-22T12:32:34.000Z</time>
      </trkpt>
      <trkpt lat="45.25828" lon="5.88966">
        <ele>229.97</ele>
        <time>2019-04-22T12:32:39.000Z</time>
      </trkpt>
      <trkpt lat="45.25845" lon="5.88984">
        <ele>229.24</ele>
        <time>2019-04-22T12:32:44.000Z</time>
      </trkpt>
      <trkpt lat="45.25868" lon="5.89001">
        <ele>223.2</ele>
        <time>2019-04-22T12:32:49.000Z</time>
      </trkpt>
      <trkpt lat="45.25889" lon="5.89017">
        <ele>219.6</ele>
        <time>2019-04-22T12:32:54.000Z</time>
      </trkpt>
      <trkpt lat="45.25908" lon="5.89033">
        <ele>221.39</ele>
        <time>2019-04-22T12:32:59.000Z</time>
      </trkpt>
      <trkpt lat="45.25924" lon="5.89049">
        <ele>221.5</ele>
        <time>2019-04-22T12:33:04.000Z</time>
      </trkpt>
      <trkpt lat="45.25941" lon="5.89066">
        <ele>221.97</ele>
        <time>2019-04-22T12:33:09.000Z</time>
      </trkpt>
      <trkpt lat="45.25955" lon="5.89086">
        <ele>223.26</ele>
        <time>2019-04-22T12:33:14.000Z</time>
      </trkpt>
      <trkpt lat="45.25971" lon="5.89106">
        <ele>222.03</ele>
        <time>2019-04-22T12:33:19.000Z</time>
      </trkpt>
      <trkpt lat="45.25986" lon="5.89125">
        <ele>221.3</ele>
        <time>2019-04-22T12:33:24.000Z</time>
      </trkpt>
      <trkpt lat="45.26005" lon="5.89146">
        <ele>221.23</ele>
        <time>2019-04-22T12:33:29.000Z</time>
      </trkpt>
      <trkpt lat="45.26018" lon="5.89163">
        <ele>221.53</ele>
        <time>2019-04-22T12:33:34.000Z</time>
      </trkpt>
      <trkpt lat="45.26035" lon="5.89177">
        <ele>220.87</ele>
        <time>2019-04-22T12:33:39.000Z</time>
      </trkpt>
      <trkpt lat="45.26052" lon="5.89193">
        <ele>220.45</ele>
        <time>2019-04-22T12:33:44.000Z</time>
      </trkpt>
      <trkpt lat="45.26069" lon="5.89209">
        <ele>221.8</ele>
        <time>2019-04-22T12:33:49.000Z</time>
      </trkpt>
      <trkpt lat="45.26085" lon="5.89227">
        <ele>222.17</ele>
        <time>2019-04-22T12:33:54.000Z</time>
      </trkpt>
      <trkpt lat="45.26101" lon="5.89244">
        <ele>225.8</ele>
        <time>2019-04-22T12:33:59.000Z</time>
      </trkpt>
      <trkpt lat="45.26119" lon="5.89263">
        <ele>224.26</ele>
        <time>2019-04-22T12:34:04.000Z</time>
      </trkpt>
      <trkpt lat="45.26136" lon="5.8928">
        <ele>225.32</ele>
        <time>2019-04-22T12:34:09.000Z</time>
      </trkpt>
      <trkpt lat="45.26153" lon="5.89296">
        <ele>225.7</ele>
        <time>2019-04-22T12:34:14.000Z</time>
      </trkpt>
      <trkpt lat="45.26166" lon="5.89316">
        <ele>228.12</ele>
        <time>2019-04-22T12:34:19.000Z</time>
      </trkpt>
      <trkpt lat="45.26176" lon="5.89339">
        <ele>232.22</ele>
        <time>2019-04-22T12:34:24.000Z</time>
      </trkpt>
      <trkpt lat="45.26192" lon="5.8936">
        <ele>231.84</ele>
        <time>2019-04-22T12:34:29.000Z</time>
      </trkpt>
      <trkpt lat="45.2622" lon="5.89386">
        <ele>233.42</ele>
        <time>2019-04-22T12:34:34.000Z</time>
      </trkpt>
      <trkpt lat="45.26236" lon="5.89423">
        <ele>229.16</ele>
        <time>2019-04-22T12:34:40.000Z</time>
      </trkpt>
      <trkpt lat="45.2625" lon="5.89445">
        <ele>228.31</ele>
        <time>2019-04-22T12:34:45.000Z</time>
      </trkpt>
      <trkpt lat="45.26263" lon="5.89463">
        <ele>230.38</ele>
        <time>2019-04-22T12:34:50.000Z</time>
      </trkpt>
      <trkpt lat="45.26275" lon="5.89482">
        <ele>230.05</ele>
        <time>2019-04-22T12:34:55.000Z</time>
      </trkpt>
      <trkpt lat="45.26293" lon="5.89503">
        <ele>225.46</ele>
        <time>2019-04-22T12:35:00.000Z</time>
      </trkpt>
      <trkpt lat="45.2631" lon="5.89527">
        <ele>227.45</ele>
        <time>2019-04-22T12:35:05.000Z</time>
      </trkpt>
      <trkpt lat="45.26325" lon="5.89551">
        <ele>228.62</ele>
        <time>2019-04-22T12:35:10.000Z</time>
      </trkpt>
      <trkpt lat="45.2634" lon="5.89577">
        <ele>229</ele>
        <time>2019-04-22T12:35:15.000Z</time>
      </trkpt>
      <trkpt lat="45.26358" lon="5.89599">
        <ele>232.21</ele>
        <time>2019-04-22T12:35:20.000Z</time>
      </trkpt>
      <trkpt lat="45.26372" lon="5.89622">
        <ele>233.19</ele>
        <time>2019-04-22T12:35:25.000Z</time>
      </trkpt>
      <trkpt lat="45.26387" lon="5.89646">
        <ele>233.91</ele>
        <time>2019-04-22T12:35:30.000Z</time>
      </trkpt>
      <trkpt lat="45.26405" lon="5.89671">
        <ele>233.26</ele>
        <time>2019-04-22T12:35:35.000Z</time>
      </trkpt>
      <trkpt lat="45.26419" lon="5.89695">
        <ele>234.37</ele>
        <time>2019-04-22T12:35:40.000Z</time>
      </trkpt>
      <trkpt lat="45.26434" lon="5.8972">
        <ele>235.68</ele>
        <time>2019-04-22T12:35:45.000Z</time>
      </trkpt>
      <trkpt lat="45.26455" lon="5.89743">
        <ele>236.82</ele>
        <time>2019-04-22T12:35:50.000Z</time>
      </trkpt>
      <trkpt lat="45.26474" lon="5.89769">
        <ele>232.42</ele>
        <time>2019-04-22T12:35:55.000Z</time>
      </trkpt>
      <trkpt lat="45.26487" lon="5.89793">
        <ele>229.35</ele>
        <time>2019-04-22T12:36:00.000Z</time>
      </trkpt>
      <trkpt lat="45.26502" lon="5.89819">
        <ele>226.82</ele>
        <time>2019-04-22T12:36:05.000Z</time>
      </trkpt>
      <trkpt lat="45.26515" lon="5.89839">
        <ele>230.27</ele>
        <time>2019-04-22T12:36:10.000Z</time>
      </trkpt>
      <trkpt lat="45.26529" lon="5.89854">
        <ele>228.87</ele>
        <time>2019-04-22T12:36:15.000Z</time>
      </trkpt>
      <trkpt lat="45.26542" lon="5.89867">
        <ele>230.32</ele>
        <time>2019-04-22T12:36:20.000Z</time>
      </trkpt>
      <trkpt lat="45.26553" lon="5.89874">
        <ele>227.27</ele>
        <time>2019-04-22T12:36:25.000Z</time>
      </trkpt>
      <trkpt lat="45.26547" lon="5.89884">
        <ele>229.38</ele>
        <time>2019-04-22T12:36:30.000Z</time>
      </trkpt>
      <trkpt lat="45.26536" lon="5.89899">
        <ele>228.94</ele>
        <time>2019-04-22T12:36:35.000Z</time>
      </trkpt>
      <trkpt lat="45.26522" lon="5.89917">
        <ele>228.05</ele>
        <time>2019-04-22T12:36:40.000Z</time>
      </trkpt>
      <trkpt lat="45.26504" lon="5.8994">
        <ele>228.16</ele>
        <time>2019-04-22T12:36:45.000Z</time>
      </trkpt>
      <trkpt lat="45.26489" lon="5.89964">
        <ele>230.16</ele>
        <time>2019-04-22T12:36:50.000Z</time>
      </trkpt>
      <trkpt lat="45.26473" lon="5.89986">
        <ele>230.61</ele>
        <time>2019-04-22T12:36:55.000Z</time>
      </trkpt>
      <trkpt lat="45.26469" lon="5.90011">
        <ele>227.94</ele>
        <time>2019-04-22T12:37:00.000Z</time>
      </trkpt>
      <trkpt lat="45.26469" lon="5.90032">
        <ele>228.45</ele>
        <time>2019-04-22T12:37:05.000Z</time>
      </trkpt>
      <trkpt lat="45.26482" lon="5.90034">
        <ele>226.71</ele>
        <time>2019-04-22T12:37:10.000Z</time>
      </trkpt>
      <trkpt lat="45.26497" lon="5.90028">
        <ele>228.04</ele>
        <time>2019-04-22T12:37:15.000Z</time>
      </trkpt>
      <trkpt lat="45.26507" lon="5.90029">
        <ele>229.82</ele>
        <time>2019-04-22T12:38:42.000Z</time>
      </trkpt>
      <trkpt lat="45.26514" lon="5.90037">
        <ele>231.55</ele>
        <time>2019-04-22T12:39:20.000Z</time>
      </trkpt>
      <trkpt lat="45.26526" lon="5.9006">
        <ele>234.57</ele>
        <time>2019-04-22T12:39:25.000Z</time>
      </trkpt>
      <trkpt lat="45.26538" lon="5.90084">
        <ele>230.11</ele>
        <time>2019-04-22T12:39:30.000Z</time>
      </trkpt>
      <trkpt lat="45.2655" lon="5.90106">
        <ele>232.72</ele>
        <time>2019-04-22T12:39:35.000Z</time>
      </trkpt>
      <trkpt lat="45.26564" lon="5.90131">
        <ele>231.16</ele>
        <time>2019-04-22T12:39:40.000Z</time>
      </trkpt>
      <trkpt lat="45.26577" lon="5.90154">
        <ele>231.33</ele>
        <time>2019-04-22T12:39:45.000Z</time>
      </trkpt>
      <trkpt lat="45.26589" lon="5.90181">
        <ele>232.74</ele>
        <time>2019-04-22T12:39:50.000Z</time>
      </trkpt>
      <trkpt lat="45.26602" lon="5.90207">
        <ele>231.86</ele>
        <time>2019-04-22T12:39:55.000Z</time>
      </trkpt>
      <trkpt lat="45.26616" lon="5.90231">
        <ele>228.85</ele>
        <time>2019-04-22T12:40:00.000Z</time>
      </trkpt>
      <trkpt lat="45.26631" lon="5.90258">
        <ele>228.3</ele>
        <time>2019-04-22T12:40:05.000Z</time>
      </trkpt>
      <trkpt lat="45.26643" lon="5.90284">
        <ele>228.48</ele>
        <time>2019-04-22T12:40:10.000Z</time>
      </trkpt>
      <trkpt lat="45.26653" lon="5.90306">
        <ele>228</ele>
        <time>2019-04-22T12:40:15.000Z</time>
      </trkpt>
      <trkpt lat="45.26663" lon="5.90334">
        <ele>232.01</ele>
        <time>2019-04-22T12:40:20.000Z</time>
      </trkpt>
      <trkpt lat="45.26669" lon="5.90361">
        <ele>235.26</ele>
        <time>2019-04-22T12:40:25.000Z</time>
      </trkpt>
      <trkpt lat="45.26676" lon="5.90388">
        <ele>232.3</ele>
        <time>2019-04-22T12:40:30.000Z</time>
      </trkpt>
      <trkpt lat="45.26691" lon="5.90421">
        <ele>232.26</ele>
        <time>2019-04-22T12:40:35.000Z</time>
      </trkpt>
      <trkpt lat="45.26701" lon="5.90456">
        <ele>231.24</ele>
        <time>2019-04-22T12:40:40.000Z</time>
      </trkpt>
      <trkpt lat="45.26706" lon="5.90489">
        <ele>231.31</ele>
        <time>2019-04-22T12:40:45.000Z</time>
      </trkpt>
      <trkpt lat="45.26705" lon="5.90523">
        <ele>230.68</ele>
        <time>2019-04-22T12:40:50.000Z</time>
      </trkpt>
      <trkpt lat="45.26703" lon="5.90556">
        <ele>228.86</ele>
        <time>2019-04-22T12:40:55.000Z</time>
      </trkpt>
      <trkpt lat="45.26702" lon="5.90593">
        <ele>230.77</ele>
        <time>2019-04-22T12:41:00.000Z</time>
      </trkpt>
      <trkpt lat="45.26694" lon="5.9063">
        <ele>231.1</ele>
        <time>2019-04-22T12:41:05.000Z</time>
      </trkpt>
      <trkpt lat="45.26686" lon="5.90666">
        <ele>229.78</ele>
        <time>2019-04-22T12:41:10.000Z</time>
      </trkpt>
      <trkpt lat="45.26687" lon="5.90699">
        <ele>231.9</ele>
        <time>2019-04-22T12:41:15.000Z</time>
      </trkpt>
      <trkpt lat="45.26687" lon="5.90735">
        <ele>233.01</ele>
        <time>2019-04-22T12:41:20.000Z</time>
      </trkpt>
      <trkpt lat="45.26689" lon="5.90771">
        <ele>231.73</ele>
        <time>2019-04-22T12:41:25.000Z</time>
      </trkpt>
      <trkpt lat="45.26692" lon="5.90803">
        <ele>228.74</ele>
        <time>2019-04-22T12:41:30.000Z</time>
      </trkpt>
      <trkpt lat="45.26699" lon="5.90835">
        <ele>227.72</ele>
        <time>2019-04-22T12:41:35.000Z</time>
      </trkpt>
      <trkpt lat="45.26707" lon="5.90867">
        <ele>227.92</ele>
        <time>2019-04-22T12:41:40.000Z</time>
      </trkpt>
      <trkpt lat="45.26715" lon="5.90899">
        <ele>230.9</ele>
        <time>2019-04-22T12:41:45.000Z</time>
      </trkpt>
      <trkpt lat="45.26723" lon="5.90926">
        <ele>232.35</ele>
        <time>2019-04-22T12:41:50.000Z</time>
      </trkpt>
      <trkpt lat="45.26734" lon="5.90958">
        <ele>230.56</ele>
        <time>2019-04-22T12:41:55.000Z</time>
      </trkpt>
      <trkpt lat="45.26748" lon="5.9099">
        <ele>229.87</ele>
        <time>2019-04-22T12:42:00.000Z</time>
      </trkpt>
      <trkpt lat="45.26764" lon="5.91019">
        <ele>233.22</ele>
        <time>2019-04-22T12:42:05.000Z</time>
      </trkpt>
      <trkpt lat="45.2678" lon="5.91047">
        <ele>232.63</ele>
        <time>2019-04-22T12:42:10.000Z</time>
      </trkpt>
      <trkpt lat="45.26799" lon="5.91073">
        <ele>231.84</ele>
        <time>2019-04-22T12:42:15.000Z</time>
      </trkpt>
      <trkpt lat="45.26816" lon="5.91097">
        <ele>228.4</ele>
        <time>2019-04-22T12:42:20.000Z</time>
      </trkpt>
      <trkpt lat="45.26834" lon="5.91118">
        <ele>233.28</ele>
        <time>2019-04-22T12:42:25.000Z</time>
      </trkpt>
      <trkpt lat="45.26855" lon="5.91138">
        <ele>232.6</ele>
        <time>2019-04-22T12:42:30.000Z</time>
      </trkpt>
      <trkpt lat="45.26876" lon="5.91159">
        <ele>234.1</ele>
        <time>2019-04-22T12:42:35.000Z</time>
      </trkpt>
      <trkpt lat="45.26899" lon="5.91173">
        <ele>232.98</ele>
        <time>2019-04-22T12:42:40.000Z</time>
      </trkpt>
      <trkpt lat="45.26921" lon="5.91181">
        <ele>236.79</ele>
        <time>2019-04-22T12:42:45.000Z</time>
      </trkpt>
      <trkpt lat="45.2694" lon="5.91193">
        <ele>236.06</ele>
        <time>2019-04-22T12:42:50.000Z</time>
      </trkpt>
      <trkpt lat="45.2696" lon="5.91212">
        <ele>241.09</ele>
        <time>2019-04-22T12:42:55.000Z</time>
      </trkpt>
      <trkpt lat="45.26981" lon="5.91222">
        <ele>239.77</ele>
        <time>2019-04-22T12:43:00.000Z</time>
      </trkpt>
      <trkpt lat="45.27005" lon="5.91227">
        <ele>239.42</ele>
        <time>2019-04-22T12:43:05.000Z</time>
      </trkpt>
      <trkpt lat="45.27031" lon="5.91233">
        <ele>236.76</ele>
        <time>2019-04-22T12:43:10.000Z</time>
      </trkpt>
      <trkpt lat="45.27055" lon="5.91244">
        <ele>237.06</ele>
        <time>2019-04-22T12:43:15.000Z</time>
      </trkpt>
      <trkpt lat="45.27073" lon="5.91267">
        <ele>238.65</ele>
        <time>2019-04-22T12:43:20.000Z</time>
      </trkpt>
      <trkpt lat="45.27091" lon="5.91293">
        <ele>236.06</ele>
        <time>2019-04-22T12:43:25.000Z</time>
      </trkpt>
      <trkpt lat="45.27111" lon="5.91317">
        <ele>237.56</ele>
        <time>2019-04-22T12:43:30.000Z</time>
      </trkpt>
      <trkpt lat="45.27126" lon="5.91338">
        <ele>236.92</ele>
        <time>2019-04-22T12:43:35.000Z</time>
      </trkpt>
      <trkpt lat="45.27146" lon="5.91364">
        <ele>235.53</ele>
        <time>2019-04-22T12:43:40.000Z</time>
      </trkpt>
      <trkpt lat="45.27162" lon="5.91387">
        <ele>234.25</ele>
        <time>2019-04-22T12:43:45.000Z</time>
      </trkpt>
      <trkpt lat="45.27183" lon="5.91406">
        <ele>234.98</ele>
        <time>2019-04-22T12:43:50.000Z</time>
      </trkpt>
      <trkpt lat="45.27203" lon="5.91385">
        <ele>236.6</ele>
        <time>2019-04-22T12:43:55.000Z</time>
      </trkpt>
      <trkpt lat="45.2722" lon="5.91367">
        <ele>236.84</ele>
        <time>2019-04-22T12:44:00.000Z</time>
      </trkpt>
      <trkpt lat="45.27244" lon="5.91373">
        <ele>238.66</ele>
        <time>2019-04-22T12:44:05.000Z</time>
      </trkpt>
      <trkpt lat="45.27265" lon="5.91388">
        <ele>238.65</ele>
        <time>2019-04-22T12:44:10.000Z</time>
      </trkpt>
      <trkpt lat="45.27282" lon="5.91405">
        <ele>236.19</ele>
        <time>2019-04-22T12:44:15.000Z</time>
      </trkpt>
      <trkpt lat="45.27304" lon="5.91421">
        <ele>237.03</ele>
        <time>2019-04-22T12:44:20.000Z</time>
      </trkpt>
      <trkpt lat="45.27328" lon="5.9143">
        <ele>236.5</ele>
        <time>2019-04-22T12:44:25.000Z</time>
      </trkpt>
      <trkpt lat="45.27348" lon="5.91443">
        <ele>235.57</ele>
        <time>2019-04-22T12:44:30.000Z</time>
      </trkpt>
      <trkpt lat="45.27369" lon="5.91455">
        <ele>234.72</ele>
        <time>2019-04-22T12:44:35.000Z</time>
      </trkpt>
      <trkpt lat="45.27393" lon="5.91468">
        <ele>236.39</ele>
        <time>2019-04-22T12:44:40.000Z</time>
      </trkpt>
      <trkpt lat="45.27418" lon="5.91482">
        <ele>233.68</ele>
        <time>2019-04-22T12:44:45.000Z</time>
      </trkpt>
      <trkpt lat="45.2744" lon="5.91493">
        <ele>231.21</ele>
        <time>2019-04-22T12:44:50.000Z</time>
      </trkpt>
      <trkpt lat="45.27465" lon="5.91505">
        <ele>232.77</ele>
        <time>2019-04-22T12:44:55.000Z</time>
      </trkpt>
      <trkpt lat="45.27491" lon="5.91517">
        <ele>233.1</ele>
        <time>2019-04-22T12:45:00.000Z</time>
      </trkpt>
      <trkpt lat="45.27512" lon="5.91528">
        <ele>232</ele>
        <time>2019-04-22T12:45:05.000Z</time>
      </trkpt>
      <trkpt lat="45.27541" lon="5.91544">
        <ele>231.74</ele>
        <time>2019-04-22T12:45:10.000Z</time>
      </trkpt>
      <trkpt lat="45.27565" lon="5.91557">
        <ele>230.41</ele>
        <time>2019-04-22T12:45:15.000Z</time>
      </trkpt>
      <trkpt lat="45.27591" lon="5.9157">
        <ele>234.05</ele>
        <time>2019-04-22T12:45:20.000Z</time>
      </trkpt>
      <trkpt lat="45.27617" lon="5.91585">
        <ele>237</ele>
        <time>2019-04-22T12:45:25.000Z</time>
      </trkpt>
      <trkpt lat="45.2764" lon="5.91598">
        <ele>240.52</ele>
        <time>2019-04-22T12:45:30.000Z</time>
      </trkpt>
      <trkpt lat="45.27659" lon="5.91616">
        <ele>238.18</ele>
        <time>2019-04-22T12:45:35.000Z</time>
      </trkpt>
      <trkpt lat="45.27673" lon="5.91634">
        <ele>235.59</ele>
        <time>2019-04-22T12:45:40.000Z</time>
      </trkpt>
      <trkpt lat="45.27692" lon="5.91656">
        <ele>234.72</ele>
        <time>2019-04-22T12:45:45.000Z</time>
      </trkpt>
      <trkpt lat="45.27712" lon="5.91679">
        <ele>234.94</ele>
        <time>2019-04-22T12:45:50.000Z</time>
      </trkpt>
      <trkpt lat="45.2773" lon="5.91702">
        <ele>235.58</ele>
        <time>2019-04-22T12:45:55.000Z</time>
      </trkpt>
      <trkpt lat="45.27744" lon="5.91721">
        <ele>235.27</ele>
        <time>2019-04-22T12:46:00.000Z</time>
      </trkpt>
      <trkpt lat="45.27758" lon="5.91746">
        <ele>235.07</ele>
        <time>2019-04-22T12:46:05.000Z</time>
      </trkpt>
      <trkpt lat="45.27758" lon="5.91779">
        <ele>235.16</ele>
        <time>2019-04-22T12:46:10.000Z</time>
      </trkpt>
      <trkpt lat="45.27752" lon="5.91812">
        <ele>235.47</ele>
        <time>2019-04-22T12:46:15.000Z</time>
      </trkpt>
      <trkpt lat="45.27738" lon="5.91838">
        <ele>237.14</ele>
        <time>2019-04-22T12:46:20.000Z</time>
      </trkpt>
      <trkpt lat="45.27723" lon="5.91841">
        <ele>236.82</ele>
        <time>2019-04-22T12:46:25.000Z</time>
      </trkpt>
      <trkpt lat="45.27711" lon="5.91842">
        <ele>235.93</ele>
        <time>2019-04-22T12:46:30.000Z</time>
      </trkpt>
      <trkpt lat="45.27707" lon="5.91857">
        <ele>236.78</ele>
        <time>2019-04-22T12:46:35.000Z</time>
      </trkpt>
      <trkpt lat="45.27718" lon="5.91874">
        <ele>236.45</ele>
        <time>2019-04-22T12:46:40.000Z</time>
      </trkpt>
      <trkpt lat="45.27729" lon="5.91884">
        <ele>239.25</ele>
        <time>2019-04-22T12:46:45.000Z</time>
      </trkpt>
      <trkpt lat="45.27738" lon="5.91893">
        <ele>238.35</ele>
        <time>2019-04-22T12:46:50.000Z</time>
      </trkpt>
      <trkpt lat="45.27747" lon="5.91893">
        <ele>231.08</ele>
        <time>2019-04-22T12:47:03.000Z</time>
      </trkpt>
      <trkpt lat="45.27759" lon="5.91899">
        <ele>232.06</ele>
        <time>2019-04-22T12:47:08.000Z</time>
      </trkpt>
      <trkpt lat="45.27772" lon="5.91909">
        <ele>235.19</ele>
        <time>2019-04-22T12:47:13.000Z</time>
      </trkpt>
      <trkpt lat="45.27786" lon="5.91921">
        <ele>238.43</ele>
        <time>2019-04-22T12:47:18.000Z</time>
      </trkpt>
      <trkpt lat="45.27803" lon="5.91932">
        <ele>237.41</ele>
        <time>2019-04-22T12:47:23.000Z</time>
      </trkpt>
      <trkpt lat="45.2782" lon="5.91945">
        <ele>238.55</ele>
        <time>2019-04-22T12:47:28.000Z</time>
      </trkpt>
      <trkpt lat="45.27838" lon="5.91958">
        <ele>238.72</ele>
        <time>2019-04-22T12:47:33.000Z</time>
      </trkpt>
      <trkpt lat="45.27859" lon="5.91973">
        <ele>236.67</ele>
        <time>2019-04-22T12:47:38.000Z</time>
      </trkpt>
      <trkpt lat="45.27877" lon="5.91985">
        <ele>238.47</ele>
        <time>2019-04-22T12:47:43.000Z</time>
      </trkpt>
      <trkpt lat="45.27901" lon="5.91998">
        <ele>235.61</ele>
        <time>2019-04-22T12:47:48.000Z</time>
      </trkpt>
      <trkpt lat="45.27925" lon="5.92008">
        <ele>233.89</ele>
        <time>2019-04-22T12:47:53.000Z</time>
      </trkpt>
      <trkpt lat="45.2795" lon="5.92008">
        <ele>234.12</ele>
        <time>2019-04-22T12:47:58.000Z</time>
      </trkpt>
      <trkpt lat="45.27975" lon="5.92005">
        <ele>232.27</ele>
        <time>2019-04-22T12:48:03.000Z</time>
      </trkpt>
      <trkpt lat="45.27991" lon="5.92009">
        <ele>236.28</ele>
        <time>2019-04-22T12:48:08.000Z</time>
      </trkpt>
      <trkpt lat="45.28002" lon="5.92006">
        <ele>232.37</ele>
        <time>2019-04-22T12:48:16.000Z</time>
      </trkpt>
      <trkpt lat="45.28017" lon="5.92006">
        <ele>232.3</ele>
        <time>2019-04-22T12:48:21.000Z</time>
      </trkpt>
      <trkpt lat="45.2803" lon="5.92006">
        <ele>232.44</ele>
        <time>2019-04-22T12:48:26.000Z</time>
      </trkpt>
      <trkpt lat="45.2804" lon="5.92016">
        <ele>231.59</ele>
        <time>2019-04-22T12:48:31.000Z</time>
      </trkpt>
      <trkpt lat="45.28049" lon="5.92029">
        <ele>231.54</ele>
        <time>2019-04-22T12:48:36.000Z</time>
      </trkpt>
      <trkpt lat="45.28062" lon="5.92046">
        <ele>234.59</ele>
        <time>2019-04-22T12:48:41.000Z</time>
      </trkpt>
      <trkpt lat="45.28076" lon="5.92065">
        <ele>233.69</ele>
        <time>2019-04-22T12:48:46.000Z</time>
      </trkpt>
      <trkpt lat="45.28094" lon="5.92082">
        <ele>238.12</ele>
        <time>2019-04-22T12:48:51.000Z</time>
      </trkpt>
      <trkpt lat="45.28123" lon="5.92084">
        <ele>240.9</ele>
        <time>2019-04-22T12:48:56.000Z</time>
      </trkpt>
      <trkpt lat="45.28147" lon="5.9208">
        <ele>241.84</ele>
        <time>2019-04-22T12:49:01.000Z</time>
      </trkpt>
      <trkpt lat="45.2817" lon="5.92072">
        <ele>242.3</ele>
        <time>2019-04-22T12:49:06.000Z</time>
      </trkpt>
      <trkpt lat="45.28201" lon="5.9207">
        <ele>243.99</ele>
        <time>2019-04-22T12:49:11.000Z</time>
      </trkpt>
      <trkpt lat="45.28238" lon="5.92073">
        <ele>249.13</ele>
        <time>2019-04-22T12:49:16.000Z</time>
      </trkpt>
      <trkpt lat="45.28269" lon="5.92077">
        <ele>251.62</ele>
        <time>2019-04-22T12:49:21.000Z</time>
      </trkpt>
      <trkpt lat="45.28296" lon="5.92077">
        <ele>247.97</ele>
        <time>2019-04-22T12:49:26.000Z</time>
      </trkpt>
      <trkpt lat="45.2832" lon="5.92092">
        <ele>242.92</ele>
        <time>2019-04-22T12:49:31.000Z</time>
      </trkpt>
      <trkpt lat="45.28336" lon="5.92108">
        <ele>241.23</ele>
        <time>2019-04-22T12:49:36.000Z</time>
      </trkpt>
      <trkpt lat="45.28355" lon="5.92122">
        <ele>243.32</ele>
        <time>2019-04-22T12:49:41.000Z</time>
      </trkpt>
      <trkpt lat="45.28374" lon="5.92136">
        <ele>244.02</ele>
        <time>2019-04-22T12:49:46.000Z</time>
      </trkpt>
      <trkpt lat="45.28394" lon="5.92156">
        <ele>240.88</ele>
        <time>2019-04-22T12:49:51.000Z</time>
      </trkpt>
      <trkpt lat="45.28403" lon="5.92146">
        <ele>235.61</ele>
        <time>2019-04-22T12:50:01.000Z</time>
      </trkpt>
      <trkpt lat="45.28412" lon="5.92121">
        <ele>234.8</ele>
        <time>2019-04-22T12:50:06.000Z</time>
      </trkpt>
      <trkpt lat="45.28416" lon="5.92101">
        <ele>236.35</ele>
        <time>2019-04-22T12:50:11.000Z</time>
      </trkpt>
      <trkpt lat="45.28422" lon="5.92086">
        <ele>235.96</ele>
        <time>2019-04-22T12:50:16.000Z</time>
      </trkpt>
      <trkpt lat="45.2843" lon="5.92072">
        <ele>233.09</ele>
        <time>2019-04-22T12:50:21.000Z</time>
      </trkpt>
      <trkpt lat="45.28441" lon="5.92072">
        <ele>232.87</ele>
        <time>2019-04-22T12:50:26.000Z</time>
      </trkpt>
      <trkpt lat="45.28454" lon="5.92077">
        <ele>233.11</ele>
        <time>2019-04-22T12:50:31.000Z</time>
      </trkpt>
      <trkpt lat="45.28472" lon="5.92081">
        <ele>236.61</ele>
        <time>2019-04-22T12:50:36.000Z</time>
      </trkpt>
      <trkpt lat="45.28492" lon="5.92086">
        <ele>236.3</ele>
        <time>2019-04-22T12:50:41.000Z</time>
      </trkpt>
      <trkpt lat="45.28511" lon="5.9209">
        <ele>234.28</ele>
        <time>2019-04-22T12:50:46.000Z</time>
      </trkpt>
      <trkpt lat="45.2853" lon="5.92095">
        <ele>236.47</ele>
        <time>2019-04-22T12:50:51.000Z</time>
      </trkpt>
      <trkpt lat="45.28549" lon="5.92099">
        <ele>238.43</ele>
        <time>2019-04-22T12:50:56.000Z</time>
      </trkpt>
      <trkpt lat="45.28569" lon="5.92107">
        <ele>240.57</ele>
        <time>2019-04-22T12:51:01.000Z</time>
      </trkpt>
      <trkpt lat="45.28591" lon="5.92113">
        <ele>238.96</ele>
        <time>2019-04-22T12:51:06.000Z</time>
      </trkpt>
      <trkpt lat="45.28603" lon="5.92116">
        <ele>242.2</ele>
        <time>2019-04-22T12:51:11.000Z</time>
      </trkpt>
      <trkpt lat="45.28618" lon="5.92121">
        <ele>243.6</ele>
        <time>2019-04-22T12:51:16.000Z</time>
      </trkpt>
      <trkpt lat="45.28637" lon="5.92124">
        <ele>245.18</ele>
        <time>2019-04-22T12:51:21.000Z</time>
      </trkpt>
      <trkpt lat="45.28657" lon="5.92129">
        <ele>239.45</ele>
        <time>2019-04-22T12:51:26.000Z</time>
      </trkpt>
      <trkpt lat="45.28678" lon="5.92133">
        <ele>240.34</ele>
        <time>2019-04-22T12:51:31.000Z</time>
      </trkpt>
      <trkpt lat="45.28698" lon="5.92138">
        <ele>237.88</ele>
        <time>2019-04-22T12:51:36.000Z</time>
      </trkpt>
      <trkpt lat="45.28719" lon="5.92143">
        <ele>236.06</ele>
        <time>2019-04-22T12:51:41.000Z</time>
      </trkpt>
      <trkpt lat="45.28738" lon="5.9215">
        <ele>236.74</ele>
        <time>2019-04-22T12:51:46.000Z</time>
      </trkpt>
      <trkpt lat="45.28757" lon="5.92159">
        <ele>240.65</ele>
        <time>2019-04-22T12:51:51.000Z</time>
      </trkpt>
      <trkpt lat="45.28777" lon="5.92168">
        <ele>239.5</ele>
        <time>2019-04-22T12:51:56.000Z</time>
      </trkpt>
      <trkpt lat="45.28798" lon="5.9218">
        <ele>239.47</ele>
        <time>2019-04-22T12:52:01.000Z</time>
      </trkpt>
      <trkpt lat="45.28817" lon="5.92191">
        <ele>238.94</ele>
        <time>2019-04-22T12:52:06.000Z</time>
      </trkpt>
      <trkpt lat="45.28835" lon="5.92206">
        <ele>240.64</ele>
        <time>2019-04-22T12:52:11.000Z</time>
      </trkpt>
      <trkpt lat="45.28852" lon="5.9222">
        <ele>235.75</ele>
        <time>2019-04-22T12:52:16.000Z</time>
      </trkpt>
      <trkpt lat="45.28868" lon="5.92234">
        <ele>233.72</ele>
        <time>2019-04-22T12:52:21.000Z</time>
      </trkpt>
      <trkpt lat="45.28881" lon="5.92249">
        <ele>235.27</ele>
        <time>2019-04-22T12:52:26.000Z</time>
      </trkpt>
      <trkpt lat="45.28897" lon="5.9227">
        <ele>236.5</ele>
        <time>2019-04-22T12:52:31.000Z</time>
      </trkpt>
      <trkpt lat="45.28913" lon="5.92295">
        <ele>237.83</ele>
        <time>2019-04-22T12:52:36.000Z</time>
      </trkpt>
      <trkpt lat="45.28929" lon="5.92321">
        <ele>233.08</ele>
        <time>2019-04-22T12:52:41.000Z</time>
      </trkpt>
      <trkpt lat="45.28944" lon="5.92345">
        <ele>231.67</ele>
        <time>2019-04-22T12:52:46.000Z</time>
      </trkpt>
      <trkpt lat="45.28959" lon="5.92369">
        <ele>232.27</ele>
        <time>2019-04-22T12:52:51.000Z</time>
      </trkpt>
      <trkpt lat="45.28972" lon="5.92392">
        <ele>234.16</ele>
        <time>2019-04-22T12:52:56.000Z</time>
      </trkpt>
      <trkpt lat="45.28983" lon="5.92414">
        <ele>234.22</ele>
        <time>2019-04-22T12:53:01.000Z</time>
      </trkpt>
      <trkpt lat="45.28995" lon="5.92439">
        <ele>234.86</ele>
        <time>2019-04-22T12:53:06.000Z</time>
      </trkpt>
      <trkpt lat="45.2901" lon="5.92461">
        <ele>241.17</ele>
        <time>2019-04-22T12:53:11.000Z</time>
      </trkpt>
      <trkpt lat="45.29023" lon="5.92484">
        <ele>246.49</ele>
        <time>2019-04-22T12:53:16.000Z</time>
      </trkpt>
      <trkpt lat="45.29037" lon="5.92508">
        <ele>245.27</ele>
        <time>2019-04-22T12:53:21.000Z</time>
      </trkpt>
      <trkpt lat="45.29049" lon="5.92533">
        <ele>243.67</ele>
        <time>2019-04-22T12:53:26.000Z</time>
      </trkpt>
      <trkpt lat="45.2906" lon="5.92558">
        <ele>243.66</ele>
        <time>2019-04-22T12:53:31.000Z</time>
      </trkpt>
      <trkpt lat="45.29071" lon="5.92585">
        <ele>241.65</ele>
        <time>2019-04-22T12:53:36.000Z</time>
      </trkpt>
      <trkpt lat="45.29088" lon="5.9261">
        <ele>238.58</ele>
        <time>2019-04-22T12:53:41.000Z</time>
      </trkpt>
      <trkpt lat="45.29102" lon="5.92639">
        <ele>242.71</ele>
        <time>2019-04-22T12:53:46.000Z</time>
      </trkpt>
      <trkpt lat="45.29118" lon="5.92662">
        <ele>241.22</ele>
        <time>2019-04-22T12:53:51.000Z</time>
      </trkpt>
      <trkpt lat="45.29129" lon="5.92683">
        <ele>238.89</ele>
        <time>2019-04-22T12:53:56.000Z</time>
      </trkpt>
      <trkpt lat="45.29134" lon="5.92696">
        <ele>236.94</ele>
        <time>2019-04-22T12:54:01.000Z</time>
      </trkpt>
      <trkpt lat="45.29145" lon="5.92697">
        <ele>234.72</ele>
        <time>2019-04-22T12:54:07.000Z</time>
      </trkpt>
      <trkpt lat="45.29159" lon="5.92683">
        <ele>236.14</ele>
        <time>2019-04-22T12:54:12.000Z</time>
      </trkpt>
      <trkpt lat="45.29169" lon="5.92675">
        <ele>237.15</ele>
        <time>2019-04-22T12:54:17.000Z</time>
      </trkpt>
      <trkpt lat="45.29175" lon="5.92665">
        <ele>241.29</ele>
        <time>2019-04-22T12:54:37.000Z</time>
      </trkpt>
      <trkpt lat="45.29184" lon="5.92657">
        <ele>241.01</ele>
        <time>2019-04-22T12:54:45.000Z</time>
      </trkpt>
      <trkpt lat="45.29192" lon="5.92663">
        <ele>240.65</ele>
        <time>2019-04-22T12:54:54.000Z</time>
      </trkpt>
      <trkpt lat="45.29195" lon="5.92677">
        <ele>236.92</ele>
        <time>2019-04-22T12:57:53.000Z</time>
      </trkpt>
      <trkpt lat="45.29208" lon="5.927">
        <ele>233.12</ele>
        <time>2019-04-22T12:57:58.000Z</time>
      </trkpt>
      <trkpt lat="45.29222" lon="5.92723">
        <ele>233.92</ele>
        <time>2019-04-22T12:58:03.000Z</time>
      </trkpt>
      <trkpt lat="45.29236" lon="5.92746">
        <ele>238.52</ele>
        <time>2019-04-22T12:58:08.000Z</time>
      </trkpt>
      <trkpt lat="45.29248" lon="5.92766">
        <ele>238.4</ele>
        <time>2019-04-22T12:58:13.000Z</time>
      </trkpt>
      <trkpt lat="45.29261" lon="5.92789">
        <ele>237.18</ele>
        <time>2019-04-22T12:58:18.000Z</time>
      </trkpt>
      <trkpt lat="45.29274" lon="5.92814">
        <ele>239.26</ele>
        <time>2019-04-22T12:58:23.000Z</time>
      </trkpt>
      <trkpt lat="45.29294" lon="5.92837">
        <ele>234.93</ele>
        <time>2019-04-22T12:58:28.000Z</time>
      </trkpt>
      <trkpt lat="45.29315" lon="5.92856">
        <ele>237.03</ele>
        <time>2019-04-22T12:58:33.000Z</time>
      </trkpt>
      <trkpt lat="45.29335" lon="5.9287">
        <ele>234.83</ele>
        <time>2019-04-22T12:58:38.000Z</time>
      </trkpt>
      <trkpt lat="45.29355" lon="5.92882">
        <ele>235.67</ele>
        <time>2019-04-22T12:58:43.000Z</time>
      </trkpt>
      <trkpt lat="45.2938" lon="5.92895">
        <ele>232.04</ele>
        <time>2019-04-22T12:58:48.000Z</time>
      </trkpt>
      <trkpt lat="45.29401" lon="5.92906">
        <ele>231.68</ele>
        <time>2019-04-22T12:58:53.000Z</time>
      </trkpt>
      <trkpt lat="45.29426" lon="5.92913">
        <ele>234.83</ele>
        <time>2019-04-22T12:58:58.000Z</time>
      </trkpt>
      <trkpt lat="45.2945" lon="5.92919">
        <ele>234.41</ele>
        <time>2019-04-22T12:59:03.000Z</time>
      </trkpt>
      <trkpt lat="45.29473" lon="5.92922">
        <ele>234.24</ele>
        <time>2019-04-22T12:59:08.000Z</time>
      </trkpt>
      <trkpt lat="45.29495" lon="5.92929">
        <ele>232.48</ele>
        <time>2019-04-22T12:59:13.000Z</time>
      </trkpt>
      <trkpt lat="45.29521" lon="5.92934">
        <ele>234.4</ele>
        <time>2019-04-22T12:59:18.000Z</time>
      </trkpt>
      <trkpt lat="45.29544" lon="5.9294">
        <ele>237.73</ele>
        <time>2019-04-22T12:59:23.000Z</time>
      </trkpt>
      <trkpt lat="45.29568" lon="5.92946">
        <ele>238.07</ele>
        <time>2019-04-22T12:59:28.000Z</time>
      </trkpt>
      <trkpt lat="45.29588" lon="5.92952">
        <ele>235.53</ele>
        <time>2019-04-22T12:59:33.000Z</time>
      </trkpt>
      <trkpt lat="45.29611" lon="5.9296">
        <ele>237.38</ele>
        <time>2019-04-22T12:59:38.000Z</time>
      </trkpt>
      <trkpt lat="45.29635" lon="5.92969">
        <ele>236.17</ele>
        <time>2019-04-22T12:59:43.000Z</time>
      </trkpt>
      <trkpt lat="45.29658" lon="5.92978">
        <ele>237.37</ele>
        <time>2019-04-22T12:59:48.000Z</time>
      </trkpt>
      <trkpt lat="45.29677" lon="5.92988">
        <ele>238.77</ele>
        <time>2019-04-22T12:59:53.000Z</time>
      </trkpt>
      <trkpt lat="45.297" lon="5.92997">
        <ele>242.93</ele>
        <time>2019-04-22T12:59:58.000Z</time>
      </trkpt>
      <trkpt lat="45.29722" lon="5.93013">
        <ele>239.18</ele>
        <time>2019-04-22T13:00:03.000Z</time>
      </trkpt>
      <trkpt lat="45.29746" lon="5.93029">
        <ele>235.45</ele>
        <time>2019-04-22T13:00:08.000Z</time>
      </trkpt>
      <trkpt lat="45.29767" lon="5.93036">
        <ele>236.68</ele>
        <time>2019-04-22T13:00:13.000Z</time>
      </trkpt>
      <trkpt lat="45.29791" lon="5.93047">
        <ele>238.03</ele>
        <time>2019-04-22T13:00:18.000Z</time>
      </trkpt>
      <trkpt lat="45.29815" lon="5.93059">
        <ele>237.42</ele>
        <time>2019-04-22T13:00:23.000Z</time>
      </trkpt>
      <trkpt lat="45.29836" lon="5.93068">
        <ele>240.31</ele>
        <time>2019-04-22T13:00:28.000Z</time>
      </trkpt>
      <trkpt lat="45.29855" lon="5.93081">
        <ele>244.15</ele>
        <time>2019-04-22T13:00:33.000Z</time>
      </trkpt>
      <trkpt lat="45.29878" lon="5.93091">
        <ele>241.57</ele>
        <time>2019-04-22T13:00:38.000Z</time>
      </trkpt>
      <trkpt lat="45.29898" lon="5.931">
        <ele>246.09</ele>
        <time>2019-04-22T13:00:43.000Z</time>
      </trkpt>
      <trkpt lat="45.29918" lon="5.9311">
        <ele>245.86</ele>
        <time>2019-04-22T13:00:48.000Z</time>
      </trkpt>
      <trkpt lat="45.29937" lon="5.9312">
        <ele>244.18</ele>
        <time>2019-04-22T13:00:53.000Z</time>
      </trkpt>
      <trkpt lat="45.29957" lon="5.93129">
        <ele>247.39</ele>
        <time>2019-04-22T13:00:58.000Z</time>
      </trkpt>
      <trkpt lat="45.29981" lon="5.93144">
        <ele>246.83</ele>
        <time>2019-04-22T13:01:03.000Z</time>
      </trkpt>
      <trkpt lat="45.29998" lon="5.93153">
        <ele>245.65</ele>
        <time>2019-04-22T13:01:08.000Z</time>
      </trkpt>
      <trkpt lat="45.30011" lon="5.93154">
        <ele>242.55</ele>
        <time>2019-04-22T13:01:13.000Z</time>
      </trkpt>
      <trkpt lat="45.30023" lon="5.93158">
        <ele>241.52</ele>
        <time>2019-04-22T13:01:18.000Z</time>
      </trkpt>
      <trkpt lat="45.3004" lon="5.9316">
        <ele>244.88</ele>
        <time>2019-04-22T13:01:23.000Z</time>
      </trkpt>
      <trkpt lat="45.30062" lon="5.93166">
        <ele>243.85</ele>
        <time>2019-04-22T13:01:28.000Z</time>
      </trkpt>
      <trkpt lat="45.30082" lon="5.93172">
        <ele>243.36</ele>
        <time>2019-04-22T13:01:33.000Z</time>
      </trkpt>
      <trkpt lat="45.30102" lon="5.93175">
        <ele>244.19</ele>
        <time>2019-04-22T13:01:38.000Z</time>
      </trkpt>
      <trkpt lat="45.30124" lon="5.9318">
        <ele>243.46</ele>
        <time>2019-04-22T13:01:43.000Z</time>
      </trkpt>
      <trkpt lat="45.30145" lon="5.93184">
        <ele>244.59</ele>
        <time>2019-04-22T13:01:48.000Z</time>
      </trkpt>
      <trkpt lat="45.30167" lon="5.93185">
        <ele>245.82</ele>
        <time>2019-04-22T13:01:53.000Z</time>
      </trkpt>
      <trkpt lat="45.3019" lon="5.93191">
        <ele>243.43</ele>
        <time>2019-04-22T13:01:58.000Z</time>
      </trkpt>
      <trkpt lat="45.30208" lon="5.93196">
        <ele>243.07</ele>
        <time>2019-04-22T13:02:03.000Z</time>
      </trkpt>
      <trkpt lat="45.30229" lon="5.93202">
        <ele>242.03</ele>
        <time>2019-04-22T13:02:08.000Z</time>
      </trkpt>
      <trkpt lat="45.30253" lon="5.93204">
        <ele>244.24</ele>
        <time>2019-04-22T13:02:13.000Z</time>
      </trkpt>
      <trkpt lat="45.30274" lon="5.93209">
        <ele>242.84</ele>
        <time>2019-04-22T13:02:18.000Z</time>
      </trkpt>
      <trkpt lat="45.30296" lon="5.93209">
        <ele>244.01</ele>
        <time>2019-04-22T13:02:23.000Z</time>
      </trkpt>
      <trkpt lat="45.3032" lon="5.9321">
        <ele>245.73</ele>
        <time>2019-04-22T13:02:28.000Z</time>
      </trkpt>
      <trkpt lat="45.30342" lon="5.93213">
        <ele>243.9</ele>
        <time>2019-04-22T13:02:33.000Z</time>
      </trkpt>
      <trkpt lat="45.30365" lon="5.93217">
        <ele>244.6</ele>
        <time>2019-04-22T13:02:38.000Z</time>
      </trkpt>
      <trkpt lat="45.30388" lon="5.93219">
        <ele>246.46</ele>
        <time>2019-04-22T13:02:43.000Z</time>
      </trkpt>
      <trkpt lat="45.30412" lon="5.93224">
        <ele>245.52</ele>
        <time>2019-04-22T13:02:48.000Z</time>
      </trkpt>
      <trkpt lat="45.30437" lon="5.93226">
        <ele>246.77</ele>
        <time>2019-04-22T13:02:53.000Z</time>
      </trkpt>
      <trkpt lat="45.30462" lon="5.9323">
        <ele>247.06</ele>
        <time>2019-04-22T13:02:58.000Z</time>
      </trkpt>
      <trkpt lat="45.30482" lon="5.93232">
        <ele>247.01</ele>
        <time>2019-04-22T13:03:03.000Z</time>
      </trkpt>
      <trkpt lat="45.30505" lon="5.9324">
        <ele>245.9</ele>
        <time>2019-04-22T13:03:08.000Z</time>
      </trkpt>
      <trkpt lat="45.30527" lon="5.93251">
        <ele>243.14</ele>
        <time>2019-04-22T13:03:13.000Z</time>
      </trkpt>
      <trkpt lat="45.30548" lon="5.93259">
        <ele>243.73</ele>
        <time>2019-04-22T13:03:18.000Z</time>
      </trkpt>
      <trkpt lat="45.30571" lon="5.93265">
        <ele>241.75</ele>
        <time>2019-04-22T13:03:23.000Z</time>
      </trkpt>
      <trkpt lat="45.30593" lon="5.93276">
        <ele>241.92</ele>
        <time>2019-04-22T13:03:28.000Z</time>
      </trkpt>
      <trkpt lat="45.30614" lon="5.93284">
        <ele>241.03</ele>
        <time>2019-04-22T13:03:33.000Z</time>
      </trkpt>
      <trkpt lat="45.30635" lon="5.93295">
        <ele>239.84</ele>
        <time>2019-04-22T13:03:38.000Z</time>
      </trkpt>
      <trkpt lat="45.30652" lon="5.93308">
        <ele>238.55</ele>
        <time>2019-04-22T13:03:43.000Z</time>
      </trkpt>
      <trkpt lat="45.30667" lon="5.93316">
        <ele>240.91</ele>
        <time>2019-04-22T13:03:48.000Z</time>
      </trkpt>
      <trkpt lat="45.30679" lon="5.93323">
        <ele>240.4</ele>
        <time>2019-04-22T13:03:53.000Z</time>
      </trkpt>
      <trkpt lat="45.30694" lon="5.93334">
        <ele>238.76</ele>
        <time>2019-04-22T13:03:58.000Z</time>
      </trkpt>
      <trkpt lat="45.30711" lon="5.93348">
        <ele>246.13</ele>
        <time>2019-04-22T13:04:03.000Z</time>
      </trkpt>
      <trkpt lat="45.3073" lon="5.93363">
        <ele>243.58</ele>
        <time>2019-04-22T13:04:08.000Z</time>
      </trkpt>
      <trkpt lat="45.30751" lon="5.93377">
        <ele>243.27</ele>
        <time>2019-04-22T13:04:13.000Z</time>
      </trkpt>
      <trkpt lat="45.3077" lon="5.93395">
        <ele>241.35</ele>
        <time>2019-04-22T13:04:18.000Z</time>
      </trkpt>
      <trkpt lat="45.30786" lon="5.93412">
        <ele>242.81</ele>
        <time>2019-04-22T13:04:23.000Z</time>
      </trkpt>
      <trkpt lat="45.30807" lon="5.93428">
        <ele>247.38</ele>
        <time>2019-04-22T13:04:28.000Z</time>
      </trkpt>
      <trkpt lat="45.30819" lon="5.93452">
        <ele>246.11</ele>
        <time>2019-04-22T13:04:33.000Z</time>
      </trkpt>
      <trkpt lat="45.30839" lon="5.9347">
        <ele>247.92</ele>
        <time>2019-04-22T13:04:38.000Z</time>
      </trkpt>
      <trkpt lat="45.30852" lon="5.93493">
        <ele>241.87</ele>
        <time>2019-04-22T13:04:43.000Z</time>
      </trkpt>
      <trkpt lat="45.3087" lon="5.93511">
        <ele>238.1</ele>
        <time>2019-04-22T13:04:48.000Z</time>
      </trkpt>
      <trkpt lat="45.30887" lon="5.93531">
        <ele>238.54</ele>
        <time>2019-04-22T13:04:53.000Z</time>
      </trkpt>
      <trkpt lat="45.30897" lon="5.93549">
        <ele>235.87</ele>
        <time>2019-04-22T13:04:58.000Z</time>
      </trkpt>
      <trkpt lat="45.30911" lon="5.9357">
        <ele>237.78</ele>
        <time>2019-04-22T13:05:03.000Z</time>
      </trkpt>
      <trkpt lat="45.30932" lon="5.93591">
        <ele>240.57</ele>
        <time>2019-04-22T13:05:08.000Z</time>
      </trkpt>
      <trkpt lat="45.30947" lon="5.93611">
        <ele>244.26</ele>
        <time>2019-04-22T13:05:13.000Z</time>
      </trkpt>
      <trkpt lat="45.30965" lon="5.93632">
        <ele>246.05</ele>
        <time>2019-04-22T13:05:18.000Z</time>
      </trkpt>
      <trkpt lat="45.30983" lon="5.93657">
        <ele>246.06</ele>
        <time>2019-04-22T13:05:23.000Z</time>
      </trkpt>
      <trkpt lat="45.31005" lon="5.93677">
        <ele>241.78</ele>
        <time>2019-04-22T13:05:28.000Z</time>
      </trkpt>
      <trkpt lat="45.3102" lon="5.93698">
        <ele>241.54</ele>
        <time>2019-04-22T13:05:33.000Z</time>
      </trkpt>
      <trkpt lat="45.31041" lon="5.93722">
        <ele>238.51</ele>
        <time>2019-04-22T13:05:38.000Z</time>
      </trkpt>
      <trkpt lat="45.31057" lon="5.93741">
        <ele>238.99</ele>
        <time>2019-04-22T13:05:43.000Z</time>
      </trkpt>
      <trkpt lat="45.31073" lon="5.93763">
        <ele>236.86</ele>
        <time>2019-04-22T13:05:48.000Z</time>
      </trkpt>
      <trkpt lat="45.31089" lon="5.93786">
        <ele>235.73</ele>
        <time>2019-04-22T13:05:53.000Z</time>
      </trkpt>
      <trkpt lat="45.31102" lon="5.9381">
        <ele>235.48</ele>
        <time>2019-04-22T13:05:58.000Z</time>
      </trkpt>
      <trkpt lat="45.31116" lon="5.9383">
        <ele>234.26</ele>
        <time>2019-04-22T13:06:03.000Z</time>
      </trkpt>
      <trkpt lat="45.31124" lon="5.9385">
        <ele>233.09</ele>
        <time>2019-04-22T13:06:08.000Z</time>
      </trkpt>
      <trkpt lat="45.31134" lon="5.93864">
        <ele>233.71</ele>
        <time>2019-04-22T13:06:13.000Z</time>
      </trkpt>
      <trkpt lat="45.31147" lon="5.93881">
        <ele>233.95</ele>
        <time>2019-04-22T13:06:18.000Z</time>
      </trkpt>
      <trkpt lat="45.3116" lon="5.93903">
        <ele>235.47</ele>
        <time>2019-04-22T13:06:23.000Z</time>
      </trkpt>
      <trkpt lat="45.31176" lon="5.93925">
        <ele>237.83</ele>
        <time>2019-04-22T13:06:28.000Z</time>
      </trkpt>
      <trkpt lat="45.31191" lon="5.93946">
        <ele>240.75</ele>
        <time>2019-04-22T13:06:33.000Z</time>
      </trkpt>
      <trkpt lat="45.31208" lon="5.93968">
        <ele>239.85</ele>
        <time>2019-04-22T13:06:38.000Z</time>
      </trkpt>
      <trkpt lat="45.31223" lon="5.93992">
        <ele>240.22</ele>
        <time>2019-04-22T13:06:43.000Z</time>
      </trkpt>
      <trkpt lat="45.31238" lon="5.94016">
        <ele>238.82</ele>
        <time>2019-04-22T13:06:48.000Z</time>
      </trkpt>
      <trkpt lat="45.31253" lon="5.94039">
        <ele>238.16</ele>
        <time>2019-04-22T13:06:53.000Z</time>
      </trkpt>
      <trkpt lat="45.31269" lon="5.94059">
        <ele>235.49</ele>
        <time>2019-04-22T13:06:58.000Z</time>
      </trkpt>
      <trkpt lat="45.31279" lon="5.94085">
        <ele>232.94</ele>
        <time>2019-04-22T13:07:03.000Z</time>
      </trkpt>
      <trkpt lat="45.31296" lon="5.94112">
        <ele>236.1</ele>
        <time>2019-04-22T13:07:08.000Z</time>
      </trkpt>
      <trkpt lat="45.3131" lon="5.94136">
        <ele>237.16</ele>
        <time>2019-04-22T13:07:13.000Z</time>
      </trkpt>
      <trkpt lat="45.31324" lon="5.94154">
        <ele>237.81</ele>
        <time>2019-04-22T13:07:18.000Z</time>
      </trkpt>
      <trkpt lat="45.31332" lon="5.94173">
        <ele>238.35</ele>
        <time>2019-04-22T13:07:23.000Z</time>
      </trkpt>
      <trkpt lat="45.3134" lon="5.9419">
        <ele>239.29</ele>
        <time>2019-04-22T13:07:28.000Z</time>
      </trkpt>
      <trkpt lat="45.31351" lon="5.94208">
        <ele>238.17</ele>
        <time>2019-04-22T13:07:33.000Z</time>
      </trkpt>
      <trkpt lat="45.31365" lon="5.94227">
        <ele>238.88</ele>
        <time>2019-04-22T13:07:38.000Z</time>
      </trkpt>
      <trkpt lat="45.3138" lon="5.9425">
        <ele>241.8</ele>
        <time>2019-04-22T13:07:43.000Z</time>
      </trkpt>
      <trkpt lat="45.31396" lon="5.94272">
        <ele>242.05</ele>
        <time>2019-04-22T13:07:48.000Z</time>
      </trkpt>
      <trkpt lat="45.31409" lon="5.94291">
        <ele>238.41</ele>
        <time>2019-04-22T13:07:53.000Z</time>
      </trkpt>
      <trkpt lat="45.31422" lon="5.9431">
        <ele>240.48</ele>
        <time>2019-04-22T13:07:58.000Z</time>
      </trkpt>
      <trkpt lat="45.31438" lon="5.9433">
        <ele>239.21</ele>
        <time>2019-04-22T13:08:03.000Z</time>
      </trkpt>
      <trkpt lat="45.3145" lon="5.94353">
        <ele>239.39</ele>
        <time>2019-04-22T13:08:08.000Z</time>
      </trkpt>
      <trkpt lat="45.31461" lon="5.94374">
        <ele>240.89</ele>
        <time>2019-04-22T13:08:13.000Z</time>
      </trkpt>
      <trkpt lat="45.31475" lon="5.94397">
        <ele>241.9</ele>
        <time>2019-04-22T13:08:18.000Z</time>
      </trkpt>
      <trkpt lat="45.31485" lon="5.94423">
        <ele>240.72</ele>
        <time>2019-04-22T13:08:23.000Z</time>
      </trkpt>
      <trkpt lat="45.31495" lon="5.94447">
        <ele>238.97</ele>
        <time>2019-04-22T13:08:28.000Z</time>
      </trkpt>
      <trkpt lat="45.31505" lon="5.94473">
        <ele>240.16</ele>
        <time>2019-04-22T13:08:33.000Z</time>
      </trkpt>
      <trkpt lat="45.31517" lon="5.94499">
        <ele>238.3</ele>
        <time>2019-04-22T13:08:38.000Z</time>
      </trkpt>
      <trkpt lat="45.3153" lon="5.94523">
        <ele>238.14</ele>
        <time>2019-04-22T13:08:43.000Z</time>
      </trkpt>
      <trkpt lat="45.31535" lon="5.94543">
        <ele>236.28</ele>
        <time>2019-04-22T13:08:48.000Z</time>
      </trkpt>
      <trkpt lat="45.3154" lon="5.94555">
        <ele>232.74</ele>
        <time>2019-04-22T13:08:54.000Z</time>
      </trkpt>
      <trkpt lat="45.31549" lon="5.94559">
        <ele>238.59</ele>
        <time>2019-04-22T13:09:02.000Z</time>
      </trkpt>
      <trkpt lat="45.31552" lon="5.94572">
        <ele>245.98</ele>
        <time>2019-04-22T13:09:10.000Z</time>
      </trkpt>
      <trkpt lat="45.31546" lon="5.94587">
        <ele>249.73</ele>
        <time>2019-04-22T13:09:31.000Z</time>
      </trkpt>
      <trkpt lat="45.31533" lon="5.94605">
        <ele>248.15</ele>
        <time>2019-04-22T13:09:36.000Z</time>
      </trkpt>
      <trkpt lat="45.31519" lon="5.94627">
        <ele>250.55</ele>
        <time>2019-04-22T13:09:41.000Z</time>
      </trkpt>
      <trkpt lat="45.31498" lon="5.94656">
        <ele>249.04</ele>
        <time>2019-04-22T13:09:46.000Z</time>
      </trkpt>
      <trkpt lat="45.31477" lon="5.9469">
        <ele>249.74</ele>
        <time>2019-04-22T13:09:51.000Z</time>
      </trkpt>
      <trkpt lat="45.31459" lon="5.94722">
        <ele>248.22</ele>
        <time>2019-04-22T13:09:56.000Z</time>
      </trkpt>
      <trkpt lat="45.31435" lon="5.94756">
        <ele>244.46</ele>
        <time>2019-04-22T13:10:01.000Z</time>
      </trkpt>
      <trkpt lat="45.31411" lon="5.94795">
        <ele>243.24</ele>
        <time>2019-04-22T13:10:06.000Z</time>
      </trkpt>
      <trkpt lat="45.31387" lon="5.94829">
        <ele>242.53</ele>
        <time>2019-04-22T13:10:11.000Z</time>
      </trkpt>
      <trkpt lat="45.31367" lon="5.94859">
        <ele>240.15</ele>
        <time>2019-04-22T13:10:16.000Z</time>
      </trkpt>
      <trkpt lat="45.31349" lon="5.94884">
        <ele>239.65</ele>
        <time>2019-04-22T13:10:21.000Z</time>
      </trkpt>
      <trkpt lat="45.31331" lon="5.94911">
        <ele>239.91</ele>
        <time>2019-04-22T13:10:26.000Z</time>
      </trkpt>
      <trkpt lat="45.31311" lon="5.9494">
        <ele>240.81</ele>
        <time>2019-04-22T13:10:31.000Z</time>
      </trkpt>
      <trkpt lat="45.31296" lon="5.94967">
        <ele>242.75</ele>
        <time>2019-04-22T13:10:36.000Z</time>
      </trkpt>
      <trkpt lat="45.31278" lon="5.94995">
        <ele>242.61</ele>
        <time>2019-04-22T13:10:41.000Z</time>
      </trkpt>
      <trkpt lat="45.31262" lon="5.95023">
        <ele>241.25</ele>
        <time>2019-04-22T13:10:46.000Z</time>
      </trkpt>
      <trkpt lat="45.31247" lon="5.95049">
        <ele>244.2</ele>
        <time>2019-04-22T13:10:51.000Z</time>
      </trkpt>
      <trkpt lat="45.31234" lon="5.95073">
        <ele>244.74</ele>
        <time>2019-04-22T13:10:56.000Z</time>
      </trkpt>
      <trkpt lat="45.31221" lon="5.95097">
        <ele>245.05</ele>
        <time>2019-04-22T13:11:01.000Z</time>
      </trkpt>
      <trkpt lat="45.31201" lon="5.95126">
        <ele>246.61</ele>
        <time>2019-04-22T13:11:06.000Z</time>
      </trkpt>
      <trkpt lat="45.3118" lon="5.95157">
        <ele>246.29</ele>
        <time>2019-04-22T13:11:11.000Z</time>
      </trkpt>
      <trkpt lat="45.31152" lon="5.95193">
        <ele>245.69</ele>
        <time>2019-04-22T13:11:16.000Z</time>
      </trkpt>
      <trkpt lat="45.31134" lon="5.95222">
        <ele>244.18</ele>
        <time>2019-04-22T13:11:21.000Z</time>
      </trkpt>
      <trkpt lat="45.31112" lon="5.95255">
        <ele>243.45</ele>
        <time>2019-04-22T13:11:26.000Z</time>
      </trkpt>
      <trkpt lat="45.31098" lon="5.95286">
        <ele>245.6</ele>
        <time>2019-04-22T13:11:31.000Z</time>
      </trkpt>
      <trkpt lat="45.31072" lon="5.95323">
        <ele>248.76</ele>
        <time>2019-04-22T13:11:36.000Z</time>
      </trkpt>
      <trkpt lat="45.31049" lon="5.95356">
        <ele>250.61</ele>
        <time>2019-04-22T13:11:41.000Z</time>
      </trkpt>
      <trkpt lat="45.31022" lon="5.95392">
        <ele>252.82</ele>
        <time>2019-04-22T13:11:46.000Z</time>
      </trkpt>
      <trkpt lat="45.31002" lon="5.95424">
        <ele>253.39</ele>
        <time>2019-04-22T13:11:51.000Z</time>
      </trkpt>
      <trkpt lat="45.30981" lon="5.9546">
        <ele>252.66</ele>
        <time>2019-04-22T13:11:56.000Z</time>
      </trkpt>
      <trkpt lat="45.30962" lon="5.95493">
        <ele>253.57</ele>
        <time>2019-04-22T13:12:01.000Z</time>
      </trkpt>
      <trkpt lat="45.30944" lon="5.95523">
        <ele>255.15</ele>
        <time>2019-04-22T13:12:06.000Z</time>
      </trkpt>
      <trkpt lat="45.3092" lon="5.95556">
        <ele>255.49</ele>
        <time>2019-04-22T13:12:11.000Z</time>
      </trkpt>
      <trkpt lat="45.30898" lon="5.95591">
        <ele>256.08</ele>
        <time>2019-04-22T13:12:16.000Z</time>
      </trkpt>
      <trkpt lat="45.30875" lon="5.95625">
        <ele>254.05</ele>
        <time>2019-04-22T13:12:21.000Z</time>
      </trkpt>
      <trkpt lat="45.30856" lon="5.95652">
        <ele>253.8</ele>
        <time>2019-04-22T13:12:26.000Z</time>
      </trkpt>
      <trkpt lat="45.30837" lon="5.95678">
        <ele>258.26</ele>
        <time>2019-04-22T13:12:31.000Z</time>
      </trkpt>
      <trkpt lat="45.30827" lon="5.95709">
        <ele>260.05</ele>
        <time>2019-04-22T13:12:36.000Z</time>
      </trkpt>
      <trkpt lat="45.30813" lon="5.95726">
        <ele>257.93</ele>
        <time>2019-04-22T13:12:41.000Z</time>
      </trkpt>
      <trkpt lat="45.30808" lon="5.9574">
        <ele>255.95</ele>
        <time>2019-04-22T13:13:08.000Z</time>
      </trkpt>
      <trkpt lat="45.308" lon="5.95751">
        <ele>255.88</ele>
        <time>2019-04-22T13:13:13.000Z</time>
      </trkpt>
      <trkpt lat="45.30789" lon="5.95755">
        <ele>255.85</ele>
        <time>2019-04-22T13:13:18.000Z</time>
      </trkpt>
      <trkpt lat="45.3077" lon="5.95736">
        <ele>255.07</ele>
        <time>2019-04-22T13:13:23.000Z</time>
      </trkpt>
      <trkpt lat="45.30742" lon="5.95708">
        <ele>252.22</ele>
        <time>2019-04-22T13:13:28.000Z</time>
      </trkpt>
      <trkpt lat="45.30713" lon="5.95682">
        <ele>251.54</ele>
        <time>2019-04-22T13:13:33.000Z</time>
      </trkpt>
      <trkpt lat="45.30687" lon="5.95656">
        <ele>253.57</ele>
        <time>2019-04-22T13:13:38.000Z</time>
      </trkpt>
      <trkpt lat="45.30657" lon="5.95627">
        <ele>254.09</ele>
        <time>2019-04-22T13:13:43.000Z</time>
      </trkpt>
      <trkpt lat="45.30633" lon="5.956">
        <ele>255.39</ele>
        <time>2019-04-22T13:13:48.000Z</time>
      </trkpt>
      <trkpt lat="45.30598" lon="5.95566">
        <ele>255.11</ele>
        <time>2019-04-22T13:13:53.000Z</time>
      </trkpt>
      <trkpt lat="45.30563" lon="5.95531">
        <ele>250.81</ele>
        <time>2019-04-22T13:13:58.000Z</time>
      </trkpt>
      <trkpt lat="45.30529" lon="5.95494">
        <ele>246.48</ele>
        <time>2019-04-22T13:14:03.000Z</time>
      </trkpt>
      <trkpt lat="45.30492" lon="5.95457">
        <ele>244.04</ele>
        <time>2019-04-22T13:14:08.000Z</time>
      </trkpt>
      <trkpt lat="45.30453" lon="5.95418">
        <ele>243.87</ele>
        <time>2019-04-22T13:14:13.000Z</time>
      </trkpt>
      <trkpt lat="45.30417" lon="5.9538">
        <ele>240.15</ele>
        <time>2019-04-22T13:14:18.000Z</time>
      </trkpt>
      <trkpt lat="45.30387" lon="5.95337">
        <ele>239.07</ele>
        <time>2019-04-22T13:14:23.000Z</time>
      </trkpt>
      <trkpt lat="45.30363" lon="5.95358">
        <ele>240.01</ele>
        <time>2019-04-22T13:14:28.000Z</time>
      </trkpt>
      <trkpt lat="45.3033" lon="5.9536">
        <ele>237.83</ele>
        <time>2019-04-22T13:14:33.000Z</time>
      </trkpt>
      <trkpt lat="45.30304" lon="5.95356">
        <ele>242.81</ele>
        <time>2019-04-22T13:14:38.000Z</time>
      </trkpt>
      <trkpt lat="45.30278" lon="5.95343">
        <ele>240.16</ele>
        <time>2019-04-22T13:14:43.000Z</time>
      </trkpt>
      <trkpt lat="45.30253" lon="5.95331">
        <ele>239.94</ele>
        <time>2019-04-22T13:14:48.000Z</time>
      </trkpt>
      <trkpt lat="45.30228" lon="5.95318">
        <ele>236.58</ele>
        <time>2019-04-22T13:14:53.000Z</time>
      </trkpt>
      <trkpt lat="45.30202" lon="5.95302">
        <ele>236.59</ele>
        <time>2019-04-22T13:14:58.000Z</time>
      </trkpt>
      <trkpt lat="45.30176" lon="5.95299">
        <ele>236.37</ele>
        <time>2019-04-22T13:15:03.000Z</time>
      </trkpt>
      <trkpt lat="45.30156" lon="5.95291">
        <ele>238.56</ele>
        <time>2019-04-22T13:15:08.000Z</time>
      </trkpt>
      <trkpt lat="45.30136" lon="5.95277">
        <ele>238.55</ele>
        <time>2019-04-22T13:15:13.000Z</time>
      </trkpt>
      <trkpt lat="45.30122" lon="5.95268">
        <ele>238.29</ele>
        <time>2019-04-22T13:15:18.000Z</time>
      </trkpt>
      <trkpt lat="45.30115" lon="5.95277">
        <ele>238.68</ele>
        <time>2019-04-22T13:15:23.000Z</time>
      </trkpt>
      <trkpt lat="45.30111" lon="5.95294">
        <ele>240.9</ele>
        <time>2019-04-22T13:15:28.000Z</time>
      </trkpt>
      <trkpt lat="45.30106" lon="5.95309">
        <ele>239.92</ele>
        <time>2019-04-22T13:15:33.000Z</time>
      </trkpt>
      <trkpt lat="45.30113" lon="5.95298">
        <ele>234.26</ele>
        <time>2019-04-22T13:54:34.000Z</time>
      </trkpt>
      <trkpt lat="45.30115" lon="5.95284">
        <ele>234.31</ele>
        <time>2019-04-22T13:54:39.000Z</time>
      </trkpt>
      <trkpt lat="45.30118" lon="5.95271">
        <ele>236.84</ele>
        <time>2019-04-22T13:54:44.000Z</time>
      </trkpt>
      <trkpt lat="45.30127" lon="5.95263">
        <ele>236.4</ele>
        <time>2019-04-22T13:54:49.000Z</time>
      </trkpt>
      <trkpt lat="45.30137" lon="5.95267">
        <ele>236.45</ele>
        <time>2019-04-22T13:54:54.000Z</time>
      </trkpt>
      <trkpt lat="45.30148" lon="5.95278">
        <ele>235.15</ele>
        <time>2019-04-22T13:54:59.000Z</time>
      </trkpt>
      <trkpt lat="45.3016" lon="5.95287">
        <ele>233.36</ele>
        <time>2019-04-22T13:55:04.000Z</time>
      </trkpt>
      <trkpt lat="45.30176" lon="5.95287">
        <ele>230.97</ele>
        <time>2019-04-22T13:55:09.000Z</time>
      </trkpt>
      <trkpt lat="45.30186" lon="5.95285">
        <ele>232.63</ele>
        <time>2019-04-22T13:55:14.000Z</time>
      </trkpt>
      <trkpt lat="45.30209" lon="5.95297">
        <ele>232.05</ele>
        <time>2019-04-22T13:55:19.000Z</time>
      </trkpt>
      <trkpt lat="45.30229" lon="5.95309">
        <ele>238.28</ele>
        <time>2019-04-22T13:55:24.000Z</time>
      </trkpt>
      <trkpt lat="45.30245" lon="5.9532">
        <ele>241.11</ele>
        <time>2019-04-22T13:55:29.000Z</time>
      </trkpt>
      <trkpt lat="45.30261" lon="5.9533">
        <ele>241.91</ele>
        <time>2019-04-22T13:55:34.000Z</time>
      </trkpt>
      <trkpt lat="45.30278" lon="5.95342">
        <ele>236.2</ele>
        <time>2019-04-22T13:55:39.000Z</time>
      </trkpt>
      <trkpt lat="45.30296" lon="5.95353">
        <ele>235.86</ele>
        <time>2019-04-22T13:55:44.000Z</time>
      </trkpt>
      <trkpt lat="45.30314" lon="5.9536">
        <ele>233.95</ele>
        <time>2019-04-22T13:55:49.000Z</time>
      </trkpt>
      <trkpt lat="45.30333" lon="5.95367">
        <ele>235.44</ele>
        <time>2019-04-22T13:55:54.000Z</time>
      </trkpt>
      <trkpt lat="45.30345" lon="5.95375">
        <ele>236.8</ele>
        <time>2019-04-22T13:55:59.000Z</time>
      </trkpt>
      <trkpt lat="45.30358" lon="5.95382">
        <ele>235.3</ele>
        <time>2019-04-22T13:56:04.000Z</time>
      </trkpt>
      <trkpt lat="45.30368" lon="5.95372">
        <ele>237.1</ele>
        <time>2019-04-22T13:56:09.000Z</time>
      </trkpt>
      <trkpt lat="45.30379" lon="5.9537">
        <ele>236.05</ele>
        <time>2019-04-22T13:56:14.000Z</time>
      </trkpt>
      <trkpt lat="45.30395" lon="5.95374">
        <ele>236.55</ele>
        <time>2019-04-22T13:56:19.000Z</time>
      </trkpt>
      <trkpt lat="45.30411" lon="5.95388">
        <ele>239.19</ele>
        <time>2019-04-22T13:56:24.000Z</time>
      </trkpt>
      <trkpt lat="45.30427" lon="5.95404">
        <ele>242.85</ele>
        <time>2019-04-22T13:56:29.000Z</time>
      </trkpt>
      <trkpt lat="45.30442" lon="5.95421">
        <ele>241.62</ele>
        <time>2019-04-22T13:56:34.000Z</time>
      </trkpt>
      <trkpt lat="45.30454" lon="5.95445">
        <ele>241.98</ele>
        <time>2019-04-22T13:56:39.000Z</time>
      </trkpt>
      <trkpt lat="45.30442" lon="5.95472">
        <ele>242.16</ele>
        <time>2019-04-22T13:56:44.000Z</time>
      </trkpt>
      <trkpt lat="45.30432" lon="5.95498">
        <ele>244.95</ele>
        <time>2019-04-22T13:56:49.000Z</time>
      </trkpt>
      <trkpt lat="45.30422" lon="5.95527">
        <ele>243.49</ele>
        <time>2019-04-22T13:56:54.000Z</time>
      </trkpt>
      <trkpt lat="45.3041" lon="5.95555">
        <ele>245.52</ele>
        <time>2019-04-22T13:56:59.000Z</time>
      </trkpt>
      <trkpt lat="45.30402" lon="5.95584">
        <ele>248.31</ele>
        <time>2019-04-22T13:57:04.000Z</time>
      </trkpt>
      <trkpt lat="45.30391" lon="5.9561">
        <ele>250.91</ele>
        <time>2019-04-22T13:57:09.000Z</time>
      </trkpt>
      <trkpt lat="45.30383" lon="5.9564">
        <ele>247.17</ele>
        <time>2019-04-22T13:57:14.000Z</time>
      </trkpt>
      <trkpt lat="45.30374" lon="5.95672">
        <ele>245.99</ele>
        <time>2019-04-22T13:57:19.000Z</time>
      </trkpt>
      <trkpt lat="45.30366" lon="5.95699">
        <ele>245.96</ele>
        <time>2019-04-22T13:57:24.000Z</time>
      </trkpt>
      <trkpt lat="45.30357" lon="5.95729">
        <ele>246.34</ele>
        <time>2019-04-22T13:57:29.000Z</time>
      </trkpt>
      <trkpt lat="45.30346" lon="5.95752">
        <ele>245.9</ele>
        <time>2019-04-22T13:57:34.000Z</time>
      </trkpt>
      <trkpt lat="45.30333" lon="5.95771">
        <ele>245.98</ele>
        <time>2019-04-22T13:57:39.000Z</time>
      </trkpt>
      <trkpt lat="45.30317" lon="5.95775">
        <ele>247.97</ele>
        <time>2019-04-22T13:57:44.000Z</time>
      </trkpt>
      <trkpt lat="45.30298" lon="5.95776">
        <ele>248.48</ele>
        <time>2019-04-22T13:57:49.000Z</time>
      </trkpt>
      <trkpt lat="45.30278" lon="5.95777">
        <ele>248.92</ele>
        <time>2019-04-22T13:57:54.000Z</time>
      </trkpt>
      <trkpt lat="45.30259" lon="5.95775">
        <ele>249.3</ele>
        <time>2019-04-22T13:57:59.000Z</time>
      </trkpt>
      <trkpt lat="45.3024" lon="5.95771">
        <ele>249.43</ele>
        <time>2019-04-22T13:58:04.000Z</time>
      </trkpt>
      <trkpt lat="45.30228" lon="5.95758">
        <ele>252.39</ele>
        <time>2019-04-22T13:58:09.000Z</time>
      </trkpt>
      <trkpt lat="45.30215" lon="5.95743">
        <ele>256.14</ele>
        <time>2019-04-22T13:58:14.000Z</time>
      </trkpt>
      <trkpt lat="45.30204" lon="5.95731">
        <ele>253.67</ele>
        <time>2019-04-22T13:58:19.000Z</time>
      </trkpt>
      <trkpt lat="45.3019" lon="5.95729">
        <ele>249.4</ele>
        <time>2019-04-22T13:58:24.000Z</time>
      </trkpt>
      <trkpt lat="45.30177" lon="5.95728">
        <ele>251.29</ele>
        <time>2019-04-22T13:58:29.000Z</time>
      </trkpt>
      <trkpt lat="45.30161" lon="5.95726">
        <ele>253.43</ele>
        <time>2019-04-22T13:58:34.000Z</time>
      </trkpt>
      <trkpt lat="45.30145" lon="5.95721">
        <ele>253.74</ele>
        <time>2019-04-22T13:58:39.000Z</time>
      </trkpt>
      <trkpt lat="45.30126" lon="5.95712">
        <ele>256.98</ele>
        <time>2019-04-22T13:58:44.000Z</time>
      </trkpt>
      <trkpt lat="45.30106" lon="5.9571">
        <ele>254.95</ele>
        <time>2019-04-22T13:58:49.000Z</time>
      </trkpt>
      <trkpt lat="45.30095" lon="5.95704">
        <ele>255.78</ele>
        <time>2019-04-22T13:58:54.000Z</time>
      </trkpt>
      <trkpt lat="45.30078" lon="5.95695">
        <ele>258.73</ele>
        <time>2019-04-22T13:58:59.000Z</time>
      </trkpt>
      <trkpt lat="45.30061" lon="5.95689">
        <ele>263.56</ele>
        <time>2019-04-22T13:59:04.000Z</time>
      </trkpt>
      <trkpt lat="45.30047" lon="5.95689">
        <ele>267.9</ele>
        <time>2019-04-22T13:59:09.000Z</time>
      </trkpt>
      <trkpt lat="45.30029" lon="5.95685">
        <ele>269.63</ele>
        <time>2019-04-22T13:59:14.000Z</time>
      </trkpt>
      <trkpt lat="45.30015" lon="5.95661">
        <ele>272.07</ele>
        <time>2019-04-22T13:59:19.000Z</time>
      </trkpt>
      <trkpt lat="45.30008" lon="5.95646">
        <ele>275.18</ele>
        <time>2019-04-22T13:59:24.000Z</time>
      </trkpt>
      <trkpt lat="45.29995" lon="5.95637">
        <ele>273.71</ele>
        <time>2019-04-22T13:59:29.000Z</time>
      </trkpt>
      <trkpt lat="45.29979" lon="5.9563">
        <ele>275.33</ele>
        <time>2019-04-22T13:59:34.000Z</time>
      </trkpt>
      <trkpt lat="45.29964" lon="5.95621">
        <ele>278.61</ele>
        <time>2019-04-22T13:59:39.000Z</time>
      </trkpt>
      <trkpt lat="45.29949" lon="5.95614">
        <ele>280.97</ele>
        <time>2019-04-22T13:59:44.000Z</time>
      </trkpt>
      <trkpt lat="45.29929" lon="5.95612">
        <ele>282.77</ele>
        <time>2019-04-22T13:59:49.000Z</time>
      </trkpt>
      <trkpt lat="45.29911" lon="5.95602">
        <ele>286.17</ele>
        <time>2019-04-22T13:59:54.000Z</time>
      </trkpt>
      <trkpt lat="45.29894" lon="5.95578">
        <ele>288.42</ele>
        <time>2019-04-22T13:59:59.000Z</time>
      </trkpt>
      <trkpt lat="45.29875" lon="5.95565">
        <ele>295</ele>
        <time>2019-04-22T14:00:04.000Z</time>
      </trkpt>
      <trkpt lat="45.29862" lon="5.95554">
        <ele>297.91</ele>
        <time>2019-04-22T14:00:09.000Z</time>
      </trkpt>
      <trkpt lat="45.29849" lon="5.95543">
        <ele>299.53</ele>
        <time>2019-04-22T14:00:14.000Z</time>
      </trkpt>
      <trkpt lat="45.29837" lon="5.95539">
        <ele>301.84</ele>
        <time>2019-04-22T14:00:19.000Z</time>
      </trkpt>
      <trkpt lat="45.29821" lon="5.95535">
        <ele>301.58</ele>
        <time>2019-04-22T14:00:24.000Z</time>
      </trkpt>
      <trkpt lat="45.29802" lon="5.95525">
        <ele>301.65</ele>
        <time>2019-04-22T14:00:29.000Z</time>
      </trkpt>
      <trkpt lat="45.29786" lon="5.95521">
        <ele>301.65</ele>
        <time>2019-04-22T14:00:34.000Z</time>
      </trkpt>
      <trkpt lat="45.29766" lon="5.95519">
        <ele>304.42</ele>
        <time>2019-04-22T14:00:39.000Z</time>
      </trkpt>
      <trkpt lat="45.29747" lon="5.95526">
        <ele>307.02</ele>
        <time>2019-04-22T14:00:44.000Z</time>
      </trkpt>
      <trkpt lat="45.29737" lon="5.95532">
        <ele>312.16</ele>
        <time>2019-04-22T14:00:49.000Z</time>
      </trkpt>
      <trkpt lat="45.29722" lon="5.95537">
        <ele>314.6</ele>
        <time>2019-04-22T14:00:54.000Z</time>
      </trkpt>
      <trkpt lat="45.29704" lon="5.95521">
        <ele>316.8</ele>
        <time>2019-04-22T14:00:59.000Z</time>
      </trkpt>
      <trkpt lat="45.29694" lon="5.95496">
        <ele>318.43</ele>
        <time>2019-04-22T14:01:04.000Z</time>
      </trkpt>
      <trkpt lat="45.2968" lon="5.95462">
        <ele>320.57</ele>
        <time>2019-04-22T14:01:09.000Z</time>
      </trkpt>
      <trkpt lat="45.29662" lon="5.9545">
        <ele>324.41</ele>
        <time>2019-04-22T14:01:14.000Z</time>
      </trkpt>
      <trkpt lat="45.29644" lon="5.95443">
        <ele>325.17</ele>
        <time>2019-04-22T14:01:19.000Z</time>
      </trkpt>
      <trkpt lat="45.29626" lon="5.95436">
        <ele>328.07</ele>
        <time>2019-04-22T14:01:24.000Z</time>
      </trkpt>
      <trkpt lat="45.29609" lon="5.95428">
        <ele>330.96</ele>
        <time>2019-04-22T14:01:29.000Z</time>
      </trkpt>
      <trkpt lat="45.29591" lon="5.95419">
        <ele>334.05</ele>
        <time>2019-04-22T14:01:34.000Z</time>
      </trkpt>
      <trkpt lat="45.29576" lon="5.95408">
        <ele>339.47</ele>
        <time>2019-04-22T14:01:39.000Z</time>
      </trkpt>
      <trkpt lat="45.29559" lon="5.95405">
        <ele>338.75</ele>
        <time>2019-04-22T14:01:44.000Z</time>
      </trkpt>
      <trkpt lat="45.29533" lon="5.95397">
        <ele>337.67</ele>
        <time>2019-04-22T14:01:49.000Z</time>
      </trkpt>
      <trkpt lat="45.29519" lon="5.95386">
        <ele>337.98</ele>
        <time>2019-04-22T14:01:54.000Z</time>
      </trkpt>
      <trkpt lat="45.29498" lon="5.95382">
        <ele>340.75</ele>
        <time>2019-04-22T14:01:59.000Z</time>
      </trkpt>
      <trkpt lat="45.29485" lon="5.95371">
        <ele>339.47</ele>
        <time>2019-04-22T14:02:04.000Z</time>
      </trkpt>
      <trkpt lat="45.29473" lon="5.95359">
        <ele>344.08</ele>
        <time>2019-04-22T14:02:09.000Z</time>
      </trkpt>
      <trkpt lat="45.29457" lon="5.95347">
        <ele>348.33</ele>
        <time>2019-04-22T14:02:14.000Z</time>
      </trkpt>
      <trkpt lat="45.29442" lon="5.95341">
        <ele>344.35</ele>
        <time>2019-04-22T14:02:19.000Z</time>
      </trkpt>
      <trkpt lat="45.29426" lon="5.95339">
        <ele>347.8</ele>
        <time>2019-04-22T14:02:24.000Z</time>
      </trkpt>
      <trkpt lat="45.29402" lon="5.95332">
        <ele>351.51</ele>
        <time>2019-04-22T14:02:29.000Z</time>
      </trkpt>
      <trkpt lat="45.29384" lon="5.95312">
        <ele>354.56</ele>
        <time>2019-04-22T14:02:34.000Z</time>
      </trkpt>
      <trkpt lat="45.29366" lon="5.95299">
        <ele>360.59</ele>
        <time>2019-04-22T14:02:39.000Z</time>
      </trkpt>
      <trkpt lat="45.29351" lon="5.95289">
        <ele>366.69</ele>
        <time>2019-04-22T14:02:44.000Z</time>
      </trkpt>
      <trkpt lat="45.29334" lon="5.95281">
        <ele>367.59</ele>
        <time>2019-04-22T14:02:49.000Z</time>
      </trkpt>
      <trkpt lat="45.29322" lon="5.95269">
        <ele>369.26</ele>
        <time>2019-04-22T14:02:54.000Z</time>
      </trkpt>
      <trkpt lat="45.29311" lon="5.95278">
        <ele>371.21</ele>
        <time>2019-04-22T14:02:59.000Z</time>
      </trkpt>
      <trkpt lat="45.29314" lon="5.95301">
        <ele>373.05</ele>
        <time>2019-04-22T14:03:04.000Z</time>
      </trkpt>
      <trkpt lat="45.29332" lon="5.95311">
        <ele>373.9</ele>
        <time>2019-04-22T14:03:09.000Z</time>
      </trkpt>
      <trkpt lat="45.29353" lon="5.95308">
        <ele>375.34</ele>
        <time>2019-04-22T14:03:14.000Z</time>
      </trkpt>
      <trkpt lat="45.29371" lon="5.95328">
        <ele>376.14</ele>
        <time>2019-04-22T14:03:19.000Z</time>
      </trkpt>
      <trkpt lat="45.29381" lon="5.95353">
        <ele>379.25</ele>
        <time>2019-04-22T14:03:24.000Z</time>
      </trkpt>
      <trkpt lat="45.29393" lon="5.95377">
        <ele>379.82</ele>
        <time>2019-04-22T14:03:29.000Z</time>
      </trkpt>
      <trkpt lat="45.29407" lon="5.9539">
        <ele>381.43</ele>
        <time>2019-04-22T14:03:34.000Z</time>
      </trkpt>
      <trkpt lat="45.29422" lon="5.95404">
        <ele>384.96</ele>
        <time>2019-04-22T14:03:39.000Z</time>
      </trkpt>
      <trkpt lat="45.29437" lon="5.95414">
        <ele>387.26</ele>
        <time>2019-04-22T14:03:44.000Z</time>
      </trkpt>
      <trkpt lat="45.29457" lon="5.95434">
        <ele>389.49</ele>
        <time>2019-04-22T14:03:49.000Z</time>
      </trkpt>
      <trkpt lat="45.29471" lon="5.95452">
        <ele>391.96</ele>
        <time>2019-04-22T14:03:54.000Z</time>
      </trkpt>
      <trkpt lat="45.29486" lon="5.95467">
        <ele>393.62</ele>
        <time>2019-04-22T14:03:59.000Z</time>
      </trkpt>
      <trkpt lat="45.29504" lon="5.95485">
        <ele>393.67</ele>
        <time>2019-04-22T14:04:04.000Z</time>
      </trkpt>
      <trkpt lat="45.29518" lon="5.95496">
        <ele>395.69</ele>
        <time>2019-04-22T14:04:09.000Z</time>
      </trkpt>
      <trkpt lat="45.29536" lon="5.9551">
        <ele>398.63</ele>
        <time>2019-04-22T14:04:14.000Z</time>
      </trkpt>
      <trkpt lat="45.29551" lon="5.95525">
        <ele>400.93</ele>
        <time>2019-04-22T14:04:19.000Z</time>
      </trkpt>
      <trkpt lat="45.29568" lon="5.95539">
        <ele>400.27</ele>
        <time>2019-04-22T14:04:24.000Z</time>
      </trkpt>
      <trkpt lat="45.29582" lon="5.95555">
        <ele>401.67</ele>
        <time>2019-04-22T14:04:29.000Z</time>
      </trkpt>
      <trkpt lat="45.29597" lon="5.95572">
        <ele>400.9</ele>
        <time>2019-04-22T14:04:34.000Z</time>
      </trkpt>
      <trkpt lat="45.29613" lon="5.95587">
        <ele>404.41</ele>
        <time>2019-04-22T14:04:39.000Z</time>
      </trkpt>
      <trkpt lat="45.29627" lon="5.95605">
        <ele>404.88</ele>
        <time>2019-04-22T14:04:44.000Z</time>
      </trkpt>
      <trkpt lat="45.29642" lon="5.95621">
        <ele>407.98</ele>
        <time>2019-04-22T14:04:49.000Z</time>
      </trkpt>
      <trkpt lat="45.29651" lon="5.95641">
        <ele>412.31</ele>
        <time>2019-04-22T14:04:54.000Z</time>
      </trkpt>
      <trkpt lat="45.29656" lon="5.95667">
        <ele>412.51</ele>
        <time>2019-04-22T14:04:59.000Z</time>
      </trkpt>
      <trkpt lat="45.29656" lon="5.95695">
        <ele>416.4</ele>
        <time>2019-04-22T14:05:04.000Z</time>
      </trkpt>
      <trkpt lat="45.29661" lon="5.95722">
        <ele>418.64</ele>
        <time>2019-04-22T14:05:09.000Z</time>
      </trkpt>
      <trkpt lat="45.29677" lon="5.95743">
        <ele>421.13</ele>
        <time>2019-04-22T14:05:14.000Z</time>
      </trkpt>
      <trkpt lat="45.29694" lon="5.95756">
        <ele>423.24</ele>
        <time>2019-04-22T14:05:19.000Z</time>
      </trkpt>
      <trkpt lat="45.29707" lon="5.95769">
        <ele>422.19</ele>
        <time>2019-04-22T14:05:24.000Z</time>
      </trkpt>
      <trkpt lat="45.29726" lon="5.95777">
        <ele>420.65</ele>
        <time>2019-04-22T14:05:29.000Z</time>
      </trkpt>
      <trkpt lat="45.29745" lon="5.95788">
        <ele>421.33</ele>
        <time>2019-04-22T14:05:34.000Z</time>
      </trkpt>
      <trkpt lat="45.29765" lon="5.95797">
        <ele>423.44</ele>
        <time>2019-04-22T14:05:39.000Z</time>
      </trkpt>
      <trkpt lat="45.29783" lon="5.95808">
        <ele>427.44</ele>
        <time>2019-04-22T14:05:44.000Z</time>
      </trkpt>
      <trkpt lat="45.29789" lon="5.95836">
        <ele>427.5</ele>
        <time>2019-04-22T14:05:49.000Z</time>
      </trkpt>
      <trkpt lat="45.29769" lon="5.9583">
        <ele>426.3</ele>
        <time>2019-04-22T14:05:54.000Z</time>
      </trkpt>
      <trkpt lat="45.29749" lon="5.95814">
        <ele>425.58</ele>
        <time>2019-04-22T14:05:59.000Z</time>
      </trkpt>
      <trkpt lat="45.2973" lon="5.95801">
        <ele>425.7</ele>
        <time>2019-04-22T14:06:04.000Z</time>
      </trkpt>
      <trkpt lat="45.29709" lon="5.95806">
        <ele>427.77</ele>
        <time>2019-04-22T14:06:09.000Z</time>
      </trkpt>
      <trkpt lat="45.29684" lon="5.95824">
        <ele>431.11</ele>
        <time>2019-04-22T14:06:14.000Z</time>
      </trkpt>
      <trkpt lat="45.29661" lon="5.95816">
        <ele>432.75</ele>
        <time>2019-04-22T14:06:19.000Z</time>
      </trkpt>
      <trkpt lat="45.29647" lon="5.95801">
        <ele>434.63</ele>
        <time>2019-04-22T14:06:24.000Z</time>
      </trkpt>
      <trkpt lat="45.29631" lon="5.9579">
        <ele>436.39</ele>
        <time>2019-04-22T14:06:29.000Z</time>
      </trkpt>
      <trkpt lat="45.2962" lon="5.95775">
        <ele>440.59</ele>
        <time>2019-04-22T14:06:34.000Z</time>
      </trkpt>
      <trkpt lat="45.29612" lon="5.95762">
        <ele>442.28</ele>
        <time>2019-04-22T14:06:39.000Z</time>
      </trkpt>
      <trkpt lat="45.29601" lon="5.95748">
        <ele>439.84</ele>
        <time>2019-04-22T14:06:44.000Z</time>
      </trkpt>
      <trkpt lat="45.29584" lon="5.95735">
        <ele>442.02</ele>
        <time>2019-04-22T14:06:49.000Z</time>
      </trkpt>
      <trkpt lat="45.29561" lon="5.95725">
        <ele>448.44</ele>
        <time>2019-04-22T14:06:54.000Z</time>
      </trkpt>
      <trkpt lat="45.29535" lon="5.95717">
        <ele>454.65</ele>
        <time>2019-04-22T14:06:59.000Z</time>
      </trkpt>
      <trkpt lat="45.29515" lon="5.9571">
        <ele>456.93</ele>
        <time>2019-04-22T14:07:04.000Z</time>
      </trkpt>
      <trkpt lat="45.295" lon="5.95704">
        <ele>457.86</ele>
        <time>2019-04-22T14:07:09.000Z</time>
      </trkpt>
      <trkpt lat="45.2948" lon="5.95702">
        <ele>463.34</ele>
        <time>2019-04-22T14:07:14.000Z</time>
      </trkpt>
      <trkpt lat="45.29467" lon="5.95703">
        <ele>464.6</ele>
        <time>2019-04-22T14:07:19.000Z</time>
      </trkpt>
      <trkpt lat="45.2946" lon="5.9569">
        <ele>464.07</ele>
        <time>2019-04-22T14:07:26.000Z</time>
      </trkpt>
      <trkpt lat="45.29439" lon="5.95674">
        <ele>464.75</ele>
        <time>2019-04-22T14:07:31.000Z</time>
      </trkpt>
      <trkpt lat="45.29422" lon="5.9566">
        <ele>469.71</ele>
        <time>2019-04-22T14:07:36.000Z</time>
      </trkpt>
      <trkpt lat="45.29411" lon="5.95645">
        <ele>470.26</ele>
        <time>2019-04-22T14:07:41.000Z</time>
      </trkpt>
      <trkpt lat="45.29397" lon="5.95637">
        <ele>472.14</ele>
        <time>2019-04-22T14:07:46.000Z</time>
      </trkpt>
      <trkpt lat="45.29377" lon="5.95628">
        <ele>476.46</ele>
        <time>2019-04-22T14:07:51.000Z</time>
      </trkpt>
      <trkpt lat="45.29366" lon="5.9562">
        <ele>477.18</ele>
        <time>2019-04-22T14:07:56.000Z</time>
      </trkpt>
      <trkpt lat="45.29346" lon="5.95609">
        <ele>477.12</ele>
        <time>2019-04-22T14:08:01.000Z</time>
      </trkpt>
      <trkpt lat="45.29324" lon="5.95593">
        <ele>477.15</ele>
        <time>2019-04-22T14:08:06.000Z</time>
      </trkpt>
      <trkpt lat="45.2931" lon="5.95579">
        <ele>476.96</ele>
        <time>2019-04-22T14:08:11.000Z</time>
      </trkpt>
      <trkpt lat="45.29299" lon="5.95569">
        <ele>477.33</ele>
        <time>2019-04-22T14:08:16.000Z</time>
      </trkpt>
      <trkpt lat="45.29279" lon="5.95557">
        <ele>482.28</ele>
        <time>2019-04-22T14:08:21.000Z</time>
      </trkpt>
      <trkpt lat="45.29266" lon="5.95567">
        <ele>484.12</ele>
        <time>2019-04-22T14:08:26.000Z</time>
      </trkpt>
      <trkpt lat="45.29247" lon="5.95588">
        <ele>486.76</ele>
        <time>2019-04-22T14:08:31.000Z</time>
      </trkpt>
      <trkpt lat="45.29245" lon="5.95614">
        <ele>489.52</ele>
        <time>2019-04-22T14:08:36.000Z</time>
      </trkpt>
      <trkpt lat="45.29242" lon="5.95632">
        <ele>488.33</ele>
        <time>2019-04-22T14:08:41.000Z</time>
      </trkpt>
      <trkpt lat="45.29226" lon="5.95644">
        <ele>489.21</ele>
        <time>2019-04-22T14:08:46.000Z</time>
      </trkpt>
      <trkpt lat="45.29208" lon="5.9565">
        <ele>491.09</ele>
        <time>2019-04-22T14:08:51.000Z</time>
      </trkpt>
      <trkpt lat="45.29193" lon="5.95657">
        <ele>494.01</ele>
        <time>2019-04-22T14:08:56.000Z</time>
      </trkpt>
      <trkpt lat="45.29165" lon="5.95637">
        <ele>499.16</ele>
        <time>2019-04-22T14:09:01.000Z</time>
      </trkpt>
      <trkpt lat="45.29144" lon="5.95647">
        <ele>509.42</ele>
        <time>2019-04-22T14:09:06.000Z</time>
      </trkpt>
      <trkpt lat="45.29144" lon="5.95676">
        <ele>509.95</ele>
        <time>2019-04-22T14:09:11.000Z</time>
      </trkpt>
      <trkpt lat="45.2916" lon="5.95682">
        <ele>511.83</ele>
        <time>2019-04-22T14:09:16.000Z</time>
      </trkpt>
      <trkpt lat="45.29182" lon="5.95678">
        <ele>515.13</ele>
        <time>2019-04-22T14:09:21.000Z</time>
      </trkpt>
      <trkpt lat="45.29205" lon="5.95681">
        <ele>518.11</ele>
        <time>2019-04-22T14:09:26.000Z</time>
      </trkpt>
      <trkpt lat="45.29224" lon="5.95693">
        <ele>519.59</ele>
        <time>2019-04-22T14:09:31.000Z</time>
      </trkpt>
      <trkpt lat="45.29241" lon="5.95707">
        <ele>520.16</ele>
        <time>2019-04-22T14:09:36.000Z</time>
      </trkpt>
      <trkpt lat="45.29257" lon="5.95717">
        <ele>523.68</ele>
        <time>2019-04-22T14:09:41.000Z</time>
      </trkpt>
      <trkpt lat="45.29272" lon="5.95729">
        <ele>525.63</ele>
        <time>2019-04-22T14:09:46.000Z</time>
      </trkpt>
      <trkpt lat="45.29286" lon="5.95743">
        <ele>528.06</ele>
        <time>2019-04-22T14:09:51.000Z</time>
      </trkpt>
      <trkpt lat="45.29302" lon="5.95755">
        <ele>530.01</ele>
        <time>2019-04-22T14:09:56.000Z</time>
      </trkpt>
      <trkpt lat="45.29322" lon="5.95762">
        <ele>529.03</ele>
        <time>2019-04-22T14:10:01.000Z</time>
      </trkpt>
      <trkpt lat="45.29343" lon="5.95763">
        <ele>529.49</ele>
        <time>2019-04-22T14:10:06.000Z</time>
      </trkpt>
      <trkpt lat="45.29365" lon="5.95767">
        <ele>530.32</ele>
        <time>2019-04-22T14:10:11.000Z</time>
      </trkpt>
      <trkpt lat="45.29376" lon="5.95788">
        <ele>532.31</ele>
        <time>2019-04-22T14:10:16.000Z</time>
      </trkpt>
      <trkpt lat="45.29355" lon="5.95801">
        <ele>533.81</ele>
        <time>2019-04-22T14:10:21.000Z</time>
      </trkpt>
      <trkpt lat="45.29334" lon="5.95802">
        <ele>535.25</ele>
        <time>2019-04-22T14:10:26.000Z</time>
      </trkpt>
      <trkpt lat="45.29314" lon="5.95802">
        <ele>537.26</ele>
        <time>2019-04-22T14:10:31.000Z</time>
      </trkpt>
      <trkpt lat="45.29297" lon="5.95805">
        <ele>538.64</ele>
        <time>2019-04-22T14:10:36.000Z</time>
      </trkpt>
      <trkpt lat="45.2928" lon="5.95813">
        <ele>540.89</ele>
        <time>2019-04-22T14:10:41.000Z</time>
      </trkpt>
      <trkpt lat="45.29263" lon="5.95821">
        <ele>541.27</ele>
        <time>2019-04-22T14:10:46.000Z</time>
      </trkpt>
      <trkpt lat="45.29246" lon="5.95826">
        <ele>542.43</ele>
        <time>2019-04-22T14:10:51.000Z</time>
      </trkpt>
      <trkpt lat="45.29229" lon="5.95836">
        <ele>544.24</ele>
        <time>2019-04-22T14:10:56.000Z</time>
      </trkpt>
      <trkpt lat="45.29216" lon="5.95855">
        <ele>546.24</ele>
        <time>2019-04-22T14:11:01.000Z</time>
      </trkpt>
      <trkpt lat="45.29202" lon="5.95864">
        <ele>549.58</ele>
        <time>2019-04-22T14:11:06.000Z</time>
      </trkpt>
      <trkpt lat="45.29186" lon="5.95867">
        <ele>551.54</ele>
        <time>2019-04-22T14:11:11.000Z</time>
      </trkpt>
      <trkpt lat="45.29166" lon="5.95857">
        <ele>552.86</ele>
        <time>2019-04-22T14:11:16.000Z</time>
      </trkpt>
      <trkpt lat="45.29146" lon="5.95862">
        <ele>554.57</ele>
        <time>2019-04-22T14:11:21.000Z</time>
      </trkpt>
      <trkpt lat="45.29162" lon="5.95883">
        <ele>557.6</ele>
        <time>2019-04-22T14:11:26.000Z</time>
      </trkpt>
      <trkpt lat="45.29189" lon="5.95887">
        <ele>561.16</ele>
        <time>2019-04-22T14:11:31.000Z</time>
      </trkpt>
      <trkpt lat="45.29211" lon="5.95894">
        <ele>561.4</ele>
        <time>2019-04-22T14:11:36.000Z</time>
      </trkpt>
      <trkpt lat="45.29232" lon="5.95905">
        <ele>563.85</ele>
        <time>2019-04-22T14:11:41.000Z</time>
      </trkpt>
      <trkpt lat="45.29255" lon="5.9591">
        <ele>566.3</ele>
        <time>2019-04-22T14:11:46.000Z</time>
      </trkpt>
      <trkpt lat="45.29276" lon="5.95906">
        <ele>568.18</ele>
        <time>2019-04-22T14:11:51.000Z</time>
      </trkpt>
      <trkpt lat="45.29299" lon="5.95903">
        <ele>567.59</ele>
        <time>2019-04-22T14:11:56.000Z</time>
      </trkpt>
      <trkpt lat="45.29318" lon="5.95911">
        <ele>572.61</ele>
        <time>2019-04-22T14:12:01.000Z</time>
      </trkpt>
      <trkpt lat="45.29341" lon="5.95923">
        <ele>571.97</ele>
        <time>2019-04-22T14:12:06.000Z</time>
      </trkpt>
      <trkpt lat="45.2936" lon="5.9594">
        <ele>571.97</ele>
        <time>2019-04-22T14:12:11.000Z</time>
      </trkpt>
      <trkpt lat="45.29373" lon="5.95963">
        <ele>570.81</ele>
        <time>2019-04-22T14:12:16.000Z</time>
      </trkpt>
      <trkpt lat="45.29386" lon="5.9599">
        <ele>570.93</ele>
        <time>2019-04-22T14:12:21.000Z</time>
      </trkpt>
      <trkpt lat="45.29399" lon="5.96011">
        <ele>569.92</ele>
        <time>2019-04-22T14:12:26.000Z</time>
      </trkpt>
      <trkpt lat="45.29413" lon="5.96032">
        <ele>573.07</ele>
        <time>2019-04-22T14:12:31.000Z</time>
      </trkpt>
      <trkpt lat="45.29432" lon="5.96048">
        <ele>577.19</ele>
        <time>2019-04-22T14:12:36.000Z</time>
      </trkpt>
      <trkpt lat="45.29452" lon="5.96062">
        <ele>580.96</ele>
        <time>2019-04-22T14:12:41.000Z</time>
      </trkpt>
      <trkpt lat="45.29468" lon="5.9608">
        <ele>580.59</ele>
        <time>2019-04-22T14:12:46.000Z</time>
      </trkpt>
      <trkpt lat="45.29483" lon="5.961">
        <ele>581.31</ele>
        <time>2019-04-22T14:12:51.000Z</time>
      </trkpt>
      <trkpt lat="45.295" lon="5.96122">
        <ele>581.95</ele>
        <time>2019-04-22T14:12:56.000Z</time>
      </trkpt>
      <trkpt lat="45.29505" lon="5.96148">
        <ele>584.02</ele>
        <time>2019-04-22T14:13:01.000Z</time>
      </trkpt>
      <trkpt lat="45.29504" lon="5.96174">
        <ele>589.24</ele>
        <time>2019-04-22T14:13:06.000Z</time>
      </trkpt>
      <trkpt lat="45.29499" lon="5.96208">
        <ele>588.42</ele>
        <time>2019-04-22T14:13:11.000Z</time>
      </trkpt>
      <trkpt lat="45.29505" lon="5.96238">
        <ele>589.05</ele>
        <time>2019-04-22T14:13:16.000Z</time>
      </trkpt>
      <trkpt lat="45.2951" lon="5.96266">
        <ele>591.09</ele>
        <time>2019-04-22T14:13:21.000Z</time>
      </trkpt>
      <trkpt lat="45.29521" lon="5.96295">
        <ele>594.91</ele>
        <time>2019-04-22T14:13:26.000Z</time>
      </trkpt>
      <trkpt lat="45.29537" lon="5.96316">
        <ele>596.64</ele>
        <time>2019-04-22T14:13:31.000Z</time>
      </trkpt>
      <trkpt lat="45.29559" lon="5.96332">
        <ele>595.17</ele>
        <time>2019-04-22T14:13:36.000Z</time>
      </trkpt>
      <trkpt lat="45.29579" lon="5.96355">
        <ele>595.95</ele>
        <time>2019-04-22T14:13:41.000Z</time>
      </trkpt>
      <trkpt lat="45.29569" lon="5.96364">
        <ele>599.58</ele>
        <time>2019-04-22T14:13:46.000Z</time>
      </trkpt>
      <trkpt lat="45.29558" lon="5.96354">
        <ele>598.59</ele>
        <time>2019-04-22T14:13:51.000Z</time>
      </trkpt>
      <trkpt lat="45.29539" lon="5.96339">
        <ele>600.83</ele>
        <time>2019-04-22T14:13:56.000Z</time>
      </trkpt>
      <trkpt lat="45.29525" lon="5.96329">
        <ele>601.04</ele>
        <time>2019-04-22T14:14:01.000Z</time>
      </trkpt>
      <trkpt lat="45.29514" lon="5.96315">
        <ele>603.64</ele>
        <time>2019-04-22T14:14:06.000Z</time>
      </trkpt>
      <trkpt lat="45.29493" lon="5.96303">
        <ele>604.88</ele>
        <time>2019-04-22T14:14:11.000Z</time>
      </trkpt>
      <trkpt lat="45.29479" lon="5.96289">
        <ele>605.42</ele>
        <time>2019-04-22T14:14:16.000Z</time>
      </trkpt>
      <trkpt lat="45.2947" lon="5.96269">
        <ele>608.33</ele>
        <time>2019-04-22T14:14:21.000Z</time>
      </trkpt>
      <trkpt lat="45.29465" lon="5.96245">
        <ele>611.49</ele>
        <time>2019-04-22T14:14:26.000Z</time>
      </trkpt>
      <trkpt lat="45.29449" lon="5.96229">
        <ele>614.15</ele>
        <time>2019-04-22T14:14:31.000Z</time>
      </trkpt>
      <trkpt lat="45.29434" lon="5.96213">
        <ele>617.76</ele>
        <time>2019-04-22T14:14:36.000Z</time>
      </trkpt>
      <trkpt lat="45.29423" lon="5.96198">
        <ele>622.22</ele>
        <time>2019-04-22T14:14:41.000Z</time>
      </trkpt>
      <trkpt lat="45.29412" lon="5.96187">
        <ele>625.53</ele>
        <time>2019-04-22T14:14:46.000Z</time>
      </trkpt>
      <trkpt lat="45.29394" lon="5.96175">
        <ele>628.12</ele>
        <time>2019-04-22T14:14:51.000Z</time>
      </trkpt>
      <trkpt lat="45.29378" lon="5.96163">
        <ele>632.22</ele>
        <time>2019-04-22T14:14:56.000Z</time>
      </trkpt>
      <trkpt lat="45.29362" lon="5.96153">
        <ele>632.24</ele>
        <time>2019-04-22T14:15:01.000Z</time>
      </trkpt>
      <trkpt lat="45.29346" lon="5.96148">
        <ele>633.11</ele>
        <time>2019-04-22T14:15:06.000Z</time>
      </trkpt>
      <trkpt lat="45.29333" lon="5.96142">
        <ele>633.93</ele>
        <time>2019-04-22T14:15:11.000Z</time>
      </trkpt>
      <trkpt lat="45.29316" lon="5.96133">
        <ele>635.47</ele>
        <time>2019-04-22T14:15:16.000Z</time>
      </trkpt>
      <trkpt lat="45.29301" lon="5.96128">
        <ele>632.06</ele>
        <time>2019-04-22T14:15:21.000Z</time>
      </trkpt>
      <trkpt lat="45.29286" lon="5.96127">
        <ele>628.32</ele>
        <time>2019-04-22T14:15:26.000Z</time>
      </trkpt>
      <trkpt lat="45.2927" lon="5.96124">
        <ele>631.14</ele>
        <time>2019-04-22T14:15:31.000Z</time>
      </trkpt>
      <trkpt lat="45.29252" lon="5.96114">
        <ele>634.83</ele>
        <time>2019-04-22T14:15:36.000Z</time>
      </trkpt>
      <trkpt lat="45.29237" lon="5.96103">
        <ele>634.24</ele>
        <time>2019-04-22T14:15:41.000Z</time>
      </trkpt>
      <trkpt lat="45.29222" lon="5.96099">
        <ele>641.87</ele>
        <time>2019-04-22T14:15:46.000Z</time>
      </trkpt>
      <trkpt lat="45.29198" lon="5.96106">
        <ele>642.57</ele>
        <time>2019-04-22T14:15:51.000Z</time>
      </trkpt>
      <trkpt lat="45.2918" lon="5.96114">
        <ele>646.21</ele>
        <time>2019-04-22T14:15:56.000Z</time>
      </trkpt>
      <trkpt lat="45.2916" lon="5.96123">
        <ele>649.18</ele>
        <time>2019-04-22T14:16:01.000Z</time>
      </trkpt>
      <trkpt lat="45.29146" lon="5.96132">
        <ele>654.3</ele>
        <time>2019-04-22T14:16:06.000Z</time>
      </trkpt>
      <trkpt lat="45.29138" lon="5.9615">
        <ele>656.19</ele>
        <time>2019-04-22T14:16:11.000Z</time>
      </trkpt>
      <trkpt lat="45.29134" lon="5.96171">
        <ele>659.49</ele>
        <time>2019-04-22T14:16:16.000Z</time>
      </trkpt>
      <trkpt lat="45.29128" lon="5.96194">
        <ele>661.38</ele>
        <time>2019-04-22T14:16:21.000Z</time>
      </trkpt>
      <trkpt lat="45.2912" lon="5.96219">
        <ele>662.23</ele>
        <time>2019-04-22T14:16:26.000Z</time>
      </trkpt>
      <trkpt lat="45.29109" lon="5.96247">
        <ele>662.82</ele>
        <time>2019-04-22T14:16:31.000Z</time>
      </trkpt>
      <trkpt lat="45.29103" lon="5.96273">
        <ele>664.65</ele>
        <time>2019-04-22T14:16:36.000Z</time>
      </trkpt>
      <trkpt lat="45.29096" lon="5.963">
        <ele>664.87</ele>
        <time>2019-04-22T14:16:41.000Z</time>
      </trkpt>
      <trkpt lat="45.2909" lon="5.96321">
        <ele>667.99</ele>
        <time>2019-04-22T14:16:46.000Z</time>
      </trkpt>
      <trkpt lat="45.29082" lon="5.9634">
        <ele>668.76</ele>
        <time>2019-04-22T14:16:51.000Z</time>
      </trkpt>
      <trkpt lat="45.29074" lon="5.9636">
        <ele>672.67</ele>
        <time>2019-04-22T14:16:56.000Z</time>
      </trkpt>
      <trkpt lat="45.29064" lon="5.96391">
        <ele>673.86</ele>
        <time>2019-04-22T14:17:03.000Z</time>
      </trkpt>
      <trkpt lat="45.29055" lon="5.96412">
        <ele>676.46</ele>
        <time>2019-04-22T14:17:08.000Z</time>
      </trkpt>
      <trkpt lat="45.29034" lon="5.96444">
        <ele>679.62</ele>
        <time>2019-04-22T14:17:13.000Z</time>
      </trkpt>
      <trkpt lat="45.29027" lon="5.96467">
        <ele>682.29</ele>
        <time>2019-04-22T14:17:18.000Z</time>
      </trkpt>
      <trkpt lat="45.29022" lon="5.96492">
        <ele>682.25</ele>
        <time>2019-04-22T14:17:23.000Z</time>
      </trkpt>
      <trkpt lat="45.29015" lon="5.96518">
        <ele>683.75</ele>
        <time>2019-04-22T14:17:28.000Z</time>
      </trkpt>
      <trkpt lat="45.29007" lon="5.96543">
        <ele>688.18</ele>
        <time>2019-04-22T14:17:33.000Z</time>
      </trkpt>
      <trkpt lat="45.28994" lon="5.96568">
        <ele>689.36</ele>
        <time>2019-04-22T14:17:38.000Z</time>
      </trkpt>
      <trkpt lat="45.28982" lon="5.96592">
        <ele>688.81</ele>
        <time>2019-04-22T14:17:43.000Z</time>
      </trkpt>
      <trkpt lat="45.28978" lon="5.96614">
        <ele>689.11</ele>
        <time>2019-04-22T14:17:48.000Z</time>
      </trkpt>
      <trkpt lat="45.2897" lon="5.96639">
        <ele>691.16</ele>
        <time>2019-04-22T14:17:53.000Z</time>
      </trkpt>
      <trkpt lat="45.28965" lon="5.96657">
        <ele>691.87</ele>
        <time>2019-04-22T14:17:58.000Z</time>
      </trkpt>
      <trkpt lat="45.28963" lon="5.9667">
        <ele>693.09</ele>
        <time>2019-04-22T14:18:03.000Z</time>
      </trkpt>
      <trkpt lat="45.28958" lon="5.96685">
        <ele>686.99</ele>
        <time>2019-04-22T14:20:26.000Z</time>
      </trkpt>
      <trkpt lat="45.28949" lon="5.96712">
        <ele>684.27</ele>
        <time>2019-04-22T14:20:31.000Z</time>
      </trkpt>
      <trkpt lat="45.28934" lon="5.96737">
        <ele>698.93</ele>
        <time>2019-04-22T14:20:36.000Z</time>
      </trkpt>
      <trkpt lat="45.28925" lon="5.96762">
        <ele>698.91</ele>
        <time>2019-04-22T14:20:41.000Z</time>
      </trkpt>
      <trkpt lat="45.28919" lon="5.96788">
        <ele>700.72</ele>
        <time>2019-04-22T14:20:46.000Z</time>
      </trkpt>
      <trkpt lat="45.2891" lon="5.96818">
        <ele>703.35</ele>
        <time>2019-04-22T14:20:51.000Z</time>
      </trkpt>
      <trkpt lat="45.28903" lon="5.96843">
        <ele>705.05</ele>
        <time>2019-04-22T14:20:56.000Z</time>
      </trkpt>
      <trkpt lat="45.28894" lon="5.96873">
        <ele>704.46</ele>
        <time>2019-04-22T14:21:01.000Z</time>
      </trkpt>
      <trkpt lat="45.28887" lon="5.96903">
        <ele>704.56</ele>
        <time>2019-04-22T14:21:06.000Z</time>
      </trkpt>
      <trkpt lat="45.28875" lon="5.96923">
        <ele>706.41</ele>
        <time>2019-04-22T14:21:11.000Z</time>
      </trkpt>
      <trkpt lat="45.28851" lon="5.96931">
        <ele>708.31</ele>
        <time>2019-04-22T14:21:16.000Z</time>
      </trkpt>
      <trkpt lat="45.28828" lon="5.96939">
        <ele>709.32</ele>
        <time>2019-04-22T14:21:21.000Z</time>
      </trkpt>
      <trkpt lat="45.28811" lon="5.96949">
        <ele>711.45</ele>
        <time>2019-04-22T14:21:26.000Z</time>
      </trkpt>
      <trkpt lat="45.28794" lon="5.96951">
        <ele>711.95</ele>
        <time>2019-04-22T14:21:31.000Z</time>
      </trkpt>
      <trkpt lat="45.28772" lon="5.96949">
        <ele>711.98</ele>
        <time>2019-04-22T14:21:36.000Z</time>
      </trkpt>
      <trkpt lat="45.28747" lon="5.96942">
        <ele>710.4</ele>
        <time>2019-04-22T14:21:41.000Z</time>
      </trkpt>
      <trkpt lat="45.28725" lon="5.96932">
        <ele>716.27</ele>
        <time>2019-04-22T14:21:46.000Z</time>
      </trkpt>
      <trkpt lat="45.28717" lon="5.96952">
        <ele>718.57</ele>
        <time>2019-04-22T14:21:51.000Z</time>
      </trkpt>
      <trkpt lat="45.28734" lon="5.96962">
        <ele>720.58</ele>
        <time>2019-04-22T14:21:56.000Z</time>
      </trkpt>
      <trkpt lat="45.28752" lon="5.96976">
        <ele>721.33</ele>
        <time>2019-04-22T14:22:01.000Z</time>
      </trkpt>
      <trkpt lat="45.28766" lon="5.96995">
        <ele>723.88</ele>
        <time>2019-04-22T14:22:06.000Z</time>
      </trkpt>
      <trkpt lat="45.2877" lon="5.97027">
        <ele>724</ele>
        <time>2019-04-22T14:22:11.000Z</time>
      </trkpt>
      <trkpt lat="45.28771" lon="5.97053">
        <ele>724.67</ele>
        <time>2019-04-22T14:22:16.000Z</time>
      </trkpt>
      <trkpt lat="45.28776" lon="5.97076">
        <ele>724.7</ele>
        <time>2019-04-22T14:22:21.000Z</time>
      </trkpt>
      <trkpt lat="45.28783" lon="5.97092">
        <ele>730.01</ele>
        <time>2019-04-22T14:25:31.000Z</time>
      </trkpt>
      <trkpt lat="45.28796" lon="5.97119">
        <ele>734.1</ele>
        <time>2019-04-22T14:25:36.000Z</time>
      </trkpt>
      <trkpt lat="45.28809" lon="5.97145">
        <ele>733.15</ele>
        <time>2019-04-22T14:25:41.000Z</time>
      </trkpt>
      <trkpt lat="45.28827" lon="5.97169">
        <ele>734.38</ele>
        <time>2019-04-22T14:25:46.000Z</time>
      </trkpt>
      <trkpt lat="45.28841" lon="5.97192">
        <ele>735.28</ele>
        <time>2019-04-22T14:25:51.000Z</time>
      </trkpt>
      <trkpt lat="45.28853" lon="5.97213">
        <ele>742.11</ele>
        <time>2019-04-22T14:25:56.000Z</time>
      </trkpt>
      <trkpt lat="45.28867" lon="5.97234">
        <ele>743.66</ele>
        <time>2019-04-22T14:26:01.000Z</time>
      </trkpt>
      <trkpt lat="45.28882" lon="5.97254">
        <ele>744.78</ele>
        <time>2019-04-22T14:26:06.000Z</time>
      </trkpt>
      <trkpt lat="45.28895" lon="5.97275">
        <ele>745.95</ele>
        <time>2019-04-22T14:26:11.000Z</time>
      </trkpt>
      <trkpt lat="45.2891" lon="5.97296">
        <ele>746.39</ele>
        <time>2019-04-22T14:26:16.000Z</time>
      </trkpt>
      <trkpt lat="45.28914" lon="5.97319">
        <ele>750.92</ele>
        <time>2019-04-22T14:26:21.000Z</time>
      </trkpt>
      <trkpt lat="45.28896" lon="5.97316">
        <ele>751.44</ele>
        <time>2019-04-22T14:26:26.000Z</time>
      </trkpt>
      <trkpt lat="45.28879" lon="5.97304">
        <ele>752.86</ele>
        <time>2019-04-22T14:26:31.000Z</time>
      </trkpt>
      <trkpt lat="45.28862" lon="5.97294">
        <ele>752.26</ele>
        <time>2019-04-22T14:26:36.000Z</time>
      </trkpt>
      <trkpt lat="45.28846" lon="5.97286">
        <ele>754.69</ele>
        <time>2019-04-22T14:26:41.000Z</time>
      </trkpt>
      <trkpt lat="45.28825" lon="5.97277">
        <ele>756.5</ele>
        <time>2019-04-22T14:26:46.000Z</time>
      </trkpt>
      <trkpt lat="45.2881" lon="5.97265">
        <ele>756.2</ele>
        <time>2019-04-22T14:26:51.000Z</time>
      </trkpt>
      <trkpt lat="45.28794" lon="5.97249">
        <ele>752.06</ele>
        <time>2019-04-22T14:26:56.000Z</time>
      </trkpt>
      <trkpt lat="45.28773" lon="5.97235">
        <ele>747.74</ele>
        <time>2019-04-22T14:27:01.000Z</time>
      </trkpt>
      <trkpt lat="45.28756" lon="5.97218">
        <ele>750.63</ele>
        <time>2019-04-22T14:27:06.000Z</time>
      </trkpt>
      <trkpt lat="45.2874" lon="5.97202">
        <ele>754.91</ele>
        <time>2019-04-22T14:27:11.000Z</time>
      </trkpt>
      <trkpt lat="45.28723" lon="5.97184">
        <ele>755.91</ele>
        <time>2019-04-22T14:27:16.000Z</time>
      </trkpt>
      <trkpt lat="45.28707" lon="5.97164">
        <ele>759.03</ele>
        <time>2019-04-22T14:27:21.000Z</time>
      </trkpt>
      <trkpt lat="45.28689" lon="5.97149">
        <ele>761.79</ele>
        <time>2019-04-22T14:27:26.000Z</time>
      </trkpt>
      <trkpt lat="45.28671" lon="5.97137">
        <ele>761.07</ele>
        <time>2019-04-22T14:27:31.000Z</time>
      </trkpt>
      <trkpt lat="45.28656" lon="5.97145">
        <ele>762.47</ele>
        <time>2019-04-22T14:27:36.000Z</time>
      </trkpt>
      <trkpt lat="45.28669" lon="5.97166">
        <ele>764.89</ele>
        <time>2019-04-22T14:27:41.000Z</time>
      </trkpt>
      <trkpt lat="45.28688" lon="5.97178">
        <ele>767.38</ele>
        <time>2019-04-22T14:27:46.000Z</time>
      </trkpt>
      <trkpt lat="45.28703" lon="5.972">
        <ele>768.36</ele>
        <time>2019-04-22T14:27:51.000Z</time>
      </trkpt>
      <trkpt lat="45.28712" lon="5.97224">
        <ele>767.09</ele>
        <time>2019-04-22T14:27:56.000Z</time>
      </trkpt>
      <trkpt lat="45.28719" lon="5.97246">
        <ele>768.83</ele>
        <time>2019-04-22T14:28:01.000Z</time>
      </trkpt>
      <trkpt lat="45.28733" lon="5.97268">
        <ele>768.36</ele>
        <time>2019-04-22T14:28:06.000Z</time>
      </trkpt>
      <trkpt lat="45.2875" lon="5.9729">
        <ele>771.53</ele>
        <time>2019-04-22T14:28:11.000Z</time>
      </trkpt>
      <trkpt lat="45.28769" lon="5.97309">
        <ele>772.73</ele>
        <time>2019-04-22T14:28:16.000Z</time>
      </trkpt>
      <trkpt lat="45.28788" lon="5.97325">
        <ele>773.48</ele>
        <time>2019-04-22T14:28:21.000Z</time>
      </trkpt>
      <trkpt lat="45.28808" lon="5.97346">
        <ele>772.66</ele>
        <time>2019-04-22T14:28:26.000Z</time>
      </trkpt>
      <trkpt lat="45.28825" lon="5.97368">
        <ele>772.72</ele>
        <time>2019-04-22T14:28:31.000Z</time>
      </trkpt>
      <trkpt lat="45.28841" lon="5.97387">
        <ele>776.7</ele>
        <time>2019-04-22T14:28:36.000Z</time>
      </trkpt>
      <trkpt lat="45.28838" lon="5.97412">
        <ele>772.88</ele>
        <time>2019-04-22T14:28:41.000Z</time>
      </trkpt>
      <trkpt lat="45.28826" lon="5.97398">
        <ele>777.36</ele>
        <time>2019-04-22T14:28:46.000Z</time>
      </trkpt>
      <trkpt lat="45.28817" lon="5.97378">
        <ele>777.81</ele>
        <time>2019-04-22T14:28:51.000Z</time>
      </trkpt>
      <trkpt lat="45.28809" lon="5.97364">
        <ele>778.92</ele>
        <time>2019-04-22T14:28:56.000Z</time>
      </trkpt>
      <trkpt lat="45.28795" lon="5.97351">
        <ele>780.46</ele>
        <time>2019-04-22T14:29:01.000Z</time>
      </trkpt>
      <trkpt lat="45.28781" lon="5.97342">
        <ele>784.03</ele>
        <time>2019-04-22T14:29:06.000Z</time>
      </trkpt>
      <trkpt lat="45.2876" lon="5.97336">
        <ele>782.07</ele>
        <time>2019-04-22T14:29:11.000Z</time>
      </trkpt>
      <trkpt lat="45.28736" lon="5.97329">
        <ele>778.29</ele>
        <time>2019-04-22T14:29:16.000Z</time>
      </trkpt>
      <trkpt lat="45.28713" lon="5.97314">
        <ele>783.46</ele>
        <time>2019-04-22T14:29:21.000Z</time>
      </trkpt>
      <trkpt lat="45.28688" lon="5.97299">
        <ele>783.98</ele>
        <time>2019-04-22T14:29:26.000Z</time>
      </trkpt>
      <trkpt lat="45.28667" lon="5.97286">
        <ele>786.74</ele>
        <time>2019-04-22T14:29:31.000Z</time>
      </trkpt>
      <trkpt lat="45.28651" lon="5.97272">
        <ele>788.43</ele>
        <time>2019-04-22T14:29:36.000Z</time>
      </trkpt>
      <trkpt lat="45.28627" lon="5.97255">
        <ele>792.44</ele>
        <time>2019-04-22T14:29:41.000Z</time>
      </trkpt>
      <trkpt lat="45.28604" lon="5.97246">
        <ele>793.84</ele>
        <time>2019-04-22T14:29:46.000Z</time>
      </trkpt>
      <trkpt lat="45.28581" lon="5.97241">
        <ele>793.52</ele>
        <time>2019-04-22T14:29:51.000Z</time>
      </trkpt>
      <trkpt lat="45.28556" lon="5.97235">
        <ele>790.23</ele>
        <time>2019-04-22T14:29:56.000Z</time>
      </trkpt>
      <trkpt lat="45.28533" lon="5.97229">
        <ele>792.69</ele>
        <time>2019-04-22T14:30:01.000Z</time>
      </trkpt>
      <trkpt lat="45.28511" lon="5.97222">
        <ele>794.43</ele>
        <time>2019-04-22T14:30:06.000Z</time>
      </trkpt>
      <trkpt lat="45.28486" lon="5.97217">
        <ele>794.66</ele>
        <time>2019-04-22T14:30:11.000Z</time>
      </trkpt>
      <trkpt lat="45.2847" lon="5.97212">
        <ele>799.71</ele>
        <time>2019-04-22T14:30:16.000Z</time>
      </trkpt>
      <trkpt lat="45.28453" lon="5.97208">
        <ele>802.45</ele>
        <time>2019-04-22T14:30:21.000Z</time>
      </trkpt>
      <trkpt lat="45.28432" lon="5.9721">
        <ele>800.88</ele>
        <time>2019-04-22T14:30:26.000Z</time>
      </trkpt>
      <trkpt lat="45.28413" lon="5.97211">
        <ele>798.76</ele>
        <time>2019-04-22T14:30:31.000Z</time>
      </trkpt>
      <trkpt lat="45.28393" lon="5.97211">
        <ele>803.66</ele>
        <time>2019-04-22T14:30:36.000Z</time>
      </trkpt>
      <trkpt lat="45.28374" lon="5.97215">
        <ele>803.43</ele>
        <time>2019-04-22T14:30:41.000Z</time>
      </trkpt>
      <trkpt lat="45.28355" lon="5.9722">
        <ele>804.17</ele>
        <time>2019-04-22T14:30:46.000Z</time>
      </trkpt>
      <trkpt lat="45.28338" lon="5.97223">
        <ele>806.42</ele>
        <time>2019-04-22T14:30:51.000Z</time>
      </trkpt>
      <trkpt lat="45.28321" lon="5.97227">
        <ele>807.52</ele>
        <time>2019-04-22T14:30:56.000Z</time>
      </trkpt>
      <trkpt lat="45.28301" lon="5.97227">
        <ele>808.95</ele>
        <time>2019-04-22T14:31:01.000Z</time>
      </trkpt>
      <trkpt lat="45.28275" lon="5.97219">
        <ele>811.43</ele>
        <time>2019-04-22T14:31:06.000Z</time>
      </trkpt>
      <trkpt lat="45.28253" lon="5.97215">
        <ele>810.68</ele>
        <time>2019-04-22T14:31:11.000Z</time>
      </trkpt>
      <trkpt lat="45.2823" lon="5.97206">
        <ele>812.72</ele>
        <time>2019-04-22T14:31:16.000Z</time>
      </trkpt>
      <trkpt lat="45.28213" lon="5.97188">
        <ele>814.05</ele>
        <time>2019-04-22T14:31:21.000Z</time>
      </trkpt>
      <trkpt lat="45.28193" lon="5.97169">
        <ele>813.19</ele>
        <time>2019-04-22T14:31:26.000Z</time>
      </trkpt>
      <trkpt lat="45.28177" lon="5.97143">
        <ele>815.94</ele>
        <time>2019-04-22T14:31:31.000Z</time>
      </trkpt>
      <trkpt lat="45.28152" lon="5.9712">
        <ele>818.18</ele>
        <time>2019-04-22T14:31:36.000Z</time>
      </trkpt>
      <trkpt lat="45.28134" lon="5.97097">
        <ele>821.14</ele>
        <time>2019-04-22T14:31:41.000Z</time>
      </trkpt>
      <trkpt lat="45.28114" lon="5.97077">
        <ele>825.42</ele>
        <time>2019-04-22T14:31:46.000Z</time>
      </trkpt>
      <trkpt lat="45.2809" lon="5.97054">
        <ele>831.32</ele>
        <time>2019-04-22T14:31:51.000Z</time>
      </trkpt>
      <trkpt lat="45.2807" lon="5.9703">
        <ele>834.81</ele>
        <time>2019-04-22T14:31:56.000Z</time>
      </trkpt>
      <trkpt lat="45.28053" lon="5.97001">
        <ele>836.67</ele>
        <time>2019-04-22T14:32:01.000Z</time>
      </trkpt>
      <trkpt lat="45.28037" lon="5.96972">
        <ele>839.65</ele>
        <time>2019-04-22T14:32:06.000Z</time>
      </trkpt>
      <trkpt lat="45.28017" lon="5.96944">
        <ele>838.19</ele>
        <time>2019-04-22T14:32:11.000Z</time>
      </trkpt>
      <trkpt lat="45.27999" lon="5.9692">
        <ele>842.02</ele>
        <time>2019-04-22T14:32:16.000Z</time>
      </trkpt>
      <trkpt lat="45.27977" lon="5.96898">
        <ele>844.78</ele>
        <time>2019-04-22T14:32:21.000Z</time>
      </trkpt>
      <trkpt lat="45.27956" lon="5.96874">
        <ele>847.65</ele>
        <time>2019-04-22T14:32:26.000Z</time>
      </trkpt>
      <trkpt lat="45.27936" lon="5.96855">
        <ele>849.93</ele>
        <time>2019-04-22T14:32:31.000Z</time>
      </trkpt>
      <trkpt lat="45.27918" lon="5.96833">
        <ele>850.15</ele>
        <time>2019-04-22T14:32:36.000Z</time>
      </trkpt>
      <trkpt lat="45.27901" lon="5.96814">
        <ele>851.89</ele>
        <time>2019-04-22T14:32:41.000Z</time>
      </trkpt>
      <trkpt lat="45.27881" lon="5.96789">
        <ele>852.8</ele>
        <time>2019-04-22T14:32:46.000Z</time>
      </trkpt>
      <trkpt lat="45.27867" lon="5.96762">
        <ele>854.52</ele>
        <time>2019-04-22T14:32:51.000Z</time>
      </trkpt>
      <trkpt lat="45.27854" lon="5.9673">
        <ele>860.78</ele>
        <time>2019-04-22T14:32:56.000Z</time>
      </trkpt>
      <trkpt lat="45.27838" lon="5.96691">
        <ele>857.52</ele>
        <time>2019-04-22T14:33:01.000Z</time>
      </trkpt>
      <trkpt lat="45.27823" lon="5.96658">
        <ele>857.43</ele>
        <time>2019-04-22T14:33:06.000Z</time>
      </trkpt>
      <trkpt lat="45.27803" lon="5.96629">
        <ele>857.11</ele>
        <time>2019-04-22T14:33:11.000Z</time>
      </trkpt>
      <trkpt lat="45.27781" lon="5.96606">
        <ele>856.4</ele>
        <time>2019-04-22T14:33:16.000Z</time>
      </trkpt>
      <trkpt lat="45.27759" lon="5.96583">
        <ele>856.2</ele>
        <time>2019-04-22T14:33:21.000Z</time>
      </trkpt>
      <trkpt lat="45.27741" lon="5.96557">
        <ele>860.24</ele>
        <time>2019-04-22T14:33:26.000Z</time>
      </trkpt>
      <trkpt lat="45.27727" lon="5.9654">
        <ele>863.6</ele>
        <time>2019-04-22T14:33:31.000Z</time>
      </trkpt>
      <trkpt lat="45.27716" lon="5.96521">
        <ele>864.03</ele>
        <time>2019-04-22T14:33:36.000Z</time>
      </trkpt>
      <trkpt lat="45.27707" lon="5.96511">
        <ele>874.62</ele>
        <time>2019-04-22T14:36:14.000Z</time>
      </trkpt>
      <trkpt lat="45.27685" lon="5.96513">
        <ele>876.31</ele>
        <time>2019-04-22T14:36:19.000Z</time>
      </trkpt>
      <trkpt lat="45.27655" lon="5.96504">
        <ele>876.21</ele>
        <time>2019-04-22T14:36:24.000Z</time>
      </trkpt>
      <trkpt lat="45.2762" lon="5.96479">
        <ele>874.23</ele>
        <time>2019-04-22T14:36:29.000Z</time>
      </trkpt>
      <trkpt lat="45.27584" lon="5.96442">
        <ele>872.56</ele>
        <time>2019-04-22T14:36:34.000Z</time>
      </trkpt>
      <trkpt lat="45.27539" lon="5.96402">
        <ele>874.78</ele>
        <time>2019-04-22T14:36:39.000Z</time>
      </trkpt>
      <trkpt lat="45.27499" lon="5.96371">
        <ele>875.74</ele>
        <time>2019-04-22T14:36:44.000Z</time>
      </trkpt>
      <trkpt lat="45.27462" lon="5.96324">
        <ele>874.9</ele>
        <time>2019-04-22T14:36:49.000Z</time>
      </trkpt>
      <trkpt lat="45.2745" lon="5.96268">
        <ele>860.1</ele>
        <time>2019-04-22T14:36:54.000Z</time>
      </trkpt>
      <trkpt lat="45.27435" lon="5.96277">
        <ele>852.71</ele>
        <time>2019-04-22T14:36:59.000Z</time>
      </trkpt>
      <trkpt lat="45.27435" lon="5.96316">
        <ele>849.49</ele>
        <time>2019-04-22T14:37:04.000Z</time>
      </trkpt>
      <trkpt lat="45.27433" lon="5.96364">
        <ele>848.18</ele>
        <time>2019-04-22T14:37:09.000Z</time>
      </trkpt>
      <trkpt lat="45.27446" lon="5.96422">
        <ele>847.06</ele>
        <time>2019-04-22T14:37:14.000Z</time>
      </trkpt>
      <trkpt lat="45.27461" lon="5.9647">
        <ele>844.9</ele>
        <time>2019-04-22T14:37:19.000Z</time>
      </trkpt>
      <trkpt lat="45.27441" lon="5.96508">
        <ele>847.11</ele>
        <time>2019-04-22T14:37:24.000Z</time>
      </trkpt>
      <trkpt lat="45.27406" lon="5.96557">
        <ele>846.16</ele>
        <time>2019-04-22T14:37:29.000Z</time>
      </trkpt>
      <trkpt lat="45.27376" lon="5.96603">
        <ele>830.43</ele>
        <time>2019-04-22T14:37:34.000Z</time>
      </trkpt>
      <trkpt lat="45.27342" lon="5.96649">
        <ele>827.81</ele>
        <time>2019-04-22T14:37:39.000Z</time>
      </trkpt>
      <trkpt lat="45.27313" lon="5.9669">
        <ele>822.33</ele>
        <time>2019-04-22T14:37:44.000Z</time>
      </trkpt>
      <trkpt lat="45.27289" lon="5.9673">
        <ele>821.78</ele>
        <time>2019-04-22T14:37:49.000Z</time>
      </trkpt>
      <trkpt lat="45.27269" lon="5.96761">
        <ele>815.31</ele>
        <time>2019-04-22T14:37:54.000Z</time>
      </trkpt>
      <trkpt lat="45.27275" lon="5.96772">
        <ele>812.23</ele>
        <time>2019-04-22T14:38:09.000Z</time>
      </trkpt>
      <trkpt lat="45.27268" lon="5.96781">
        <ele>815.72</ele>
        <time>2019-04-22T14:38:28.000Z</time>
      </trkpt>
      <trkpt lat="45.27265" lon="5.96808">
        <ele>805.12</ele>
        <time>2019-04-22T14:38:33.000Z</time>
      </trkpt>
      <trkpt lat="45.27261" lon="5.96835">
        <ele>802.38</ele>
        <time>2019-04-22T14:38:38.000Z</time>
      </trkpt>
      <trkpt lat="45.27255" lon="5.96864">
        <ele>800.63</ele>
        <time>2019-04-22T14:38:43.000Z</time>
      </trkpt>
      <trkpt lat="45.2725" lon="5.96888">
        <ele>804.63</ele>
        <time>2019-04-22T14:38:48.000Z</time>
      </trkpt>
      <trkpt lat="45.27247" lon="5.96915">
        <ele>807.19</ele>
        <time>2019-04-22T14:38:53.000Z</time>
      </trkpt>
      <trkpt lat="45.27244" lon="5.96942">
        <ele>808.7</ele>
        <time>2019-04-22T14:38:58.000Z</time>
      </trkpt>
      <trkpt lat="45.27243" lon="5.96971">
        <ele>807.23</ele>
        <time>2019-04-22T14:39:03.000Z</time>
      </trkpt>
      <trkpt lat="45.27238" lon="5.96998">
        <ele>806.53</ele>
        <time>2019-04-22T14:39:08.000Z</time>
      </trkpt>
      <trkpt lat="45.27238" lon="5.97025">
        <ele>807.93</ele>
        <time>2019-04-22T14:39:13.000Z</time>
      </trkpt>
      <trkpt lat="45.27239" lon="5.9705">
        <ele>811.84</ele>
        <time>2019-04-22T14:39:18.000Z</time>
      </trkpt>
      <trkpt lat="45.27239" lon="5.97076">
        <ele>812.52</ele>
        <time>2019-04-22T14:39:23.000Z</time>
      </trkpt>
      <trkpt lat="45.27239" lon="5.97101">
        <ele>817.22</ele>
        <time>2019-04-22T14:39:28.000Z</time>
      </trkpt>
      <trkpt lat="45.27236" lon="5.97126">
        <ele>819.62</ele>
        <time>2019-04-22T14:39:33.000Z</time>
      </trkpt>
      <trkpt lat="45.27236" lon="5.97155">
        <ele>820.89</ele>
        <time>2019-04-22T14:39:38.000Z</time>
      </trkpt>
      <trkpt lat="45.27237" lon="5.97182">
        <ele>821.42</ele>
        <time>2019-04-22T14:39:43.000Z</time>
      </trkpt>
      <trkpt lat="45.27237" lon="5.97211">
        <ele>823.01</ele>
        <time>2019-04-22T14:39:48.000Z</time>
      </trkpt>
      <trkpt lat="45.27236" lon="5.97243">
        <ele>822.58</ele>
        <time>2019-04-22T14:39:53.000Z</time>
      </trkpt>
      <trkpt lat="45.27233" lon="5.97274">
        <ele>823.08</ele>
        <time>2019-04-22T14:39:58.000Z</time>
      </trkpt>
      <trkpt lat="45.2723" lon="5.97304">
        <ele>821.9</ele>
        <time>2019-04-22T14:40:03.000Z</time>
      </trkpt>
      <trkpt lat="45.2723" lon="5.97332">
        <ele>823.83</ele>
        <time>2019-04-22T14:40:08.000Z</time>
      </trkpt>
      <trkpt lat="45.27229" lon="5.9736">
        <ele>827.57</ele>
        <time>2019-04-22T14:40:13.000Z</time>
      </trkpt>
      <trkpt lat="45.27227" lon="5.97387">
        <ele>827.94</ele>
        <time>2019-04-22T14:40:18.000Z</time>
      </trkpt>
      <trkpt lat="45.27223" lon="5.97416">
        <ele>827.7</ele>
        <time>2019-04-22T14:40:23.000Z</time>
      </trkpt>
      <trkpt lat="45.27225" lon="5.97441">
        <ele>828.68</ele>
        <time>2019-04-22T14:40:28.000Z</time>
      </trkpt>
      <trkpt lat="45.27233" lon="5.97462">
        <ele>829.93</ele>
        <time>2019-04-22T14:40:33.000Z</time>
      </trkpt>
      <trkpt lat="45.27242" lon="5.97489">
        <ele>831.97</ele>
        <time>2019-04-22T14:40:38.000Z</time>
      </trkpt>
      <trkpt lat="45.27243" lon="5.97515">
        <ele>833.46</ele>
        <time>2019-04-22T14:40:43.000Z</time>
      </trkpt>
      <trkpt lat="45.27244" lon="5.97546">
        <ele>835.93</ele>
        <time>2019-04-22T14:40:48.000Z</time>
      </trkpt>
      <trkpt lat="45.27244" lon="5.97575">
        <ele>837.12</ele>
        <time>2019-04-22T14:40:53.000Z</time>
      </trkpt>
      <trkpt lat="45.27251" lon="5.97602">
        <ele>840.42</ele>
        <time>2019-04-22T14:40:58.000Z</time>
      </trkpt>
      <trkpt lat="45.27257" lon="5.97627">
        <ele>843.83</ele>
        <time>2019-04-22T14:41:03.000Z</time>
      </trkpt>
      <trkpt lat="45.2726" lon="5.97655">
        <ele>846.25</ele>
        <time>2019-04-22T14:41:08.000Z</time>
      </trkpt>
      <trkpt lat="45.27266" lon="5.97686">
        <ele>849.12</ele>
        <time>2019-04-22T14:41:13.000Z</time>
      </trkpt>
      <trkpt lat="45.27271" lon="5.97715">
        <ele>852.99</ele>
        <time>2019-04-22T14:41:18.000Z</time>
      </trkpt>
      <trkpt lat="45.27274" lon="5.97741">
        <ele>856.53</ele>
        <time>2019-04-22T14:41:23.000Z</time>
      </trkpt>
      <trkpt lat="45.27274" lon="5.97767">
        <ele>857.87</ele>
        <time>2019-04-22T14:41:28.000Z</time>
      </trkpt>
      <trkpt lat="45.27277" lon="5.97792">
        <ele>861.18</ele>
        <time>2019-04-22T14:41:33.000Z</time>
      </trkpt>
      <trkpt lat="45.2728" lon="5.97825">
        <ele>859.07</ele>
        <time>2019-04-22T14:41:38.000Z</time>
      </trkpt>
      <trkpt lat="45.27276" lon="5.97857">
        <ele>857.14</ele>
        <time>2019-04-22T14:41:43.000Z</time>
      </trkpt>
      <trkpt lat="45.27272" lon="5.97884">
        <ele>859.9</ele>
        <time>2019-04-22T14:41:48.000Z</time>
      </trkpt>
      <trkpt lat="45.2727" lon="5.9791">
        <ele>865.47</ele>
        <time>2019-04-22T14:41:53.000Z</time>
      </trkpt>
      <trkpt lat="45.27261" lon="5.9794">
        <ele>865.64</ele>
        <time>2019-04-22T14:41:58.000Z</time>
      </trkpt>
      <trkpt lat="45.27248" lon="5.97972">
        <ele>865.23</ele>
        <time>2019-04-22T14:42:03.000Z</time>
      </trkpt>
      <trkpt lat="45.27232" lon="5.98001">
        <ele>865.48</ele>
        <time>2019-04-22T14:42:08.000Z</time>
      </trkpt>
      <trkpt lat="45.27214" lon="5.98025">
        <ele>867.68</ele>
        <time>2019-04-22T14:42:13.000Z</time>
      </trkpt>
      <trkpt lat="45.2719" lon="5.98043">
        <ele>867.57</ele>
        <time>2019-04-22T14:42:18.000Z</time>
      </trkpt>
      <trkpt lat="45.27168" lon="5.98064">
        <ele>867.25</ele>
        <time>2019-04-22T14:42:23.000Z</time>
      </trkpt>
      <trkpt lat="45.27147" lon="5.9809">
        <ele>866.57</ele>
        <time>2019-04-22T14:42:28.000Z</time>
      </trkpt>
      <trkpt lat="45.2713" lon="5.98115">
        <ele>864.48</ele>
        <time>2019-04-22T14:42:33.000Z</time>
      </trkpt>
      <trkpt lat="45.27114" lon="5.98132">
        <ele>862.72</ele>
        <time>2019-04-22T14:42:38.000Z</time>
      </trkpt>
      <trkpt lat="45.27095" lon="5.98151">
        <ele>863.92</ele>
        <time>2019-04-22T14:42:43.000Z</time>
      </trkpt>
      <trkpt lat="45.27083" lon="5.98175">
        <ele>862.39</ele>
        <time>2019-04-22T14:42:48.000Z</time>
      </trkpt>
      <trkpt lat="45.27077" lon="5.98203">
        <ele>860.42</ele>
        <time>2019-04-22T14:42:53.000Z</time>
      </trkpt>
      <trkpt lat="45.27084" lon="5.98236">
        <ele>862.19</ele>
        <time>2019-04-22T14:42:58.000Z</time>
      </trkpt>
      <trkpt lat="45.27103" lon="5.98251">
        <ele>873.62</ele>
        <time>2019-04-22T14:43:03.000Z</time>
      </trkpt>
      <trkpt lat="45.27121" lon="5.98261">
        <ele>877.48</ele>
        <time>2019-04-22T14:43:08.000Z</time>
      </trkpt>
      <trkpt lat="45.27138" lon="5.98268">
        <ele>879.35</ele>
        <time>2019-04-22T14:43:13.000Z</time>
      </trkpt>
      <trkpt lat="45.27137" lon="5.98292">
        <ele>879.71</ele>
        <time>2019-04-22T14:43:18.000Z</time>
      </trkpt>
      <trkpt lat="45.2712" lon="5.98304">
        <ele>882.01</ele>
        <time>2019-04-22T14:43:23.000Z</time>
      </trkpt>
      <trkpt lat="45.27102" lon="5.98305">
        <ele>887.83</ele>
        <time>2019-04-22T14:43:28.000Z</time>
      </trkpt>
      <trkpt lat="45.27082" lon="5.98298">
        <ele>889.66</ele>
        <time>2019-04-22T14:43:33.000Z</time>
      </trkpt>
      <trkpt lat="45.27065" lon="5.98299">
        <ele>883.94</ele>
        <time>2019-04-22T14:43:38.000Z</time>
      </trkpt>
      <trkpt lat="45.27055" lon="5.98297">
        <ele>898.27</ele>
        <time>2019-04-22T14:44:40.000Z</time>
      </trkpt>
      <trkpt lat="45.27044" lon="5.98303">
        <ele>895.69</ele>
        <time>2019-04-22T14:45:01.000Z</time>
      </trkpt>
      <trkpt lat="45.27023" lon="5.98319">
        <ele>893.7</ele>
        <time>2019-04-22T14:45:06.000Z</time>
      </trkpt>
      <trkpt lat="45.27007" lon="5.98346">
        <ele>894.04</ele>
        <time>2019-04-22T14:45:11.000Z</time>
      </trkpt>
      <trkpt lat="45.26975" lon="5.98371">
        <ele>890.78</ele>
        <time>2019-04-22T14:45:16.000Z</time>
      </trkpt>
      <trkpt lat="45.26945" lon="5.98394">
        <ele>890.65</ele>
        <time>2019-04-22T14:45:21.000Z</time>
      </trkpt>
      <trkpt lat="45.26906" lon="5.98401">
        <ele>889.28</ele>
        <time>2019-04-22T14:45:26.000Z</time>
      </trkpt>
      <trkpt lat="45.26868" lon="5.98381">
        <ele>889.02</ele>
        <time>2019-04-22T14:45:31.000Z</time>
      </trkpt>
      <trkpt lat="45.26835" lon="5.98357">
        <ele>888.44</ele>
        <time>2019-04-22T14:45:36.000Z</time>
      </trkpt>
      <trkpt lat="45.26795" lon="5.98366">
        <ele>887.5</ele>
        <time>2019-04-22T14:45:41.000Z</time>
      </trkpt>
      <trkpt lat="45.26765" lon="5.98418">
        <ele>885.3</ele>
        <time>2019-04-22T14:45:46.000Z</time>
      </trkpt>
      <trkpt lat="45.26729" lon="5.98445">
        <ele>884.38</ele>
        <time>2019-04-22T14:45:51.000Z</time>
      </trkpt>
      <trkpt lat="45.26728" lon="5.98386">
        <ele>889.36</ele>
        <time>2019-04-22T14:45:56.000Z</time>
      </trkpt>
      <trkpt lat="45.26728" lon="5.9836">
        <ele>885.55</ele>
        <time>2019-04-22T14:46:01.000Z</time>
      </trkpt>
      <trkpt lat="45.26728" lon="5.98325">
        <ele>882.82</ele>
        <time>2019-04-22T14:46:06.000Z</time>
      </trkpt>
      <trkpt lat="45.26732" lon="5.98297">
        <ele>887.04</ele>
        <time>2019-04-22T14:46:11.000Z</time>
      </trkpt>
      <trkpt lat="45.26734" lon="5.98262">
        <ele>885.46</ele>
        <time>2019-04-22T14:46:16.000Z</time>
      </trkpt>
      <trkpt lat="45.26736" lon="5.98225">
        <ele>881.5</ele>
        <time>2019-04-22T14:46:21.000Z</time>
      </trkpt>
      <trkpt lat="45.26732" lon="5.98199">
        <ele>885.06</ele>
        <time>2019-04-22T14:46:26.000Z</time>
      </trkpt>
      <trkpt lat="45.2672" lon="5.9817">
        <ele>886.8</ele>
        <time>2019-04-22T14:46:31.000Z</time>
      </trkpt>
      <trkpt lat="45.26699" lon="5.98139">
        <ele>884.86</ele>
        <time>2019-04-22T14:46:36.000Z</time>
      </trkpt>
      <trkpt lat="45.2667" lon="5.98104">
        <ele>879.48</ele>
        <time>2019-04-22T14:46:41.000Z</time>
      </trkpt>
      <trkpt lat="45.26662" lon="5.98054">
        <ele>876.68</ele>
        <time>2019-04-22T14:46:46.000Z</time>
      </trkpt>
      <trkpt lat="45.26661" lon="5.97995">
        <ele>877.8</ele>
        <time>2019-04-22T14:46:51.000Z</time>
      </trkpt>
      <trkpt lat="45.26639" lon="5.97948">
        <ele>882.25</ele>
        <time>2019-04-22T14:46:56.000Z</time>
      </trkpt>
      <trkpt lat="45.26605" lon="5.97906">
        <ele>878.17</ele>
        <time>2019-04-22T14:47:01.000Z</time>
      </trkpt>
      <trkpt lat="45.26575" lon="5.97877">
        <ele>877.23</ele>
        <time>2019-04-22T14:47:06.000Z</time>
      </trkpt>
      <trkpt lat="45.26552" lon="5.9786">
        <ele>878.21</ele>
        <time>2019-04-22T14:47:11.000Z</time>
      </trkpt>
      <trkpt lat="45.26531" lon="5.97853">
        <ele>879.07</ele>
        <time>2019-04-22T14:47:16.000Z</time>
      </trkpt>
      <trkpt lat="45.26508" lon="5.97838">
        <ele>880.03</ele>
        <time>2019-04-22T14:47:21.000Z</time>
      </trkpt>
      <trkpt lat="45.26484" lon="5.97824">
        <ele>879.26</ele>
        <time>2019-04-22T14:47:26.000Z</time>
      </trkpt>
      <trkpt lat="45.26458" lon="5.97818">
        <ele>880.32</ele>
        <time>2019-04-22T14:47:31.000Z</time>
      </trkpt>
      <trkpt lat="45.26433" lon="5.97823">
        <ele>881.04</ele>
        <time>2019-04-22T14:47:36.000Z</time>
      </trkpt>
      <trkpt lat="45.26414" lon="5.9783">
        <ele>882.87</ele>
        <time>2019-04-22T14:47:41.000Z</time>
      </trkpt>
      <trkpt lat="45.26392" lon="5.97841">
        <ele>887.61</ele>
        <time>2019-04-22T14:47:46.000Z</time>
      </trkpt>
      <trkpt lat="45.26373" lon="5.97855">
        <ele>889.18</ele>
        <time>2019-04-22T14:47:51.000Z</time>
      </trkpt>
      <trkpt lat="45.26356" lon="5.97863">
        <ele>890.06</ele>
        <time>2019-04-22T14:47:56.000Z</time>
      </trkpt>
      <trkpt lat="45.26338" lon="5.97867">
        <ele>890.89</ele>
        <time>2019-04-22T14:48:01.000Z</time>
      </trkpt>
      <trkpt lat="45.26318" lon="5.97876">
        <ele>890.18</ele>
        <time>2019-04-22T14:48:06.000Z</time>
      </trkpt>
      <trkpt lat="45.26296" lon="5.97873">
        <ele>890.51</ele>
        <time>2019-04-22T14:48:11.000Z</time>
      </trkpt>
      <trkpt lat="45.26273" lon="5.97868">
        <ele>890.55</ele>
        <time>2019-04-22T14:48:16.000Z</time>
      </trkpt>
      <trkpt lat="45.26253" lon="5.97863">
        <ele>892.98</ele>
        <time>2019-04-22T14:48:21.000Z</time>
      </trkpt>
      <trkpt lat="45.2623" lon="5.97857">
        <ele>891.18</ele>
        <time>2019-04-22T14:48:26.000Z</time>
      </trkpt>
      <trkpt lat="45.26205" lon="5.97847">
        <ele>892.01</ele>
        <time>2019-04-22T14:48:31.000Z</time>
      </trkpt>
      <trkpt lat="45.26185" lon="5.97842">
        <ele>896.05</ele>
        <time>2019-04-22T14:48:36.000Z</time>
      </trkpt>
      <trkpt lat="45.26161" lon="5.97841">
        <ele>900.42</ele>
        <time>2019-04-22T14:48:41.000Z</time>
      </trkpt>
      <trkpt lat="45.26142" lon="5.97841">
        <ele>902.02</ele>
        <time>2019-04-22T14:48:46.000Z</time>
      </trkpt>
      <trkpt lat="45.26123" lon="5.97838">
        <ele>903.68</ele>
        <time>2019-04-22T14:48:51.000Z</time>
      </trkpt>
      <trkpt lat="45.26102" lon="5.97836">
        <ele>906.99</ele>
        <time>2019-04-22T14:48:56.000Z</time>
      </trkpt>
      <trkpt lat="45.26081" lon="5.97833">
        <ele>910.32</ele>
        <time>2019-04-22T14:49:01.000Z</time>
      </trkpt>
      <trkpt lat="45.26063" lon="5.9783">
        <ele>913.17</ele>
        <time>2019-04-22T14:49:06.000Z</time>
      </trkpt>
      <trkpt lat="45.2604" lon="5.97828">
        <ele>910.01</ele>
        <time>2019-04-22T14:49:11.000Z</time>
      </trkpt>
      <trkpt lat="45.26019" lon="5.97825">
        <ele>911.69</ele>
        <time>2019-04-22T14:49:16.000Z</time>
      </trkpt>
      <trkpt lat="45.25996" lon="5.97817">
        <ele>911.07</ele>
        <time>2019-04-22T14:49:21.000Z</time>
      </trkpt>
      <trkpt lat="45.25974" lon="5.97802">
        <ele>913.33</ele>
        <time>2019-04-22T14:49:26.000Z</time>
      </trkpt>
      <trkpt lat="45.25957" lon="5.97781">
        <ele>914.41</ele>
        <time>2019-04-22T14:49:31.000Z</time>
      </trkpt>
      <trkpt lat="45.25943" lon="5.97765">
        <ele>915.8</ele>
        <time>2019-04-22T14:49:36.000Z</time>
      </trkpt>
      <trkpt lat="45.25922" lon="5.97747">
        <ele>918.58</ele>
        <time>2019-04-22T14:49:41.000Z</time>
      </trkpt>
      <trkpt lat="45.25908" lon="5.97728">
        <ele>916.2</ele>
        <time>2019-04-22T14:49:46.000Z</time>
      </trkpt>
      <trkpt lat="45.25886" lon="5.97709">
        <ele>922.69</ele>
        <time>2019-04-22T14:49:51.000Z</time>
      </trkpt>
      <trkpt lat="45.25864" lon="5.97692">
        <ele>926.31</ele>
        <time>2019-04-22T14:49:56.000Z</time>
      </trkpt>
      <trkpt lat="45.25841" lon="5.97676">
        <ele>925.71</ele>
        <time>2019-04-22T14:50:01.000Z</time>
      </trkpt>
      <trkpt lat="45.25821" lon="5.9766">
        <ele>930.45</ele>
        <time>2019-04-22T14:50:06.000Z</time>
      </trkpt>
      <trkpt lat="45.25799" lon="5.97646">
        <ele>931.47</ele>
        <time>2019-04-22T14:50:11.000Z</time>
      </trkpt>
      <trkpt lat="45.25778" lon="5.9763">
        <ele>932.62</ele>
        <time>2019-04-22T14:50:16.000Z</time>
      </trkpt>
      <trkpt lat="45.25761" lon="5.97615">
        <ele>932.66</ele>
        <time>2019-04-22T14:50:21.000Z</time>
      </trkpt>
      <trkpt lat="45.25743" lon="5.97605">
        <ele>934.29</ele>
        <time>2019-04-22T14:50:26.000Z</time>
      </trkpt>
      <trkpt lat="45.25725" lon="5.97591">
        <ele>935.15</ele>
        <time>2019-04-22T14:50:31.000Z</time>
      </trkpt>
      <trkpt lat="45.25705" lon="5.97576">
        <ele>936</ele>
        <time>2019-04-22T14:50:36.000Z</time>
      </trkpt>
      <trkpt lat="45.25687" lon="5.97564">
        <ele>936.73</ele>
        <time>2019-04-22T14:50:41.000Z</time>
      </trkpt>
      <trkpt lat="45.25666" lon="5.97544">
        <ele>938.06</ele>
        <time>2019-04-22T14:50:46.000Z</time>
      </trkpt>
      <trkpt lat="45.25647" lon="5.97519">
        <ele>939.21</ele>
        <time>2019-04-22T14:50:51.000Z</time>
      </trkpt>
      <trkpt lat="45.25638" lon="5.97497">
        <ele>942.48</ele>
        <time>2019-04-22T14:50:56.000Z</time>
      </trkpt>
      <trkpt lat="45.25627" lon="5.9747">
        <ele>945.43</ele>
        <time>2019-04-22T14:51:01.000Z</time>
      </trkpt>
      <trkpt lat="45.25614" lon="5.97439">
        <ele>951.08</ele>
        <time>2019-04-22T14:51:06.000Z</time>
      </trkpt>
      <trkpt lat="45.256" lon="5.97408">
        <ele>949.34</ele>
        <time>2019-04-22T14:51:11.000Z</time>
      </trkpt>
      <trkpt lat="45.25593" lon="5.97381">
        <ele>947.52</ele>
        <time>2019-04-22T14:51:16.000Z</time>
      </trkpt>
      <trkpt lat="45.25587" lon="5.97354">
        <ele>955.41</ele>
        <time>2019-04-22T14:51:21.000Z</time>
      </trkpt>
      <trkpt lat="45.2558" lon="5.97327">
        <ele>961.49</ele>
        <time>2019-04-22T14:51:26.000Z</time>
      </trkpt>
      <trkpt lat="45.25571" lon="5.97301">
        <ele>960.3</ele>
        <time>2019-04-22T14:51:31.000Z</time>
      </trkpt>
      <trkpt lat="45.25564" lon="5.97274">
        <ele>964.02</ele>
        <time>2019-04-22T14:51:36.000Z</time>
      </trkpt>
      <trkpt lat="45.25562" lon="5.97244">
        <ele>967.09</ele>
        <time>2019-04-22T14:51:41.000Z</time>
      </trkpt>
      <trkpt lat="45.25561" lon="5.9721">
        <ele>966.75</ele>
        <time>2019-04-22T14:51:46.000Z</time>
      </trkpt>
      <trkpt lat="45.25558" lon="5.97179">
        <ele>965.7</ele>
        <time>2019-04-22T14:51:51.000Z</time>
      </trkpt>
      <trkpt lat="45.25556" lon="5.97148">
        <ele>967.43</ele>
        <time>2019-04-22T14:51:56.000Z</time>
      </trkpt>
      <trkpt lat="45.25551" lon="5.97114">
        <ele>968.25</ele>
        <time>2019-04-22T14:52:01.000Z</time>
      </trkpt>
      <trkpt lat="45.25541" lon="5.97088">
        <ele>971.07</ele>
        <time>2019-04-22T14:52:06.000Z</time>
      </trkpt>
      <trkpt lat="45.25525" lon="5.97069">
        <ele>975.2</ele>
        <time>2019-04-22T14:52:11.000Z</time>
      </trkpt>
      <trkpt lat="45.25506" lon="5.97057">
        <ele>975.44</ele>
        <time>2019-04-22T14:52:16.000Z</time>
      </trkpt>
      <trkpt lat="45.25497" lon="5.97046">
        <ele>976.42</ele>
        <time>2019-04-22T14:52:21.000Z</time>
      </trkpt>
      <trkpt lat="45.25488" lon="5.97041">
        <ele>978.5</ele>
        <time>2019-04-22T14:54:48.000Z</time>
      </trkpt>
      <trkpt lat="45.25477" lon="5.97023">
        <ele>975.69</ele>
        <time>2019-04-22T14:54:53.000Z</time>
      </trkpt>
      <trkpt lat="45.2546" lon="5.97004">
        <ele>976.67</ele>
        <time>2019-04-22T14:54:58.000Z</time>
      </trkpt>
      <trkpt lat="45.25443" lon="5.96992">
        <ele>975.98</ele>
        <time>2019-04-22T14:55:03.000Z</time>
      </trkpt>
      <trkpt lat="45.25428" lon="5.96983">
        <ele>974.54</ele>
        <time>2019-04-22T14:55:08.000Z</time>
      </trkpt>
      <trkpt lat="45.25407" lon="5.96977">
        <ele>973.43</ele>
        <time>2019-04-22T14:55:13.000Z</time>
      </trkpt>
      <trkpt lat="45.25384" lon="5.96973">
        <ele>967.54</ele>
        <time>2019-04-22T14:55:18.000Z</time>
      </trkpt>
      <trkpt lat="45.25363" lon="5.96973">
        <ele>973.05</ele>
        <time>2019-04-22T14:55:23.000Z</time>
      </trkpt>
      <trkpt lat="45.25344" lon="5.96971">
        <ele>977.64</ele>
        <time>2019-04-22T14:55:28.000Z</time>
      </trkpt>
      <trkpt lat="45.25325" lon="5.96965">
        <ele>978.78</ele>
        <time>2019-04-22T14:55:33.000Z</time>
      </trkpt>
      <trkpt lat="45.25304" lon="5.96963">
        <ele>975.97</ele>
        <time>2019-04-22T14:55:38.000Z</time>
      </trkpt>
      <trkpt lat="45.25283" lon="5.96964">
        <ele>979.74</ele>
        <time>2019-04-22T14:55:43.000Z</time>
      </trkpt>
      <trkpt lat="45.25266" lon="5.96964">
        <ele>979.23</ele>
        <time>2019-04-22T14:55:48.000Z</time>
      </trkpt>
      <trkpt lat="45.2525" lon="5.96967">
        <ele>980.53</ele>
        <time>2019-04-22T14:55:53.000Z</time>
      </trkpt>
      <trkpt lat="45.25232" lon="5.96968">
        <ele>981.98</ele>
        <time>2019-04-22T14:55:58.000Z</time>
      </trkpt>
      <trkpt lat="45.25214" lon="5.96977">
        <ele>982.93</ele>
        <time>2019-04-22T14:56:03.000Z</time>
      </trkpt>
      <trkpt lat="45.252" lon="5.97">
        <ele>982.24</ele>
        <time>2019-04-22T14:56:08.000Z</time>
      </trkpt>
      <trkpt lat="45.25188" lon="5.97032">
        <ele>982.7</ele>
        <time>2019-04-22T14:56:13.000Z</time>
      </trkpt>
      <trkpt lat="45.25166" lon="5.97025">
        <ele>984.05</ele>
        <time>2019-04-22T14:56:18.000Z</time>
      </trkpt>
      <trkpt lat="45.25149" lon="5.97027">
        <ele>982.06</ele>
        <time>2019-04-22T14:56:23.000Z</time>
      </trkpt>
      <trkpt lat="45.2513" lon="5.9704">
        <ele>982.69</ele>
        <time>2019-04-22T14:56:28.000Z</time>
      </trkpt>
      <trkpt lat="45.25111" lon="5.97052">
        <ele>980.74</ele>
        <time>2019-04-22T14:56:33.000Z</time>
      </trkpt>
      <trkpt lat="45.25094" lon="5.9707">
        <ele>984.12</ele>
        <time>2019-04-22T14:56:38.000Z</time>
      </trkpt>
      <trkpt lat="45.25082" lon="5.97093">
        <ele>986.4</ele>
        <time>2019-04-22T14:56:43.000Z</time>
      </trkpt>
      <trkpt lat="45.25075" lon="5.97123">
        <ele>983.93</ele>
        <time>2019-04-22T14:56:48.000Z</time>
      </trkpt>
      <trkpt lat="45.2507" lon="5.97157">
        <ele>987.79</ele>
        <time>2019-04-22T14:56:53.000Z</time>
      </trkpt>
      <trkpt lat="45.25065" lon="5.97178">
        <ele>990.1</ele>
        <time>2019-04-22T14:56:58.000Z</time>
      </trkpt>
      <trkpt lat="45.25061" lon="5.97194">
        <ele>990.64</ele>
        <time>2019-04-22T14:57:03.000Z</time>
      </trkpt>
      <trkpt lat="45.2505" lon="5.97218">
        <ele>988.51</ele>
        <time>2019-04-22T14:57:08.000Z</time>
      </trkpt>
      <trkpt lat="45.25019" lon="5.97235">
        <ele>989.61</ele>
        <time>2019-04-22T14:57:13.000Z</time>
      </trkpt>
      <trkpt lat="45.24985" lon="5.9724">
        <ele>989.52</ele>
        <time>2019-04-22T14:57:18.000Z</time>
      </trkpt>
      <trkpt lat="45.24947" lon="5.97239">
        <ele>986.4</ele>
        <time>2019-04-22T14:57:23.000Z</time>
      </trkpt>
      <trkpt lat="45.2491" lon="5.97241">
        <ele>986.95</ele>
        <time>2019-04-22T14:57:28.000Z</time>
      </trkpt>
      <trkpt lat="45.24867" lon="5.97249">
        <ele>985.01</ele>
        <time>2019-04-22T14:57:33.000Z</time>
      </trkpt>
      <trkpt lat="45.24819" lon="5.97264">
        <ele>982.03</ele>
        <time>2019-04-22T14:57:38.000Z</time>
      </trkpt>
      <trkpt lat="45.24767" lon="5.97268">
        <ele>976.86</ele>
        <time>2019-04-22T14:57:43.000Z</time>
      </trkpt>
      <trkpt lat="45.2471" lon="5.97266">
        <ele>973.33</ele>
        <time>2019-04-22T14:57:48.000Z</time>
      </trkpt>
      <trkpt lat="45.2465" lon="5.97275">
        <ele>972.36</ele>
        <time>2019-04-22T14:57:53.000Z</time>
      </trkpt>
      <trkpt lat="45.24592" lon="5.97287">
        <ele>970.3</ele>
        <time>2019-04-22T14:57:58.000Z</time>
      </trkpt>
      <trkpt lat="45.24541" lon="5.97288">
        <ele>965.39</ele>
        <time>2019-04-22T14:58:03.000Z</time>
      </trkpt>
      <trkpt lat="45.24498" lon="5.97326">
        <ele>961.64</ele>
        <time>2019-04-22T14:58:08.000Z</time>
      </trkpt>
      <trkpt lat="45.24442" lon="5.97337">
        <ele>956.79</ele>
        <time>2019-04-22T14:58:13.000Z</time>
      </trkpt>
      <trkpt lat="45.24397" lon="5.97349">
        <ele>951.63</ele>
        <time>2019-04-22T14:58:18.000Z</time>
      </trkpt>
      <trkpt lat="45.2436" lon="5.97409">
        <ele>946.59</ele>
        <time>2019-04-22T14:58:23.000Z</time>
      </trkpt>
      <trkpt lat="45.24306" lon="5.97437">
        <ele>943.68</ele>
        <time>2019-04-22T14:58:28.000Z</time>
      </trkpt>
      <trkpt lat="45.24251" lon="5.97441">
        <ele>938.72</ele>
        <time>2019-04-22T14:58:33.000Z</time>
      </trkpt>
      <trkpt lat="45.24195" lon="5.97471">
        <ele>936.45</ele>
        <time>2019-04-22T14:58:38.000Z</time>
      </trkpt>
      <trkpt lat="45.24138" lon="5.97496">
        <ele>931.35</ele>
        <time>2019-04-22T14:58:43.000Z</time>
      </trkpt>
      <trkpt lat="45.24075" lon="5.97512">
        <ele>923.01</ele>
        <time>2019-04-22T14:58:48.000Z</time>
      </trkpt>
      <trkpt lat="45.24018" lon="5.97479">
        <ele>916.72</ele>
        <time>2019-04-22T14:58:53.000Z</time>
      </trkpt>
      <trkpt lat="45.23996" lon="5.97407">
        <ele>911.61</ele>
        <time>2019-04-22T14:58:58.000Z</time>
      </trkpt>
      <trkpt lat="45.23996" lon="5.97346">
        <ele>908.65</ele>
        <time>2019-04-22T14:59:03.000Z</time>
      </trkpt>
      <trkpt lat="45.23959" lon="5.97349">
        <ele>906.19</ele>
        <time>2019-04-22T14:59:08.000Z</time>
      </trkpt>
      <trkpt lat="45.23932" lon="5.97359">
        <ele>901.52</ele>
        <time>2019-04-22T14:59:13.000Z</time>
      </trkpt>
      <trkpt lat="45.23906" lon="5.97368">
        <ele>898.99</ele>
        <time>2019-04-22T14:59:18.000Z</time>
      </trkpt>
      <trkpt lat="45.23884" lon="5.97374">
        <ele>896.99</ele>
        <time>2019-04-22T14:59:23.000Z</time>
      </trkpt>
      <trkpt lat="45.23859" lon="5.97384">
        <ele>896.87</ele>
        <time>2019-04-22T14:59:28.000Z</time>
      </trkpt>
      <trkpt lat="45.23836" lon="5.97375">
        <ele>898.61</ele>
        <time>2019-04-22T14:59:33.000Z</time>
      </trkpt>
      <trkpt lat="45.23815" lon="5.97365">
        <ele>899.83</ele>
        <time>2019-04-22T14:59:38.000Z</time>
      </trkpt>
      <trkpt lat="45.23798" lon="5.97355">
        <ele>898.56</ele>
        <time>2019-04-22T14:59:43.000Z</time>
      </trkpt>
      <trkpt lat="45.2378" lon="5.97345">
        <ele>900.33</ele>
        <time>2019-04-22T14:59:48.000Z</time>
      </trkpt>
      <trkpt lat="45.23761" lon="5.97334">
        <ele>906.06</ele>
        <time>2019-04-22T14:59:53.000Z</time>
      </trkpt>
      <trkpt lat="45.23741" lon="5.97319">
        <ele>911.99</ele>
        <time>2019-04-22T14:59:58.000Z</time>
      </trkpt>
      <trkpt lat="45.2372" lon="5.97303">
        <ele>912.77</ele>
        <time>2019-04-22T15:00:03.000Z</time>
      </trkpt>
      <trkpt lat="45.23705" lon="5.97277">
        <ele>907.04</ele>
        <time>2019-04-22T15:00:08.000Z</time>
      </trkpt>
      <trkpt lat="45.23701" lon="5.97245">
        <ele>911.15</ele>
        <time>2019-04-22T15:00:13.000Z</time>
      </trkpt>
      <trkpt lat="45.23706" lon="5.97214">
        <ele>914.38</ele>
        <time>2019-04-22T15:00:18.000Z</time>
      </trkpt>
      <trkpt lat="45.23713" lon="5.9718">
        <ele>918.71</ele>
        <time>2019-04-22T15:00:23.000Z</time>
      </trkpt>
      <trkpt lat="45.23725" lon="5.9715">
        <ele>919.02</ele>
        <time>2019-04-22T15:00:28.000Z</time>
      </trkpt>
      <trkpt lat="45.23739" lon="5.97115">
        <ele>919.39</ele>
        <time>2019-04-22T15:00:33.000Z</time>
      </trkpt>
      <trkpt lat="45.23749" lon="5.97079">
        <ele>924.55</ele>
        <time>2019-04-22T15:00:38.000Z</time>
      </trkpt>
      <trkpt lat="45.23762" lon="5.97044">
        <ele>922.33</ele>
        <time>2019-04-22T15:00:43.000Z</time>
      </trkpt>
      <trkpt lat="45.23776" lon="5.97014">
        <ele>918.93</ele>
        <time>2019-04-22T15:00:48.000Z</time>
      </trkpt>
      <trkpt lat="45.23793" lon="5.96984">
        <ele>922.15</ele>
        <time>2019-04-22T15:00:53.000Z</time>
      </trkpt>
      <trkpt lat="45.23801" lon="5.96954">
        <ele>926.18</ele>
        <time>2019-04-22T15:00:58.000Z</time>
      </trkpt>
      <trkpt lat="45.23811" lon="5.96926">
        <ele>927.63</ele>
        <time>2019-04-22T15:01:03.000Z</time>
      </trkpt>
      <trkpt lat="45.2382" lon="5.96897">
        <ele>930.24</ele>
        <time>2019-04-22T15:01:08.000Z</time>
      </trkpt>
      <trkpt lat="45.23827" lon="5.96866">
        <ele>927.6</ele>
        <time>2019-04-22T15:01:13.000Z</time>
      </trkpt>
      <trkpt lat="45.23832" lon="5.96832">
        <ele>928.18</ele>
        <time>2019-04-22T15:01:18.000Z</time>
      </trkpt>
      <trkpt lat="45.23837" lon="5.96797">
        <ele>928.11</ele>
        <time>2019-04-22T15:01:23.000Z</time>
      </trkpt>
      <trkpt lat="45.23847" lon="5.96767">
        <ele>930.96</ele>
        <time>2019-04-22T15:01:28.000Z</time>
      </trkpt>
      <trkpt lat="45.23863" lon="5.96745">
        <ele>933.05</ele>
        <time>2019-04-22T15:01:33.000Z</time>
      </trkpt>
      <trkpt lat="45.23878" lon="5.96732">
        <ele>936.8</ele>
        <time>2019-04-22T15:01:38.000Z</time>
      </trkpt>
      <trkpt lat="45.23893" lon="5.9672">
        <ele>935.32</ele>
        <time>2019-04-22T15:01:43.000Z</time>
      </trkpt>
      <trkpt lat="45.23909" lon="5.96701">
        <ele>940.21</ele>
        <time>2019-04-22T15:01:48.000Z</time>
      </trkpt>
      <trkpt lat="45.23924" lon="5.96679">
        <ele>940.89</ele>
        <time>2019-04-22T15:01:53.000Z</time>
      </trkpt>
      <trkpt lat="45.23932" lon="5.96652">
        <ele>943.77</ele>
        <time>2019-04-22T15:01:58.000Z</time>
      </trkpt>
      <trkpt lat="45.23937" lon="5.96622">
        <ele>941.76</ele>
        <time>2019-04-22T15:02:03.000Z</time>
      </trkpt>
      <trkpt lat="45.23937" lon="5.96594">
        <ele>942.54</ele>
        <time>2019-04-22T15:02:08.000Z</time>
      </trkpt>
      <trkpt lat="45.23937" lon="5.96562">
        <ele>946.67</ele>
        <time>2019-04-22T15:02:13.000Z</time>
      </trkpt>
      <trkpt lat="45.23941" lon="5.96535">
        <ele>950.08</ele>
        <time>2019-04-22T15:02:18.000Z</time>
      </trkpt>
      <trkpt lat="45.23952" lon="5.96511">
        <ele>952.6</ele>
        <time>2019-04-22T15:02:23.000Z</time>
      </trkpt>
      <trkpt lat="45.23964" lon="5.96486">
        <ele>955.32</ele>
        <time>2019-04-22T15:02:28.000Z</time>
      </trkpt>
      <trkpt lat="45.23973" lon="5.96461">
        <ele>955.8</ele>
        <time>2019-04-22T15:02:33.000Z</time>
      </trkpt>
      <trkpt lat="45.23979" lon="5.96433">
        <ele>957.78</ele>
        <time>2019-04-22T15:02:38.000Z</time>
      </trkpt>
      <trkpt lat="45.23976" lon="5.96403">
        <ele>958.84</ele>
        <time>2019-04-22T15:02:43.000Z</time>
      </trkpt>
      <trkpt lat="45.23974" lon="5.96371">
        <ele>961.98</ele>
        <time>2019-04-22T15:02:48.000Z</time>
      </trkpt>
      <trkpt lat="45.23972" lon="5.9634">
        <ele>963.95</ele>
        <time>2019-04-22T15:02:53.000Z</time>
      </trkpt>
      <trkpt lat="45.23977" lon="5.96315">
        <ele>967.27</ele>
        <time>2019-04-22T15:02:58.000Z</time>
      </trkpt>
      <trkpt lat="45.23985" lon="5.96282">
        <ele>970.39</ele>
        <time>2019-04-22T15:03:03.000Z</time>
      </trkpt>
      <trkpt lat="45.23991" lon="5.96252">
        <ele>972.25</ele>
        <time>2019-04-22T15:03:08.000Z</time>
      </trkpt>
      <trkpt lat="45.23998" lon="5.96222">
        <ele>974.05</ele>
        <time>2019-04-22T15:03:13.000Z</time>
      </trkpt>
      <trkpt lat="45.24008" lon="5.96197">
        <ele>975.14</ele>
        <time>2019-04-22T15:03:18.000Z</time>
      </trkpt>
      <trkpt lat="45.2402" lon="5.96171">
        <ele>973.94</ele>
        <time>2019-04-22T15:03:23.000Z</time>
      </trkpt>
      <trkpt lat="45.24039" lon="5.96142">
        <ele>976.86</ele>
        <time>2019-04-22T15:03:28.000Z</time>
      </trkpt>
      <trkpt lat="45.24052" lon="5.9611">
        <ele>976.33</ele>
        <time>2019-04-22T15:03:33.000Z</time>
      </trkpt>
      <trkpt lat="45.24057" lon="5.96076">
        <ele>978.39</ele>
        <time>2019-04-22T15:03:38.000Z</time>
      </trkpt>
      <trkpt lat="45.24063" lon="5.96045">
        <ele>979.68</ele>
        <time>2019-04-22T15:03:43.000Z</time>
      </trkpt>
      <trkpt lat="45.24072" lon="5.96021">
        <ele>979.12</ele>
        <time>2019-04-22T15:03:48.000Z</time>
      </trkpt>
      <trkpt lat="45.24082" lon="5.96002">
        <ele>985.39</ele>
        <time>2019-04-22T15:03:53.000Z</time>
      </trkpt>
      <trkpt lat="45.24094" lon="5.95978">
        <ele>990.24</ele>
        <time>2019-04-22T15:03:58.000Z</time>
      </trkpt>
      <trkpt lat="45.24109" lon="5.95948">
        <ele>990.58</ele>
        <time>2019-04-22T15:04:03.000Z</time>
      </trkpt>
      <trkpt lat="45.2411" lon="5.95921">
        <ele>995.02</ele>
        <time>2019-04-22T15:04:08.000Z</time>
      </trkpt>
      <trkpt lat="45.24115" lon="5.95895">
        <ele>995.19</ele>
        <time>2019-04-22T15:04:13.000Z</time>
      </trkpt>
      <trkpt lat="45.24123" lon="5.95868">
        <ele>997.92</ele>
        <time>2019-04-22T15:04:18.000Z</time>
      </trkpt>
      <trkpt lat="45.24127" lon="5.95836">
        <ele>1004.55</ele>
        <time>2019-04-22T15:04:23.000Z</time>
      </trkpt>
      <trkpt lat="45.24128" lon="5.95796">
        <ele>1002.13</ele>
        <time>2019-04-22T15:04:28.000Z</time>
      </trkpt>
      <trkpt lat="45.24133" lon="5.9575">
        <ele>997.34</ele>
        <time>2019-04-22T15:04:33.000Z</time>
      </trkpt>
      <trkpt lat="45.24144" lon="5.95712">
        <ele>996.04</ele>
        <time>2019-04-22T15:04:38.000Z</time>
      </trkpt>
      <trkpt lat="45.24152" lon="5.95675">
        <ele>996.18</ele>
        <time>2019-04-22T15:04:43.000Z</time>
      </trkpt>
      <trkpt lat="45.24152" lon="5.95635">
        <ele>994.45</ele>
        <time>2019-04-22T15:04:48.000Z</time>
      </trkpt>
      <trkpt lat="45.24148" lon="5.95595">
        <ele>995.52</ele>
        <time>2019-04-22T15:04:53.000Z</time>
      </trkpt>
      <trkpt lat="45.24135" lon="5.95559">
        <ele>996.79</ele>
        <time>2019-04-22T15:04:58.000Z</time>
      </trkpt>
      <trkpt lat="45.24117" lon="5.95535">
        <ele>1000</ele>
        <time>2019-04-22T15:05:03.000Z</time>
      </trkpt>
      <trkpt lat="45.24095" lon="5.95513">
        <ele>1001.93</ele>
        <time>2019-04-22T15:05:08.000Z</time>
      </trkpt>
      <trkpt lat="45.24084" lon="5.95488">
        <ele>1002.08</ele>
        <time>2019-04-22T15:05:13.000Z</time>
      </trkpt>
      <trkpt lat="45.24081" lon="5.95466">
        <ele>1003.77</ele>
        <time>2019-04-22T15:05:18.000Z</time>
      </trkpt>
      <trkpt lat="45.24076" lon="5.95446">
        <ele>1007.17</ele>
        <time>2019-04-22T15:05:23.000Z</time>
      </trkpt>
      <trkpt lat="45.24071" lon="5.95419">
        <ele>1011.88</ele>
        <time>2019-04-22T15:05:28.000Z</time>
      </trkpt>
      <trkpt lat="45.24061" lon="5.95382">
        <ele>1013.48</ele>
        <time>2019-04-22T15:05:33.000Z</time>
      </trkpt>
      <trkpt lat="45.24042" lon="5.95339">
        <ele>1014.45</ele>
        <time>2019-04-22T15:05:38.000Z</time>
      </trkpt>
      <trkpt lat="45.24035" lon="5.95313">
        <ele>1013.66</ele>
        <time>2019-04-22T15:05:43.000Z</time>
      </trkpt>
      <trkpt lat="45.24029" lon="5.95293">
        <ele>1020.29</ele>
        <time>2019-04-22T15:05:48.000Z</time>
      </trkpt>
      <trkpt lat="45.24019" lon="5.9527">
        <ele>1021.79</ele>
        <time>2019-04-22T15:05:53.000Z</time>
      </trkpt>
      <trkpt lat="45.23999" lon="5.95233">
        <ele>1018.42</ele>
        <time>2019-04-22T15:05:58.000Z</time>
      </trkpt>
      <trkpt lat="45.2398" lon="5.95203">
        <ele>1020.94</ele>
        <time>2019-04-22T15:06:03.000Z</time>
      </trkpt>
      <trkpt lat="45.23965" lon="5.95181">
        <ele>1020.89</ele>
        <time>2019-04-22T15:06:08.000Z</time>
      </trkpt>
      <trkpt lat="45.23953" lon="5.9517">
        <ele>1022.78</ele>
        <time>2019-04-22T15:06:13.000Z</time>
      </trkpt>
      <trkpt lat="45.23946" lon="5.95162">
        <ele>1022.88</ele>
        <time>2019-04-22T15:06:25.000Z</time>
      </trkpt>
      <trkpt lat="45.23939" lon="5.95149">
        <ele>1022.02</ele>
        <time>2019-04-22T15:08:06.000Z</time>
      </trkpt>
      <trkpt lat="45.23933" lon="5.95129">
        <ele>1022.85</ele>
        <time>2019-04-22T15:08:11.000Z</time>
      </trkpt>
      <trkpt lat="45.23922" lon="5.95108">
        <ele>1023.7</ele>
        <time>2019-04-22T15:08:16.000Z</time>
      </trkpt>
      <trkpt lat="45.23915" lon="5.95085">
        <ele>1025.7</ele>
        <time>2019-04-22T15:08:21.000Z</time>
      </trkpt>
      <trkpt lat="45.23897" lon="5.95048">
        <ele>1029.35</ele>
        <time>2019-04-22T15:08:26.000Z</time>
      </trkpt>
      <trkpt lat="45.23872" lon="5.94995">
        <ele>1026.43</ele>
        <time>2019-04-22T15:08:31.000Z</time>
      </trkpt>
      <trkpt lat="45.23846" lon="5.94937">
        <ele>1021</ele>
        <time>2019-04-22T15:08:36.000Z</time>
      </trkpt>
      <trkpt lat="45.23838" lon="5.94862">
        <ele>1018.92</ele>
        <time>2019-04-22T15:08:41.000Z</time>
      </trkpt>
      <trkpt lat="45.23833" lon="5.94784">
        <ele>1021.26</ele>
        <time>2019-04-22T15:08:46.000Z</time>
      </trkpt>
      <trkpt lat="45.23803" lon="5.94703">
        <ele>1019.33</ele>
        <time>2019-04-22T15:08:51.000Z</time>
      </trkpt>
      <trkpt lat="45.23773" lon="5.94614">
        <ele>1011.76</ele>
        <time>2019-04-22T15:08:56.000Z</time>
      </trkpt>
      <trkpt lat="45.23744" lon="5.94526">
        <ele>1002.42</ele>
        <time>2019-04-22T15:09:01.000Z</time>
      </trkpt>
      <trkpt lat="45.23728" lon="5.94424">
        <ele>997.98</ele>
        <time>2019-04-22T15:09:06.000Z</time>
      </trkpt>
      <trkpt lat="45.23707" lon="5.9433">
        <ele>995.36</ele>
        <time>2019-04-22T15:09:11.000Z</time>
      </trkpt>
      <trkpt lat="45.2371" lon="5.94263">
        <ele>996.38</ele>
        <time>2019-04-22T15:09:16.000Z</time>
      </trkpt>
      <trkpt lat="45.23693" lon="5.94268">
        <ele>993.94</ele>
        <time>2019-04-22T15:09:21.000Z</time>
      </trkpt>
      <trkpt lat="45.23692" lon="5.94321">
        <ele>986.92</ele>
        <time>2019-04-22T15:09:26.000Z</time>
      </trkpt>
      <trkpt lat="45.23686" lon="5.94379">
        <ele>983.81</ele>
        <time>2019-04-22T15:09:31.000Z</time>
      </trkpt>
      <trkpt lat="45.23661" lon="5.94447">
        <ele>974.28</ele>
        <time>2019-04-22T15:09:36.000Z</time>
      </trkpt>
      <trkpt lat="45.23628" lon="5.94501">
        <ele>967.93</ele>
        <time>2019-04-22T15:09:41.000Z</time>
      </trkpt>
      <trkpt lat="45.23569" lon="5.94509">
        <ele>963.03</ele>
        <time>2019-04-22T15:09:46.000Z</time>
      </trkpt>
      <trkpt lat="45.23531" lon="5.94505">
        <ele>964.43</ele>
        <time>2019-04-22T15:09:51.000Z</time>
      </trkpt>
      <trkpt lat="45.23547" lon="5.94447">
        <ele>953.61</ele>
        <time>2019-04-22T15:09:56.000Z</time>
      </trkpt>
      <trkpt lat="45.23586" lon="5.94427">
        <ele>945.94</ele>
        <time>2019-04-22T15:10:01.000Z</time>
      </trkpt>
      <trkpt lat="45.23598" lon="5.9436">
        <ele>948.32</ele>
        <time>2019-04-22T15:10:06.000Z</time>
      </trkpt>
      <trkpt lat="45.23591" lon="5.94287">
        <ele>945.08</ele>
        <time>2019-04-22T15:10:11.000Z</time>
      </trkpt>
      <trkpt lat="45.23576" lon="5.9422">
        <ele>942.49</ele>
        <time>2019-04-22T15:10:16.000Z</time>
      </trkpt>
      <trkpt lat="45.23581" lon="5.94147">
        <ele>939.29</ele>
        <time>2019-04-22T15:10:21.000Z</time>
      </trkpt>
      <trkpt lat="45.23606" lon="5.94068">
        <ele>936.4</ele>
        <time>2019-04-22T15:10:26.000Z</time>
      </trkpt>
      <trkpt lat="45.23609" lon="5.93978">
        <ele>928.09</ele>
        <time>2019-04-22T15:10:31.000Z</time>
      </trkpt>
      <trkpt lat="45.23625" lon="5.93917">
        <ele>923.37</ele>
        <time>2019-04-22T15:10:36.000Z</time>
      </trkpt>
      <trkpt lat="45.23609" lon="5.93908">
        <ele>924.35</ele>
        <time>2019-04-22T15:10:41.000Z</time>
      </trkpt>
      <trkpt lat="45.23598" lon="5.93961">
        <ele>922.45</ele>
        <time>2019-04-22T15:10:46.000Z</time>
      </trkpt>
      <trkpt lat="45.23584" lon="5.94015">
        <ele>919.19</ele>
        <time>2019-04-22T15:10:51.000Z</time>
      </trkpt>
      <trkpt lat="45.2356" lon="5.94072">
        <ele>916.63</ele>
        <time>2019-04-22T15:10:56.000Z</time>
      </trkpt>
      <trkpt lat="45.2352" lon="5.94111">
        <ele>917.59</ele>
        <time>2019-04-22T15:11:01.000Z</time>
      </trkpt>
      <trkpt lat="45.23491" lon="5.94132">
        <ele>914.28</ele>
        <time>2019-04-22T15:11:06.000Z</time>
      </trkpt>
      <trkpt lat="45.23494" lon="5.94075">
        <ele>913.81</ele>
        <time>2019-04-22T15:11:11.000Z</time>
      </trkpt>
      <trkpt lat="45.23513" lon="5.94037">
        <ele>904.59</ele>
        <time>2019-04-22T15:11:16.000Z</time>
      </trkpt>
      <trkpt lat="45.23531" lon="5.93984">
        <ele>905.29</ele>
        <time>2019-04-22T15:11:21.000Z</time>
      </trkpt>
      <trkpt lat="45.23526" lon="5.93923">
        <ele>899.84</ele>
        <time>2019-04-22T15:11:26.000Z</time>
      </trkpt>
      <trkpt lat="45.23514" lon="5.93859">
        <ele>899.35</ele>
        <time>2019-04-22T15:11:31.000Z</time>
      </trkpt>
      <trkpt lat="45.23506" lon="5.93777">
        <ele>895.7</ele>
        <time>2019-04-22T15:11:36.000Z</time>
      </trkpt>
      <trkpt lat="45.23509" lon="5.93692">
        <ele>889.32</ele>
        <time>2019-04-22T15:11:41.000Z</time>
      </trkpt>
      <trkpt lat="45.23498" lon="5.93607">
        <ele>886.03</ele>
        <time>2019-04-22T15:11:46.000Z</time>
      </trkpt>
      <trkpt lat="45.23522" lon="5.93517">
        <ele>876.67</ele>
        <time>2019-04-22T15:11:51.000Z</time>
      </trkpt>
      <trkpt lat="45.23546" lon="5.9344">
        <ele>871.19</ele>
        <time>2019-04-22T15:11:56.000Z</time>
      </trkpt>
      <trkpt lat="45.23564" lon="5.93367">
        <ele>864.7</ele>
        <time>2019-04-22T15:12:01.000Z</time>
      </trkpt>
      <trkpt lat="45.23578" lon="5.93283">
        <ele>862.56</ele>
        <time>2019-04-22T15:12:06.000Z</time>
      </trkpt>
      <trkpt lat="45.2362" lon="5.93216">
        <ele>855.13</ele>
        <time>2019-04-22T15:12:11.000Z</time>
      </trkpt>
      <trkpt lat="45.23669" lon="5.93145">
        <ele>847.22</ele>
        <time>2019-04-22T15:12:16.000Z</time>
      </trkpt>
      <trkpt lat="45.23718" lon="5.93081">
        <ele>839.66</ele>
        <time>2019-04-22T15:12:21.000Z</time>
      </trkpt>
      <trkpt lat="45.23755" lon="5.93021">
        <ele>834.82</ele>
        <time>2019-04-22T15:12:26.000Z</time>
      </trkpt>
      <trkpt lat="45.23769" lon="5.92942">
        <ele>828.99</ele>
        <time>2019-04-22T15:12:31.000Z</time>
      </trkpt>
      <trkpt lat="45.23812" lon="5.92886">
        <ele>826.84</ele>
        <time>2019-04-22T15:12:36.000Z</time>
      </trkpt>
      <trkpt lat="45.23794" lon="5.92872">
        <ele>825.84</ele>
        <time>2019-04-22T15:12:41.000Z</time>
      </trkpt>
      <trkpt lat="45.23773" lon="5.92906">
        <ele>822.54</ele>
        <time>2019-04-22T15:12:46.000Z</time>
      </trkpt>
      <trkpt lat="45.23744" lon="5.92949">
        <ele>821.81</ele>
        <time>2019-04-22T15:12:51.000Z</time>
      </trkpt>
      <trkpt lat="45.23713" lon="5.92993">
        <ele>815.73</ele>
        <time>2019-04-22T15:12:56.000Z</time>
      </trkpt>
      <trkpt lat="45.23667" lon="5.93022">
        <ele>809.73</ele>
        <time>2019-04-22T15:13:01.000Z</time>
      </trkpt>
      <trkpt lat="45.23614" lon="5.93049">
        <ele>806.69</ele>
        <time>2019-04-22T15:13:06.000Z</time>
      </trkpt>
      <trkpt lat="45.23571" lon="5.93059">
        <ele>799.73</ele>
        <time>2019-04-22T15:13:11.000Z</time>
      </trkpt>
      <trkpt lat="45.23528" lon="5.93063">
        <ele>794.49</ele>
        <time>2019-04-22T15:13:16.000Z</time>
      </trkpt>
      <trkpt lat="45.23493" lon="5.93102">
        <ele>796.11</ele>
        <time>2019-04-22T15:13:21.000Z</time>
      </trkpt>
      <trkpt lat="45.23455" lon="5.93152">
        <ele>792.97</ele>
        <time>2019-04-22T15:13:26.000Z</time>
      </trkpt>
      <trkpt lat="45.23411" lon="5.93204">
        <ele>791.29</ele>
        <time>2019-04-22T15:13:31.000Z</time>
      </trkpt>
      <trkpt lat="45.23361" lon="5.9325">
        <ele>784.83</ele>
        <time>2019-04-22T15:13:36.000Z</time>
      </trkpt>
      <trkpt lat="45.23309" lon="5.93288">
        <ele>779.33</ele>
        <time>2019-04-22T15:13:41.000Z</time>
      </trkpt>
      <trkpt lat="45.23256" lon="5.9334">
        <ele>769.55</ele>
        <time>2019-04-22T15:13:46.000Z</time>
      </trkpt>
      <trkpt lat="45.2321" lon="5.934">
        <ele>769.39</ele>
        <time>2019-04-22T15:13:51.000Z</time>
      </trkpt>
      <trkpt lat="45.23163" lon="5.93446">
        <ele>765.54</ele>
        <time>2019-04-22T15:13:56.000Z</time>
      </trkpt>
      <trkpt lat="45.23116" lon="5.93423">
        <ele>762.1</ele>
        <time>2019-04-22T15:14:01.000Z</time>
      </trkpt>
      <trkpt lat="45.23067" lon="5.93402">
        <ele>755.6</ele>
        <time>2019-04-22T15:14:06.000Z</time>
      </trkpt>
      <trkpt lat="45.2303" lon="5.93372">
        <ele>751.6</ele>
        <time>2019-04-22T15:14:11.000Z</time>
      </trkpt>
      <trkpt lat="45.23007" lon="5.93352">
        <ele>751.11</ele>
        <time>2019-04-22T15:14:16.000Z</time>
      </trkpt>
      <trkpt lat="45.22987" lon="5.93349">
        <ele>748.95</ele>
        <time>2019-04-22T15:14:21.000Z</time>
      </trkpt>
      <trkpt lat="45.22965" lon="5.93348">
        <ele>747.08</ele>
        <time>2019-04-22T15:14:26.000Z</time>
      </trkpt>
      <trkpt lat="45.22945" lon="5.93349">
        <ele>749.51</ele>
        <time>2019-04-22T15:14:31.000Z</time>
      </trkpt>
      <trkpt lat="45.22928" lon="5.93357">
        <ele>750.21</ele>
        <time>2019-04-22T15:14:36.000Z</time>
      </trkpt>
      <trkpt lat="45.22908" lon="5.93352">
        <ele>748.18</ele>
        <time>2019-04-22T15:14:41.000Z</time>
      </trkpt>
      <trkpt lat="45.2289" lon="5.93342">
        <ele>749.2</ele>
        <time>2019-04-22T15:14:46.000Z</time>
      </trkpt>
      <trkpt lat="45.2287" lon="5.93331">
        <ele>751.19</ele>
        <time>2019-04-22T15:14:51.000Z</time>
      </trkpt>
      <trkpt lat="45.22849" lon="5.93325">
        <ele>753.16</ele>
        <time>2019-04-22T15:14:56.000Z</time>
      </trkpt>
      <trkpt lat="45.22829" lon="5.93326">
        <ele>752.96</ele>
        <time>2019-04-22T15:15:01.000Z</time>
      </trkpt>
      <trkpt lat="45.22807" lon="5.93329">
        <ele>753.95</ele>
        <time>2019-04-22T15:15:06.000Z</time>
      </trkpt>
      <trkpt lat="45.22795" lon="5.93336">
        <ele>755.92</ele>
        <time>2019-04-22T15:15:11.000Z</time>
      </trkpt>
      <trkpt lat="45.22774" lon="5.9335">
        <ele>760.29</ele>
        <time>2019-04-22T15:15:16.000Z</time>
      </trkpt>
      <trkpt lat="45.22757" lon="5.93364">
        <ele>761.66</ele>
        <time>2019-04-22T15:15:21.000Z</time>
      </trkpt>
      <trkpt lat="45.22736" lon="5.93389">
        <ele>762.43</ele>
        <time>2019-04-22T15:15:26.000Z</time>
      </trkpt>
      <trkpt lat="45.22722" lon="5.93411">
        <ele>761.58</ele>
        <time>2019-04-22T15:15:31.000Z</time>
      </trkpt>
      <trkpt lat="45.22696" lon="5.93438">
        <ele>765.48</ele>
        <time>2019-04-22T15:15:36.000Z</time>
      </trkpt>
      <trkpt lat="45.22676" lon="5.93448">
        <ele>767.85</ele>
        <time>2019-04-22T15:15:41.000Z</time>
      </trkpt>
      <trkpt lat="45.22655" lon="5.93457">
        <ele>768.29</ele>
        <time>2019-04-22T15:15:46.000Z</time>
      </trkpt>
      <trkpt lat="45.22635" lon="5.93468">
        <ele>769.53</ele>
        <time>2019-04-22T15:15:51.000Z</time>
      </trkpt>
      <trkpt lat="45.22614" lon="5.93471">
        <ele>769.75</ele>
        <time>2019-04-22T15:15:56.000Z</time>
      </trkpt>
      <trkpt lat="45.2259" lon="5.9347">
        <ele>771.07</ele>
        <time>2019-04-22T15:16:01.000Z</time>
      </trkpt>
      <trkpt lat="45.22566" lon="5.93466">
        <ele>770.27</ele>
        <time>2019-04-22T15:16:06.000Z</time>
      </trkpt>
      <trkpt lat="45.22538" lon="5.93462">
        <ele>771.36</ele>
        <time>2019-04-22T15:16:11.000Z</time>
      </trkpt>
      <trkpt lat="45.22503" lon="5.93453">
        <ele>770.45</ele>
        <time>2019-04-22T15:16:16.000Z</time>
      </trkpt>
      <trkpt lat="45.22468" lon="5.93429">
        <ele>769.9</ele>
        <time>2019-04-22T15:16:21.000Z</time>
      </trkpt>
      <trkpt lat="45.22433" lon="5.93389">
        <ele>769.17</ele>
        <time>2019-04-22T15:16:26.000Z</time>
      </trkpt>
      <trkpt lat="45.22388" lon="5.93356">
        <ele>767.99</ele>
        <time>2019-04-22T15:16:31.000Z</time>
      </trkpt>
      <trkpt lat="45.22339" lon="5.93328">
        <ele>763.21</ele>
        <time>2019-04-22T15:16:36.000Z</time>
      </trkpt>
      <trkpt lat="45.22286" lon="5.93304">
        <ele>759.43</ele>
        <time>2019-04-22T15:16:41.000Z</time>
      </trkpt>
      <trkpt lat="45.22235" lon="5.93296">
        <ele>755.11</ele>
        <time>2019-04-22T15:16:46.000Z</time>
      </trkpt>
      <trkpt lat="45.22202" lon="5.93333">
        <ele>756.08</ele>
        <time>2019-04-22T15:16:51.000Z</time>
      </trkpt>
      <trkpt lat="45.22164" lon="5.9335">
        <ele>753.71</ele>
        <time>2019-04-22T15:16:56.000Z</time>
      </trkpt>
      <trkpt lat="45.2213" lon="5.93335">
        <ele>753.81</ele>
        <time>2019-04-22T15:17:01.000Z</time>
      </trkpt>
      <trkpt lat="45.22098" lon="5.9331">
        <ele>750.41</ele>
        <time>2019-04-22T15:17:06.000Z</time>
      </trkpt>
      <trkpt lat="45.22073" lon="5.93288">
        <ele>749.2</ele>
        <time>2019-04-22T15:17:11.000Z</time>
      </trkpt>
      <trkpt lat="45.22042" lon="5.93266">
        <ele>751.13</ele>
        <time>2019-04-22T15:17:16.000Z</time>
      </trkpt>
      <trkpt lat="45.22013" lon="5.93239">
        <ele>751.05</ele>
        <time>2019-04-22T15:17:21.000Z</time>
      </trkpt>
      <trkpt lat="45.21988" lon="5.93225">
        <ele>751.76</ele>
        <time>2019-04-22T15:17:26.000Z</time>
      </trkpt>
      <trkpt lat="45.21958" lon="5.9323">
        <ele>753.49</ele>
        <time>2019-04-22T15:17:31.000Z</time>
      </trkpt>
      <trkpt lat="45.21928" lon="5.93256">
        <ele>755.84</ele>
        <time>2019-04-22T15:17:36.000Z</time>
      </trkpt>
      <trkpt lat="45.21906" lon="5.93294">
        <ele>755.46</ele>
        <time>2019-04-22T15:17:41.000Z</time>
      </trkpt>
      <trkpt lat="45.21874" lon="5.93314">
        <ele>754.22</ele>
        <time>2019-04-22T15:17:46.000Z</time>
      </trkpt>
      <trkpt lat="45.21842" lon="5.93335">
        <ele>751.13</ele>
        <time>2019-04-22T15:17:51.000Z</time>
      </trkpt>
      <trkpt lat="45.21811" lon="5.93356">
        <ele>748.52</ele>
        <time>2019-04-22T15:17:56.000Z</time>
      </trkpt>
      <trkpt lat="45.21781" lon="5.93379">
        <ele>749.29</ele>
        <time>2019-04-22T15:18:01.000Z</time>
      </trkpt>
      <trkpt lat="45.21757" lon="5.93388">
        <ele>747.87</ele>
        <time>2019-04-22T15:18:06.000Z</time>
      </trkpt>
      <trkpt lat="45.21731" lon="5.93389">
        <ele>749.22</ele>
        <time>2019-04-22T15:18:11.000Z</time>
      </trkpt>
      <trkpt lat="45.21703" lon="5.9338">
        <ele>748.44</ele>
        <time>2019-04-22T15:18:16.000Z</time>
      </trkpt>
      <trkpt lat="45.21681" lon="5.9337">
        <ele>747.93</ele>
        <time>2019-04-22T15:18:21.000Z</time>
      </trkpt>
      <trkpt lat="45.21655" lon="5.9337">
        <ele>748.42</ele>
        <time>2019-04-22T15:18:26.000Z</time>
      </trkpt>
      <trkpt lat="45.21629" lon="5.93389">
        <ele>750.07</ele>
        <time>2019-04-22T15:18:31.000Z</time>
      </trkpt>
      <trkpt lat="45.21603" lon="5.93417">
        <ele>752.63</ele>
        <time>2019-04-22T15:18:36.000Z</time>
      </trkpt>
      <trkpt lat="45.21582" lon="5.93448">
        <ele>755.74</ele>
        <time>2019-04-22T15:18:41.000Z</time>
      </trkpt>
      <trkpt lat="45.21556" lon="5.93479">
        <ele>753.85</ele>
        <time>2019-04-22T15:18:46.000Z</time>
      </trkpt>
      <trkpt lat="45.21526" lon="5.93508">
        <ele>753.16</ele>
        <time>2019-04-22T15:18:51.000Z</time>
      </trkpt>
      <trkpt lat="45.21492" lon="5.93518">
        <ele>757.54</ele>
        <time>2019-04-22T15:18:56.000Z</time>
      </trkpt>
      <trkpt lat="45.21456" lon="5.93525">
        <ele>756.41</ele>
        <time>2019-04-22T15:19:01.000Z</time>
      </trkpt>
      <trkpt lat="45.21427" lon="5.93508">
        <ele>756.11</ele>
        <time>2019-04-22T15:19:06.000Z</time>
      </trkpt>
      <trkpt lat="45.21408" lon="5.93479">
        <ele>759.08</ele>
        <time>2019-04-22T15:19:11.000Z</time>
      </trkpt>
      <trkpt lat="45.21386" lon="5.93441">
        <ele>757.42</ele>
        <time>2019-04-22T15:19:16.000Z</time>
      </trkpt>
      <trkpt lat="45.21376" lon="5.93402">
        <ele>753.87</ele>
        <time>2019-04-22T15:19:21.000Z</time>
      </trkpt>
      <trkpt lat="45.21369" lon="5.93358">
        <ele>753.21</ele>
        <time>2019-04-22T15:19:26.000Z</time>
      </trkpt>
      <trkpt lat="45.21368" lon="5.93326">
        <ele>756.27</ele>
        <time>2019-04-22T15:19:31.000Z</time>
      </trkpt>
      <trkpt lat="45.21388" lon="5.93297">
        <ele>759.46</ele>
        <time>2019-04-22T15:19:36.000Z</time>
      </trkpt>
      <trkpt lat="45.21408" lon="5.93277">
        <ele>759.76</ele>
        <time>2019-04-22T15:19:41.000Z</time>
      </trkpt>
      <trkpt lat="45.21439" lon="5.93268">
        <ele>760.27</ele>
        <time>2019-04-22T15:19:46.000Z</time>
      </trkpt>
      <trkpt lat="45.21468" lon="5.93259">
        <ele>758.43</ele>
        <time>2019-04-22T15:19:51.000Z</time>
      </trkpt>
      <trkpt lat="45.21497" lon="5.93246">
        <ele>755.34</ele>
        <time>2019-04-22T15:19:56.000Z</time>
      </trkpt>
      <trkpt lat="45.21523" lon="5.93234">
        <ele>757.05</ele>
        <time>2019-04-22T15:20:01.000Z</time>
      </trkpt>
      <trkpt lat="45.2155" lon="5.93218">
        <ele>759.6</ele>
        <time>2019-04-22T15:20:06.000Z</time>
      </trkpt>
      <trkpt lat="45.21576" lon="5.932">
        <ele>754.4</ele>
        <time>2019-04-22T15:20:11.000Z</time>
      </trkpt>
      <trkpt lat="45.21601" lon="5.93175">
        <ele>751.86</ele>
        <time>2019-04-22T15:20:16.000Z</time>
      </trkpt>
      <trkpt lat="45.21625" lon="5.9315">
        <ele>752.45</ele>
        <time>2019-04-22T15:20:21.000Z</time>
      </trkpt>
      <trkpt lat="45.21652" lon="5.9312">
        <ele>751.62</ele>
        <time>2019-04-22T15:20:26.000Z</time>
      </trkpt>
      <trkpt lat="45.21677" lon="5.93092">
        <ele>751.67</ele>
        <time>2019-04-22T15:20:31.000Z</time>
      </trkpt>
      <trkpt lat="45.21709" lon="5.9307">
        <ele>750.71</ele>
        <time>2019-04-22T15:20:36.000Z</time>
      </trkpt>
      <trkpt lat="45.2175" lon="5.93046">
        <ele>750.93</ele>
        <time>2019-04-22T15:20:41.000Z</time>
      </trkpt>
      <trkpt lat="45.21791" lon="5.9302">
        <ele>747.91</ele>
        <time>2019-04-22T15:20:46.000Z</time>
      </trkpt>
      <trkpt lat="45.2183" lon="5.9299">
        <ele>745.81</ele>
        <time>2019-04-22T15:20:51.000Z</time>
      </trkpt>
      <trkpt lat="45.21858" lon="5.92954">
        <ele>746.51</ele>
        <time>2019-04-22T15:20:56.000Z</time>
      </trkpt>
      <trkpt lat="45.21886" lon="5.92921">
        <ele>746.49</ele>
        <time>2019-04-22T15:21:01.000Z</time>
      </trkpt>
      <trkpt lat="45.21913" lon="5.92893">
        <ele>745.45</ele>
        <time>2019-04-22T15:21:06.000Z</time>
      </trkpt>
      <trkpt lat="45.21941" lon="5.92876">
        <ele>742.7</ele>
        <time>2019-04-22T15:21:11.000Z</time>
      </trkpt>
      <trkpt lat="45.21967" lon="5.92858">
        <ele>741.15</ele>
        <time>2019-04-22T15:21:16.000Z</time>
      </trkpt>
      <trkpt lat="45.21998" lon="5.92838">
        <ele>742.29</ele>
        <time>2019-04-22T15:21:21.000Z</time>
      </trkpt>
      <trkpt lat="45.22028" lon="5.92821">
        <ele>742.27</ele>
        <time>2019-04-22T15:21:26.000Z</time>
      </trkpt>
      <trkpt lat="45.22058" lon="5.92811">
        <ele>741.45</ele>
        <time>2019-04-22T15:21:31.000Z</time>
      </trkpt>
      <trkpt lat="45.22088" lon="5.92804">
        <ele>740.02</ele>
        <time>2019-04-22T15:21:36.000Z</time>
      </trkpt>
      <trkpt lat="45.22117" lon="5.92799">
        <ele>738.02</ele>
        <time>2019-04-22T15:21:41.000Z</time>
      </trkpt>
      <trkpt lat="45.22146" lon="5.92798">
        <ele>740.98</ele>
        <time>2019-04-22T15:21:46.000Z</time>
      </trkpt>
      <trkpt lat="45.22175" lon="5.92793">
        <ele>741.13</ele>
        <time>2019-04-22T15:21:51.000Z</time>
      </trkpt>
      <trkpt lat="45.22202" lon="5.92782">
        <ele>746.92</ele>
        <time>2019-04-22T15:21:56.000Z</time>
      </trkpt>
      <trkpt lat="45.22232" lon="5.92775">
        <ele>748.13</ele>
        <time>2019-04-22T15:22:01.000Z</time>
      </trkpt>
      <trkpt lat="45.22263" lon="5.92766">
        <ele>744.3</ele>
        <time>2019-04-22T15:22:06.000Z</time>
      </trkpt>
      <trkpt lat="45.22293" lon="5.92762">
        <ele>742.93</ele>
        <time>2019-04-22T15:22:11.000Z</time>
      </trkpt>
      <trkpt lat="45.22333" lon="5.92777">
        <ele>742.4</ele>
        <time>2019-04-22T15:22:16.000Z</time>
      </trkpt>
      <trkpt lat="45.22366" lon="5.92784">
        <ele>738.49</ele>
        <time>2019-04-22T15:22:21.000Z</time>
      </trkpt>
      <trkpt lat="45.22405" lon="5.9279">
        <ele>734.61</ele>
        <time>2019-04-22T15:22:26.000Z</time>
      </trkpt>
      <trkpt lat="45.22446" lon="5.92782">
        <ele>735.54</ele>
        <time>2019-04-22T15:22:31.000Z</time>
      </trkpt>
      <trkpt lat="45.2249" lon="5.92776">
        <ele>736.22</ele>
        <time>2019-04-22T15:22:36.000Z</time>
      </trkpt>
      <trkpt lat="45.22533" lon="5.92754">
        <ele>736.14</ele>
        <time>2019-04-22T15:22:41.000Z</time>
      </trkpt>
      <trkpt lat="45.22563" lon="5.92712">
        <ele>738.34</ele>
        <time>2019-04-22T15:22:46.000Z</time>
      </trkpt>
      <trkpt lat="45.22585" lon="5.92676">
        <ele>736.83</ele>
        <time>2019-04-22T15:22:51.000Z</time>
      </trkpt>
      <trkpt lat="45.22593" lon="5.9264">
        <ele>736.06</ele>
        <time>2019-04-22T15:22:56.000Z</time>
      </trkpt>
      <trkpt lat="45.22593" lon="5.92596">
        <ele>737.93</ele>
        <time>2019-04-22T15:23:01.000Z</time>
      </trkpt>
      <trkpt lat="45.22591" lon="5.92551">
        <ele>739.43</ele>
        <time>2019-04-22T15:23:06.000Z</time>
      </trkpt>
      <trkpt lat="45.22599" lon="5.92506">
        <ele>740.08</ele>
        <time>2019-04-22T15:23:11.000Z</time>
      </trkpt>
      <trkpt lat="45.22604" lon="5.92467">
        <ele>739.35</ele>
        <time>2019-04-22T15:23:16.000Z</time>
      </trkpt>
      <trkpt lat="45.22607" lon="5.92428">
        <ele>736.04</ele>
        <time>2019-04-22T15:23:21.000Z</time>
      </trkpt>
      <trkpt lat="45.22614" lon="5.92389">
        <ele>737.25</ele>
        <time>2019-04-22T15:23:26.000Z</time>
      </trkpt>
      <trkpt lat="45.2262" lon="5.92355">
        <ele>739.64</ele>
        <time>2019-04-22T15:23:31.000Z</time>
      </trkpt>
      <trkpt lat="45.22631" lon="5.92318">
        <ele>738.97</ele>
        <time>2019-04-22T15:23:36.000Z</time>
      </trkpt>
      <trkpt lat="45.22651" lon="5.9228">
        <ele>737.38</ele>
        <time>2019-04-22T15:23:41.000Z</time>
      </trkpt>
      <trkpt lat="45.22675" lon="5.92238">
        <ele>738.87</ele>
        <time>2019-04-22T15:23:46.000Z</time>
      </trkpt>
      <trkpt lat="45.227" lon="5.92198">
        <ele>735.24</ele>
        <time>2019-04-22T15:23:51.000Z</time>
      </trkpt>
      <trkpt lat="45.22729" lon="5.92144">
        <ele>741.16</ele>
        <time>2019-04-22T15:23:56.000Z</time>
      </trkpt>
      <trkpt lat="45.22755" lon="5.92086">
        <ele>741.17</ele>
        <time>2019-04-22T15:24:01.000Z</time>
      </trkpt>
      <trkpt lat="45.2277" lon="5.92024">
        <ele>742.67</ele>
        <time>2019-04-22T15:24:06.000Z</time>
      </trkpt>
      <trkpt lat="45.22776" lon="5.91965">
        <ele>741.2</ele>
        <time>2019-04-22T15:24:11.000Z</time>
      </trkpt>
      <trkpt lat="45.22812" lon="5.91943">
        <ele>739.57</ele>
        <time>2019-04-22T15:24:16.000Z</time>
      </trkpt>
      <trkpt lat="45.22843" lon="5.91926">
        <ele>737.51</ele>
        <time>2019-04-22T15:24:21.000Z</time>
      </trkpt>
      <trkpt lat="45.22868" lon="5.91903">
        <ele>738.64</ele>
        <time>2019-04-22T15:24:26.000Z</time>
      </trkpt>
      <trkpt lat="45.2289" lon="5.91877">
        <ele>736.12</ele>
        <time>2019-04-22T15:24:31.000Z</time>
      </trkpt>
      <trkpt lat="45.22911" lon="5.91845">
        <ele>736.36</ele>
        <time>2019-04-22T15:24:36.000Z</time>
      </trkpt>
      <trkpt lat="45.22932" lon="5.91808">
        <ele>739.1</ele>
        <time>2019-04-22T15:24:41.000Z</time>
      </trkpt>
      <trkpt lat="45.22952" lon="5.91777">
        <ele>738.05</ele>
        <time>2019-04-22T15:24:46.000Z</time>
      </trkpt>
      <trkpt lat="45.22966" lon="5.91744">
        <ele>734.74</ele>
        <time>2019-04-22T15:24:51.000Z</time>
      </trkpt>
      <trkpt lat="45.22977" lon="5.91704">
        <ele>737.64</ele>
        <time>2019-04-22T15:24:56.000Z</time>
      </trkpt>
      <trkpt lat="45.2298" lon="5.91661">
        <ele>736.91</ele>
        <time>2019-04-22T15:25:01.000Z</time>
      </trkpt>
      <trkpt lat="45.22978" lon="5.91624">
        <ele>741.5</ele>
        <time>2019-04-22T15:25:06.000Z</time>
      </trkpt>
      <trkpt lat="45.22976" lon="5.9159">
        <ele>744.58</ele>
        <time>2019-04-22T15:25:11.000Z</time>
      </trkpt>
      <trkpt lat="45.22965" lon="5.91559">
        <ele>744.11</ele>
        <time>2019-04-22T15:25:16.000Z</time>
      </trkpt>
      <trkpt lat="45.22955" lon="5.9153">
        <ele>742.41</ele>
        <time>2019-04-22T15:25:21.000Z</time>
      </trkpt>
      <trkpt lat="45.22954" lon="5.91496">
        <ele>745.2</ele>
        <time>2019-04-22T15:25:26.000Z</time>
      </trkpt>
      <trkpt lat="45.22957" lon="5.91456">
        <ele>749.67</ele>
        <time>2019-04-22T15:25:31.000Z</time>
      </trkpt>
      <trkpt lat="45.2297" lon="5.91419">
        <ele>750.77</ele>
        <time>2019-04-22T15:25:36.000Z</time>
      </trkpt>
      <trkpt lat="45.22986" lon="5.91383">
        <ele>752.01</ele>
        <time>2019-04-22T15:25:41.000Z</time>
      </trkpt>
      <trkpt lat="45.23005" lon="5.91348">
        <ele>752.71</ele>
        <time>2019-04-22T15:25:46.000Z</time>
      </trkpt>
      <trkpt lat="45.23029" lon="5.91307">
        <ele>751.73</ele>
        <time>2019-04-22T15:25:51.000Z</time>
      </trkpt>
      <trkpt lat="45.23061" lon="5.91263">
        <ele>746.97</ele>
        <time>2019-04-22T15:25:56.000Z</time>
      </trkpt>
      <trkpt lat="45.23104" lon="5.9123">
        <ele>748</ele>
        <time>2019-04-22T15:26:01.000Z</time>
      </trkpt>
      <trkpt lat="45.23148" lon="5.91202">
        <ele>745.6</ele>
        <time>2019-04-22T15:26:06.000Z</time>
      </trkpt>
      <trkpt lat="45.23198" lon="5.91157">
        <ele>741.28</ele>
        <time>2019-04-22T15:26:11.000Z</time>
      </trkpt>
      <trkpt lat="45.23227" lon="5.91075">
        <ele>736.75</ele>
        <time>2019-04-22T15:26:16.000Z</time>
      </trkpt>
      <trkpt lat="45.23279" lon="5.9101">
        <ele>732.41</ele>
        <time>2019-04-22T15:26:21.000Z</time>
      </trkpt>
      <trkpt lat="45.23322" lon="5.9093">
        <ele>727.2</ele>
        <time>2019-04-22T15:26:26.000Z</time>
      </trkpt>
      <trkpt lat="45.23364" lon="5.90844">
        <ele>719.23</ele>
        <time>2019-04-22T15:26:31.000Z</time>
      </trkpt>
      <trkpt lat="45.23401" lon="5.90756">
        <ele>718.45</ele>
        <time>2019-04-22T15:26:36.000Z</time>
      </trkpt>
      <trkpt lat="45.23432" lon="5.90679">
        <ele>717.4</ele>
        <time>2019-04-22T15:26:41.000Z</time>
      </trkpt>
      <trkpt lat="45.23458" lon="5.90598">
        <ele>716.3</ele>
        <time>2019-04-22T15:26:46.000Z</time>
      </trkpt>
      <trkpt lat="45.23476" lon="5.90533">
        <ele>707.32</ele>
        <time>2019-04-22T15:26:51.000Z</time>
      </trkpt>
      <trkpt lat="45.23486" lon="5.90472">
        <ele>705.38</ele>
        <time>2019-04-22T15:26:56.000Z</time>
      </trkpt>
      <trkpt lat="45.23492" lon="5.90418">
        <ele>705.42</ele>
        <time>2019-04-22T15:27:01.000Z</time>
      </trkpt>
      <trkpt lat="45.23499" lon="5.90365">
        <ele>701.79</ele>
        <time>2019-04-22T15:27:06.000Z</time>
      </trkpt>
      <trkpt lat="45.23493" lon="5.90313">
        <ele>699.83</ele>
        <time>2019-04-22T15:27:11.000Z</time>
      </trkpt>
      <trkpt lat="45.23475" lon="5.90275">
        <ele>699.4</ele>
        <time>2019-04-22T15:27:16.000Z</time>
      </trkpt>
      <trkpt lat="45.23463" lon="5.90255">
        <ele>699.99</ele>
        <time>2019-04-22T15:27:21.000Z</time>
      </trkpt>
      <trkpt lat="45.23452" lon="5.9025">
        <ele>698.39</ele>
        <time>2019-04-22T15:27:26.000Z</time>
      </trkpt>
      <trkpt lat="45.23442" lon="5.90248">
        <ele>703.99</ele>
        <time>2019-04-22T15:29:09.000Z</time>
      </trkpt>
      <trkpt lat="45.23424" lon="5.90255">
        <ele>701.9</ele>
        <time>2019-04-22T15:29:14.000Z</time>
      </trkpt>
      <trkpt lat="45.234" lon="5.90268">
        <ele>700.32</ele>
        <time>2019-04-22T15:29:19.000Z</time>
      </trkpt>
      <trkpt lat="45.23369" lon="5.90281">
        <ele>701.24</ele>
        <time>2019-04-22T15:29:24.000Z</time>
      </trkpt>
      <trkpt lat="45.23329" lon="5.90303">
        <ele>694.74</ele>
        <time>2019-04-22T15:29:29.000Z</time>
      </trkpt>
      <trkpt lat="45.2328" lon="5.90333">
        <ele>690.6</ele>
        <time>2019-04-22T15:29:34.000Z</time>
      </trkpt>
      <trkpt lat="45.23232" lon="5.90334">
        <ele>687.52</ele>
        <time>2019-04-22T15:29:39.000Z</time>
      </trkpt>
      <trkpt lat="45.23191" lon="5.9033">
        <ele>685.25</ele>
        <time>2019-04-22T15:29:44.000Z</time>
      </trkpt>
      <trkpt lat="45.23155" lon="5.90326">
        <ele>688.5</ele>
        <time>2019-04-22T15:29:49.000Z</time>
      </trkpt>
      <trkpt lat="45.23109" lon="5.90322">
        <ele>684.63</ele>
        <time>2019-04-22T15:29:54.000Z</time>
      </trkpt>
      <trkpt lat="45.23072" lon="5.90323">
        <ele>686.29</ele>
        <time>2019-04-22T15:29:59.000Z</time>
      </trkpt>
      <trkpt lat="45.23036" lon="5.90335">
        <ele>685.26</ele>
        <time>2019-04-22T15:30:04.000Z</time>
      </trkpt>
      <trkpt lat="45.22987" lon="5.90354">
        <ele>681.13</ele>
        <time>2019-04-22T15:30:09.000Z</time>
      </trkpt>
      <trkpt lat="45.22948" lon="5.90362">
        <ele>682.11</ele>
        <time>2019-04-22T15:30:14.000Z</time>
      </trkpt>
      <trkpt lat="45.22931" lon="5.90335">
        <ele>682.36</ele>
        <time>2019-04-22T15:30:19.000Z</time>
      </trkpt>
      <trkpt lat="45.22917" lon="5.90319">
        <ele>681.4</ele>
        <time>2019-04-22T15:30:24.000Z</time>
      </trkpt>
      <trkpt lat="45.22898" lon="5.90303">
        <ele>684.84</ele>
        <time>2019-04-22T15:30:29.000Z</time>
      </trkpt>
      <trkpt lat="45.22876" lon="5.90282">
        <ele>686</ele>
        <time>2019-04-22T15:30:34.000Z</time>
      </trkpt>
      <trkpt lat="45.22859" lon="5.90258">
        <ele>684.73</ele>
        <time>2019-04-22T15:30:39.000Z</time>
      </trkpt>
      <trkpt lat="45.22833" lon="5.90247">
        <ele>682.56</ele>
        <time>2019-04-22T15:30:44.000Z</time>
      </trkpt>
      <trkpt lat="45.22808" lon="5.90241">
        <ele>682.54</ele>
        <time>2019-04-22T15:30:49.000Z</time>
      </trkpt>
      <trkpt lat="45.22779" lon="5.90243">
        <ele>677.71</ele>
        <time>2019-04-22T15:30:54.000Z</time>
      </trkpt>
      <trkpt lat="45.22747" lon="5.90242">
        <ele>678.17</ele>
        <time>2019-04-22T15:30:59.000Z</time>
      </trkpt>
      <trkpt lat="45.2272" lon="5.90245">
        <ele>679.08</ele>
        <time>2019-04-22T15:31:04.000Z</time>
      </trkpt>
      <trkpt lat="45.22691" lon="5.90253">
        <ele>681.11</ele>
        <time>2019-04-22T15:31:09.000Z</time>
      </trkpt>
      <trkpt lat="45.22656" lon="5.90267">
        <ele>684.67</ele>
        <time>2019-04-22T15:31:14.000Z</time>
      </trkpt>
      <trkpt lat="45.22629" lon="5.90286">
        <ele>683.58</ele>
        <time>2019-04-22T15:31:19.000Z</time>
      </trkpt>
      <trkpt lat="45.22614" lon="5.90318">
        <ele>682.97</ele>
        <time>2019-04-22T15:31:24.000Z</time>
      </trkpt>
      <trkpt lat="45.22599" lon="5.90347">
        <ele>681.39</ele>
        <time>2019-04-22T15:31:29.000Z</time>
      </trkpt>
      <trkpt lat="45.22591" lon="5.90384">
        <ele>683.25</ele>
        <time>2019-04-22T15:31:34.000Z</time>
      </trkpt>
      <trkpt lat="45.22582" lon="5.90422">
        <ele>686.13</ele>
        <time>2019-04-22T15:31:39.000Z</time>
      </trkpt>
      <trkpt lat="45.22573" lon="5.90477">
        <ele>684.93</ele>
        <time>2019-04-22T15:31:44.000Z</time>
      </trkpt>
      <trkpt lat="45.22564" lon="5.9052">
        <ele>686.65</ele>
        <time>2019-04-22T15:31:49.000Z</time>
      </trkpt>
      <trkpt lat="45.22543" lon="5.90514">
        <ele>687.55</ele>
        <time>2019-04-22T15:31:54.000Z</time>
      </trkpt>
      <trkpt lat="45.22531" lon="5.90487">
        <ele>693.27</ele>
        <time>2019-04-22T15:31:59.000Z</time>
      </trkpt>
      <trkpt lat="45.22521" lon="5.90462">
        <ele>692.32</ele>
        <time>2019-04-22T15:32:04.000Z</time>
      </trkpt>
      <trkpt lat="45.22511" lon="5.90441">
        <ele>688.76</ele>
        <time>2019-04-22T15:32:09.000Z</time>
      </trkpt>
      <trkpt lat="45.22496" lon="5.90416">
        <ele>690.34</ele>
        <time>2019-04-22T15:32:14.000Z</time>
      </trkpt>
      <trkpt lat="45.22472" lon="5.90408">
        <ele>690.03</ele>
        <time>2019-04-22T15:32:19.000Z</time>
      </trkpt>
      <trkpt lat="45.22452" lon="5.90387">
        <ele>693.09</ele>
        <time>2019-04-22T15:32:24.000Z</time>
      </trkpt>
      <trkpt lat="45.22434" lon="5.9036">
        <ele>690.87</ele>
        <time>2019-04-22T15:32:29.000Z</time>
      </trkpt>
      <trkpt lat="45.22415" lon="5.90335">
        <ele>692.73</ele>
        <time>2019-04-22T15:32:34.000Z</time>
      </trkpt>
      <trkpt lat="45.224" lon="5.90307">
        <ele>692.11</ele>
        <time>2019-04-22T15:32:39.000Z</time>
      </trkpt>
      <trkpt lat="45.22388" lon="5.90273">
        <ele>694.26</ele>
        <time>2019-04-22T15:32:44.000Z</time>
      </trkpt>
      <trkpt lat="45.22374" lon="5.90246">
        <ele>695.6</ele>
        <time>2019-04-22T15:32:49.000Z</time>
      </trkpt>
      <trkpt lat="45.2236" lon="5.90212">
        <ele>699.58</ele>
        <time>2019-04-22T15:32:54.000Z</time>
      </trkpt>
      <trkpt lat="45.22344" lon="5.90183">
        <ele>701.49</ele>
        <time>2019-04-22T15:32:59.000Z</time>
      </trkpt>
      <trkpt lat="45.22325" lon="5.90164">
        <ele>703.81</ele>
        <time>2019-04-22T15:33:04.000Z</time>
      </trkpt>
      <trkpt lat="45.22302" lon="5.9015">
        <ele>702.52</ele>
        <time>2019-04-22T15:33:09.000Z</time>
      </trkpt>
      <trkpt lat="45.22276" lon="5.90133">
        <ele>703.96</ele>
        <time>2019-04-22T15:33:14.000Z</time>
      </trkpt>
      <trkpt lat="45.22256" lon="5.9012">
        <ele>706.74</ele>
        <time>2019-04-22T15:33:19.000Z</time>
      </trkpt>
      <trkpt lat="45.22234" lon="5.90112">
        <ele>709.72</ele>
        <time>2019-04-22T15:33:24.000Z</time>
      </trkpt>
      <trkpt lat="45.22211" lon="5.9013">
        <ele>711.21</ele>
        <time>2019-04-22T15:33:29.000Z</time>
      </trkpt>
      <trkpt lat="45.2219" lon="5.90157">
        <ele>710.4</ele>
        <time>2019-04-22T15:33:34.000Z</time>
      </trkpt>
      <trkpt lat="45.22171" lon="5.9018">
        <ele>712.62</ele>
        <time>2019-04-22T15:33:39.000Z</time>
      </trkpt>
      <trkpt lat="45.22151" lon="5.90204">
        <ele>709.93</ele>
        <time>2019-04-22T15:33:44.000Z</time>
      </trkpt>
      <trkpt lat="45.22123" lon="5.90226">
        <ele>710.14</ele>
        <time>2019-04-22T15:33:49.000Z</time>
      </trkpt>
      <trkpt lat="45.22101" lon="5.90246">
        <ele>708.52</ele>
        <time>2019-04-22T15:33:54.000Z</time>
      </trkpt>
      <trkpt lat="45.22064" lon="5.90256">
        <ele>709.86</ele>
        <time>2019-04-22T15:33:59.000Z</time>
      </trkpt>
      <trkpt lat="45.22029" lon="5.90255">
        <ele>711.97</ele>
        <time>2019-04-22T15:34:04.000Z</time>
      </trkpt>
      <trkpt lat="45.22001" lon="5.90237">
        <ele>709.76</ele>
        <time>2019-04-22T15:34:09.000Z</time>
      </trkpt>
      <trkpt lat="45.21976" lon="5.9022">
        <ele>708.15</ele>
        <time>2019-04-22T15:34:14.000Z</time>
      </trkpt>
      <trkpt lat="45.21955" lon="5.90201">
        <ele>710.06</ele>
        <time>2019-04-22T15:34:19.000Z</time>
      </trkpt>
      <trkpt lat="45.2194" lon="5.90178">
        <ele>710.57</ele>
        <time>2019-04-22T15:34:24.000Z</time>
      </trkpt>
      <trkpt lat="45.21927" lon="5.90144">
        <ele>712.94</ele>
        <time>2019-04-22T15:34:29.000Z</time>
      </trkpt>
      <trkpt lat="45.21931" lon="5.90105">
        <ele>717.69</ele>
        <time>2019-04-22T15:34:34.000Z</time>
      </trkpt>
      <trkpt lat="45.21939" lon="5.90072">
        <ele>717.35</ele>
        <time>2019-04-22T15:34:39.000Z</time>
      </trkpt>
      <trkpt lat="45.2193" lon="5.90044">
        <ele>719.31</ele>
        <time>2019-04-22T15:34:44.000Z</time>
      </trkpt>
      <trkpt lat="45.2191" lon="5.90028">
        <ele>722.19</ele>
        <time>2019-04-22T15:34:49.000Z</time>
      </trkpt>
      <trkpt lat="45.21889" lon="5.90009">
        <ele>720.58</ele>
        <time>2019-04-22T15:34:54.000Z</time>
      </trkpt>
      <trkpt lat="45.21866" lon="5.89994">
        <ele>723.68</ele>
        <time>2019-04-22T15:34:59.000Z</time>
      </trkpt>
      <trkpt lat="45.21838" lon="5.89981">
        <ele>721.33</ele>
        <time>2019-04-22T15:35:04.000Z</time>
      </trkpt>
      <trkpt lat="45.21807" lon="5.8997">
        <ele>720.53</ele>
        <time>2019-04-22T15:35:09.000Z</time>
      </trkpt>
      <trkpt lat="45.21784" lon="5.8996">
        <ele>721.92</ele>
        <time>2019-04-22T15:35:14.000Z</time>
      </trkpt>
      <trkpt lat="45.21765" lon="5.89955">
        <ele>717.79</ele>
        <time>2019-04-22T15:35:19.000Z</time>
      </trkpt>
      <trkpt lat="45.21746" lon="5.89946">
        <ele>714.58</ele>
        <time>2019-04-22T15:35:24.000Z</time>
      </trkpt>
      <trkpt lat="45.21728" lon="5.89936">
        <ele>717.35</ele>
        <time>2019-04-22T15:35:29.000Z</time>
      </trkpt>
      <trkpt lat="45.2171" lon="5.89923">
        <ele>720.37</ele>
        <time>2019-04-22T15:35:34.000Z</time>
      </trkpt>
      <trkpt lat="45.21692" lon="5.89904">
        <ele>719.65</ele>
        <time>2019-04-22T15:35:39.000Z</time>
      </trkpt>
      <trkpt lat="45.21669" lon="5.89877">
        <ele>718.64</ele>
        <time>2019-04-22T15:35:44.000Z</time>
      </trkpt>
      <trkpt lat="45.21648" lon="5.89852">
        <ele>723.88</ele>
        <time>2019-04-22T15:35:49.000Z</time>
      </trkpt>
      <trkpt lat="45.21623" lon="5.89829">
        <ele>725.92</ele>
        <time>2019-04-22T15:35:54.000Z</time>
      </trkpt>
      <trkpt lat="45.21593" lon="5.89816">
        <ele>723.48</ele>
        <time>2019-04-22T15:35:59.000Z</time>
      </trkpt>
      <trkpt lat="45.21568" lon="5.89797">
        <ele>723.22</ele>
        <time>2019-04-22T15:36:04.000Z</time>
      </trkpt>
      <trkpt lat="45.21543" lon="5.89781">
        <ele>728.36</ele>
        <time>2019-04-22T15:36:09.000Z</time>
      </trkpt>
      <trkpt lat="45.21517" lon="5.89763">
        <ele>733.31</ele>
        <time>2019-04-22T15:36:14.000Z</time>
      </trkpt>
      <trkpt lat="45.21494" lon="5.89749">
        <ele>736.13</ele>
        <time>2019-04-22T15:36:19.000Z</time>
      </trkpt>
      <trkpt lat="45.21479" lon="5.89743">
        <ele>740.38</ele>
        <time>2019-04-22T15:36:24.000Z</time>
      </trkpt>
      <trkpt lat="45.21457" lon="5.89729">
        <ele>742.3</ele>
        <time>2019-04-22T15:36:29.000Z</time>
      </trkpt>
      <trkpt lat="45.21432" lon="5.89728">
        <ele>745.39</ele>
        <time>2019-04-22T15:36:34.000Z</time>
      </trkpt>
      <trkpt lat="45.21404" lon="5.89731">
        <ele>743.17</ele>
        <time>2019-04-22T15:36:39.000Z</time>
      </trkpt>
      <trkpt lat="45.21379" lon="5.89743">
        <ele>744.95</ele>
        <time>2019-04-22T15:36:44.000Z</time>
      </trkpt>
      <trkpt lat="45.21349" lon="5.89761">
        <ele>746.24</ele>
        <time>2019-04-22T15:36:49.000Z</time>
      </trkpt>
      <trkpt lat="45.21324" lon="5.89772">
        <ele>746.08</ele>
        <time>2019-04-22T15:36:54.000Z</time>
      </trkpt>
      <trkpt lat="45.21303" lon="5.89785">
        <ele>744.26</ele>
        <time>2019-04-22T15:36:59.000Z</time>
      </trkpt>
      <trkpt lat="45.21285" lon="5.89786">
        <ele>743.93</ele>
        <time>2019-04-22T15:37:04.000Z</time>
      </trkpt>
      <trkpt lat="45.21259" lon="5.89789">
        <ele>746.66</ele>
        <time>2019-04-22T15:37:09.000Z</time>
      </trkpt>
      <trkpt lat="45.21237" lon="5.89793">
        <ele>748.38</ele>
        <time>2019-04-22T15:37:14.000Z</time>
      </trkpt>
      <trkpt lat="45.21221" lon="5.89788">
        <ele>748.5</ele>
        <time>2019-04-22T15:37:19.000Z</time>
      </trkpt>
      <trkpt lat="45.21199" lon="5.89776">
        <ele>750.35</ele>
        <time>2019-04-22T15:37:24.000Z</time>
      </trkpt>
      <trkpt lat="45.21175" lon="5.89761">
        <ele>751.64</ele>
        <time>2019-04-22T15:37:29.000Z</time>
      </trkpt>
      <trkpt lat="45.21154" lon="5.89761">
        <ele>753.25</ele>
        <time>2019-04-22T15:37:34.000Z</time>
      </trkpt>
      <trkpt lat="45.21134" lon="5.89775">
        <ele>752.61</ele>
        <time>2019-04-22T15:37:39.000Z</time>
      </trkpt>
      <trkpt lat="45.21116" lon="5.89783">
        <ele>756.22</ele>
        <time>2019-04-22T15:37:44.000Z</time>
      </trkpt>
      <trkpt lat="45.21101" lon="5.89785">
        <ele>755.85</ele>
        <time>2019-04-22T15:37:49.000Z</time>
      </trkpt>
      <trkpt lat="45.21089" lon="5.89783">
        <ele>757.65</ele>
        <time>2019-04-22T15:37:54.000Z</time>
      </trkpt>
      <trkpt lat="45.21089" lon="5.8977">
        <ele>765.58</ele>
        <time>2019-04-22T15:38:19.000Z</time>
      </trkpt>
      <trkpt lat="45.2108" lon="5.89764">
        <ele>757.43</ele>
        <time>2019-04-22T15:38:33.000Z</time>
      </trkpt>
      <trkpt lat="45.21071" lon="5.89765">
        <ele>758.32</ele>
        <time>2019-04-22T15:40:02.000Z</time>
      </trkpt>
      <trkpt lat="45.21056" lon="5.89768">
        <ele>751.42</ele>
        <time>2019-04-22T15:40:07.000Z</time>
      </trkpt>
      <trkpt lat="45.21029" lon="5.89777">
        <ele>750.29</ele>
        <time>2019-04-22T15:40:12.000Z</time>
      </trkpt>
      <trkpt lat="45.20993" lon="5.89784">
        <ele>749.28</ele>
        <time>2019-04-22T15:40:17.000Z</time>
      </trkpt>
      <trkpt lat="45.20967" lon="5.89767">
        <ele>747.5</ele>
        <time>2019-04-22T15:40:22.000Z</time>
      </trkpt>
      <trkpt lat="45.20963" lon="5.89738">
        <ele>753.51</ele>
        <time>2019-04-22T15:40:27.000Z</time>
      </trkpt>
      <trkpt lat="45.20978" lon="5.89708">
        <ele>751.6</ele>
        <time>2019-04-22T15:40:32.000Z</time>
      </trkpt>
      <trkpt lat="45.20998" lon="5.89682">
        <ele>749.79</ele>
        <time>2019-04-22T15:40:37.000Z</time>
      </trkpt>
      <trkpt lat="45.21012" lon="5.89655">
        <ele>749.2</ele>
        <time>2019-04-22T15:40:42.000Z</time>
      </trkpt>
      <trkpt lat="45.21022" lon="5.89622">
        <ele>747.97</ele>
        <time>2019-04-22T15:40:47.000Z</time>
      </trkpt>
      <trkpt lat="45.21024" lon="5.89576">
        <ele>748.76</ele>
        <time>2019-04-22T15:40:52.000Z</time>
      </trkpt>
      <trkpt lat="45.21026" lon="5.89528">
        <ele>750.16</ele>
        <time>2019-04-22T15:40:57.000Z</time>
      </trkpt>
      <trkpt lat="45.21029" lon="5.89482">
        <ele>748.77</ele>
        <time>2019-04-22T15:41:02.000Z</time>
      </trkpt>
      <trkpt lat="45.21045" lon="5.89443">
        <ele>752.2</ele>
        <time>2019-04-22T15:41:07.000Z</time>
      </trkpt>
      <trkpt lat="45.21067" lon="5.89406">
        <ele>756.34</ele>
        <time>2019-04-22T15:41:12.000Z</time>
      </trkpt>
      <trkpt lat="45.21088" lon="5.89369">
        <ele>756.73</ele>
        <time>2019-04-22T15:41:17.000Z</time>
      </trkpt>
      <trkpt lat="45.21107" lon="5.89335">
        <ele>757.93</ele>
        <time>2019-04-22T15:41:22.000Z</time>
      </trkpt>
      <trkpt lat="45.21132" lon="5.89307">
        <ele>758.87</ele>
        <time>2019-04-22T15:41:27.000Z</time>
      </trkpt>
      <trkpt lat="45.21167" lon="5.89294">
        <ele>760.1</ele>
        <time>2019-04-22T15:41:34.000Z</time>
      </trkpt>
      <trkpt lat="45.21197" lon="5.89253">
        <ele>757.33</ele>
        <time>2019-04-22T15:41:43.000Z</time>
      </trkpt>
      <trkpt lat="45.21212" lon="5.89196">
        <ele>752.83</ele>
        <time>2019-04-22T15:41:52.000Z</time>
      </trkpt>
      <trkpt lat="45.21231" lon="5.89182">
        <ele>751.57</ele>
        <time>2019-04-22T15:41:57.000Z</time>
      </trkpt>
      <trkpt lat="45.21252" lon="5.89175">
        <ele>758.14</ele>
        <time>2019-04-22T15:42:02.000Z</time>
      </trkpt>
      <trkpt lat="45.2127" lon="5.89167">
        <ele>757.82</ele>
        <time>2019-04-22T15:42:07.000Z</time>
      </trkpt>
      <trkpt lat="45.21286" lon="5.89155">
        <ele>758.48</ele>
        <time>2019-04-22T15:42:12.000Z</time>
      </trkpt>
      <trkpt lat="45.21304" lon="5.89146">
        <ele>760.13</ele>
        <time>2019-04-22T15:42:17.000Z</time>
      </trkpt>
      <trkpt lat="45.21334" lon="5.89125">
        <ele>758.67</ele>
        <time>2019-04-22T15:42:22.000Z</time>
      </trkpt>
      <trkpt lat="45.21348" lon="5.89121">
        <ele>768.4</ele>
        <time>2019-04-22T15:42:27.000Z</time>
      </trkpt>
      <trkpt lat="45.21367" lon="5.89114">
        <ele>768.02</ele>
        <time>2019-04-22T15:42:32.000Z</time>
      </trkpt>
      <trkpt lat="45.21385" lon="5.89102">
        <ele>769.89</ele>
        <time>2019-04-22T15:42:37.000Z</time>
      </trkpt>
      <trkpt lat="45.21398" lon="5.8909">
        <ele>770.81</ele>
        <time>2019-04-22T15:42:42.000Z</time>
      </trkpt>
      <trkpt lat="45.21411" lon="5.89085">
        <ele>773.59</ele>
        <time>2019-04-22T15:42:47.000Z</time>
      </trkpt>
      <trkpt lat="45.21426" lon="5.89074">
        <ele>772.21</ele>
        <time>2019-04-22T15:42:52.000Z</time>
      </trkpt>
      <trkpt lat="45.21448" lon="5.89061">
        <ele>773.66</ele>
        <time>2019-04-22T15:42:57.000Z</time>
      </trkpt>
      <trkpt lat="45.21482" lon="5.89052">
        <ele>777.95</ele>
        <time>2019-04-22T15:43:02.000Z</time>
      </trkpt>
      <trkpt lat="45.21507" lon="5.89049">
        <ele>779.17</ele>
        <time>2019-04-22T15:43:07.000Z</time>
      </trkpt>
      <trkpt lat="45.21528" lon="5.89033">
        <ele>782.9</ele>
        <time>2019-04-22T15:43:12.000Z</time>
      </trkpt>
      <trkpt lat="45.21549" lon="5.89022">
        <ele>785.14</ele>
        <time>2019-04-22T15:43:17.000Z</time>
      </trkpt>
      <trkpt lat="45.21569" lon="5.89019">
        <ele>786.97</ele>
        <time>2019-04-22T15:43:22.000Z</time>
      </trkpt>
      <trkpt lat="45.21588" lon="5.89">
        <ele>786.53</ele>
        <time>2019-04-22T15:43:27.000Z</time>
      </trkpt>
      <trkpt lat="45.21609" lon="5.88982">
        <ele>785.84</ele>
        <time>2019-04-22T15:43:32.000Z</time>
      </trkpt>
      <trkpt lat="45.2163" lon="5.88967">
        <ele>788.87</ele>
        <time>2019-04-22T15:43:37.000Z</time>
      </trkpt>
      <trkpt lat="45.21649" lon="5.8895">
        <ele>789.59</ele>
        <time>2019-04-22T15:43:42.000Z</time>
      </trkpt>
      <trkpt lat="45.21672" lon="5.88938">
        <ele>789.75</ele>
        <time>2019-04-22T15:43:47.000Z</time>
      </trkpt>
      <trkpt lat="45.21692" lon="5.88922">
        <ele>793.92</ele>
        <time>2019-04-22T15:43:52.000Z</time>
      </trkpt>
      <trkpt lat="45.21705" lon="5.88901">
        <ele>795.88</ele>
        <time>2019-04-22T15:43:57.000Z</time>
      </trkpt>
      <trkpt lat="45.21705" lon="5.88877">
        <ele>796.06</ele>
        <time>2019-04-22T15:44:02.000Z</time>
      </trkpt>
      <trkpt lat="45.21699" lon="5.88862">
        <ele>797.06</ele>
        <time>2019-04-22T15:44:07.000Z</time>
      </trkpt>
      <trkpt lat="45.21691" lon="5.88855">
        <ele>797.65</ele>
        <time>2019-04-22T15:44:13.000Z</time>
      </trkpt>
      <trkpt lat="45.21681" lon="5.88852">
        <ele>795.32</ele>
        <time>2019-04-22T15:44:43.000Z</time>
      </trkpt>
      <trkpt lat="45.21654" lon="5.8884">
        <ele>795.13</ele>
        <time>2019-04-22T15:44:48.000Z</time>
      </trkpt>
      <trkpt lat="45.21618" lon="5.88821">
        <ele>793.57</ele>
        <time>2019-04-22T15:44:53.000Z</time>
      </trkpt>
      <trkpt lat="45.21582" lon="5.88776">
        <ele>790.16</ele>
        <time>2019-04-22T15:44:58.000Z</time>
      </trkpt>
      <trkpt lat="45.21539" lon="5.88735">
        <ele>784.91</ele>
        <time>2019-04-22T15:45:03.000Z</time>
      </trkpt>
      <trkpt lat="45.21501" lon="5.88669">
        <ele>779.46</ele>
        <time>2019-04-22T15:45:08.000Z</time>
      </trkpt>
      <trkpt lat="45.21469" lon="5.8859">
        <ele>778.27</ele>
        <time>2019-04-22T15:45:13.000Z</time>
      </trkpt>
      <trkpt lat="45.21431" lon="5.88498">
        <ele>772.84</ele>
        <time>2019-04-22T15:45:18.000Z</time>
      </trkpt>
      <trkpt lat="45.21426" lon="5.88396">
        <ele>769.91</ele>
        <time>2019-04-22T15:45:23.000Z</time>
      </trkpt>
      <trkpt lat="45.21405" lon="5.88324">
        <ele>764.29</ele>
        <time>2019-04-22T15:45:28.000Z</time>
      </trkpt>
      <trkpt lat="45.21357" lon="5.88315">
        <ele>756.01</ele>
        <time>2019-04-22T15:45:33.000Z</time>
      </trkpt>
      <trkpt lat="45.21303" lon="5.88351">
        <ele>754.94</ele>
        <time>2019-04-22T15:45:38.000Z</time>
      </trkpt>
      <trkpt lat="45.21259" lon="5.88354">
        <ele>756.1</ele>
        <time>2019-04-22T15:45:43.000Z</time>
      </trkpt>
      <trkpt lat="45.21214" lon="5.88357">
        <ele>753.09</ele>
        <time>2019-04-22T15:45:48.000Z</time>
      </trkpt>
      <trkpt lat="45.21176" lon="5.88352">
        <ele>749.45</ele>
        <time>2019-04-22T15:45:53.000Z</time>
      </trkpt>
      <trkpt lat="45.21132" lon="5.88343">
        <ele>750.65</ele>
        <time>2019-04-22T15:45:58.000Z</time>
      </trkpt>
      <trkpt lat="45.21092" lon="5.88333">
        <ele>749.46</ele>
        <time>2019-04-22T15:46:03.000Z</time>
      </trkpt>
      <trkpt lat="45.21063" lon="5.88305">
        <ele>750.12</ele>
        <time>2019-04-22T15:46:08.000Z</time>
      </trkpt>
      <trkpt lat="45.21027" lon="5.8829">
        <ele>744.3</ele>
        <time>2019-04-22T15:46:13.000Z</time>
      </trkpt>
      <trkpt lat="45.20993" lon="5.88287">
        <ele>745.17</ele>
        <time>2019-04-22T15:46:18.000Z</time>
      </trkpt>
      <trkpt lat="45.20954" lon="5.88278">
        <ele>746.38</ele>
        <time>2019-04-22T15:46:23.000Z</time>
      </trkpt>
      <trkpt lat="45.20916" lon="5.88263">
        <ele>746.79</ele>
        <time>2019-04-22T15:46:28.000Z</time>
      </trkpt>
      <trkpt lat="45.20879" lon="5.88267">
        <ele>749.23</ele>
        <time>2019-04-22T15:46:33.000Z</time>
      </trkpt>
      <trkpt lat="45.20858" lon="5.88278">
        <ele>747.68</ele>
        <time>2019-04-22T15:46:38.000Z</time>
      </trkpt>
      <trkpt lat="45.20853" lon="5.8829">
        <ele>745.14</ele>
        <time>2019-04-22T15:47:57.000Z</time>
      </trkpt>
      <trkpt lat="45.2082" lon="5.88315">
        <ele>736.4</ele>
        <time>2019-04-22T15:48:02.000Z</time>
      </trkpt>
      <trkpt lat="45.20778" lon="5.88334">
        <ele>738.6</ele>
        <time>2019-04-22T15:48:07.000Z</time>
      </trkpt>
      <trkpt lat="45.20728" lon="5.88342">
        <ele>735.19</ele>
        <time>2019-04-22T15:48:12.000Z</time>
      </trkpt>
      <trkpt lat="45.2068" lon="5.88331">
        <ele>728.54</ele>
        <time>2019-04-22T15:48:17.000Z</time>
      </trkpt>
      <trkpt lat="45.20652" lon="5.88262">
        <ele>723.1</ele>
        <time>2019-04-22T15:48:22.000Z</time>
      </trkpt>
      <trkpt lat="45.20608" lon="5.88225">
        <ele>717.76</ele>
        <time>2019-04-22T15:48:27.000Z</time>
      </trkpt>
      <trkpt lat="45.20587" lon="5.88167">
        <ele>718.55</ele>
        <time>2019-04-22T15:48:32.000Z</time>
      </trkpt>
      <trkpt lat="45.20557" lon="5.88126">
        <ele>721.36</ele>
        <time>2019-04-22T15:48:37.000Z</time>
      </trkpt>
      <trkpt lat="45.20521" lon="5.88136">
        <ele>717.07</ele>
        <time>2019-04-22T15:48:42.000Z</time>
      </trkpt>
      <trkpt lat="45.20493" lon="5.88147">
        <ele>717.66</ele>
        <time>2019-04-22T15:48:47.000Z</time>
      </trkpt>
      <trkpt lat="45.20469" lon="5.88149">
        <ele>720.23</ele>
        <time>2019-04-22T15:48:52.000Z</time>
      </trkpt>
      <trkpt lat="45.20439" lon="5.8814">
        <ele>724.36</ele>
        <time>2019-04-22T15:48:57.000Z</time>
      </trkpt>
      <trkpt lat="45.20405" lon="5.88135">
        <ele>726.3</ele>
        <time>2019-04-22T15:49:02.000Z</time>
      </trkpt>
      <trkpt lat="45.20374" lon="5.88145">
        <ele>721.78</ele>
        <time>2019-04-22T15:49:07.000Z</time>
      </trkpt>
      <trkpt lat="45.20347" lon="5.88155">
        <ele>714.08</ele>
        <time>2019-04-22T15:49:12.000Z</time>
      </trkpt>
      <trkpt lat="45.20323" lon="5.88181">
        <ele>714.21</ele>
        <time>2019-04-22T15:49:17.000Z</time>
      </trkpt>
      <trkpt lat="45.20301" lon="5.882">
        <ele>713.77</ele>
        <time>2019-04-22T15:49:22.000Z</time>
      </trkpt>
      <trkpt lat="45.20274" lon="5.8822">
        <ele>715.88</ele>
        <time>2019-04-22T15:49:27.000Z</time>
      </trkpt>
      <trkpt lat="45.20253" lon="5.8823">
        <ele>716.16</ele>
        <time>2019-04-22T15:49:32.000Z</time>
      </trkpt>
      <trkpt lat="45.20237" lon="5.88227">
        <ele>719.31</ele>
        <time>2019-04-22T15:49:37.000Z</time>
      </trkpt>
      <trkpt lat="45.20221" lon="5.88224">
        <ele>721.73</ele>
        <time>2019-04-22T15:49:42.000Z</time>
      </trkpt>
      <trkpt lat="45.20205" lon="5.88218">
        <ele>729.55</ele>
        <time>2019-04-22T15:49:47.000Z</time>
      </trkpt>
      <trkpt lat="45.20189" lon="5.882">
        <ele>737.57</ele>
        <time>2019-04-22T15:49:52.000Z</time>
      </trkpt>
      <trkpt lat="45.20174" lon="5.88175">
        <ele>740.79</ele>
        <time>2019-04-22T15:49:57.000Z</time>
      </trkpt>
      <trkpt lat="45.20153" lon="5.88136">
        <ele>738.86</ele>
        <time>2019-04-22T15:50:02.000Z</time>
      </trkpt>
      <trkpt lat="45.20144" lon="5.88107">
        <ele>738.52</ele>
        <time>2019-04-22T15:50:07.000Z</time>
      </trkpt>
      <trkpt lat="45.20133" lon="5.8808">
        <ele>734.45</ele>
        <time>2019-04-22T15:50:12.000Z</time>
      </trkpt>
      <trkpt lat="45.20138" lon="5.88058">
        <ele>734.38</ele>
        <time>2019-04-22T15:50:17.000Z</time>
      </trkpt>
      <trkpt lat="45.20144" lon="5.88029">
        <ele>737.83</ele>
        <time>2019-04-22T15:50:22.000Z</time>
      </trkpt>
      <trkpt lat="45.20141" lon="5.88">
        <ele>738.25</ele>
        <time>2019-04-22T15:50:27.000Z</time>
      </trkpt>
      <trkpt lat="45.20138" lon="5.8797">
        <ele>737.98</ele>
        <time>2019-04-22T15:50:32.000Z</time>
      </trkpt>
      <trkpt lat="45.20133" lon="5.87941">
        <ele>741.44</ele>
        <time>2019-04-22T15:50:37.000Z</time>
      </trkpt>
      <trkpt lat="45.20128" lon="5.87913">
        <ele>745.19</ele>
        <time>2019-04-22T15:50:42.000Z</time>
      </trkpt>
      <trkpt lat="45.20122" lon="5.87888">
        <ele>747.04</ele>
        <time>2019-04-22T15:50:47.000Z</time>
      </trkpt>
      <trkpt lat="45.20119" lon="5.87855">
        <ele>746.36</ele>
        <time>2019-04-22T15:50:52.000Z</time>
      </trkpt>
      <trkpt lat="45.20115" lon="5.87835">
        <ele>746.88</ele>
        <time>2019-04-22T15:50:57.000Z</time>
      </trkpt>
      <trkpt lat="45.20118" lon="5.87804">
        <ele>750.61</ele>
        <time>2019-04-22T15:51:02.000Z</time>
      </trkpt>
      <trkpt lat="45.20122" lon="5.87775">
        <ele>753.56</ele>
        <time>2019-04-22T15:51:07.000Z</time>
      </trkpt>
      <trkpt lat="45.20129" lon="5.87748">
        <ele>757.47</ele>
        <time>2019-04-22T15:51:12.000Z</time>
      </trkpt>
      <trkpt lat="45.20132" lon="5.8772">
        <ele>763.48</ele>
        <time>2019-04-22T15:51:17.000Z</time>
      </trkpt>
      <trkpt lat="45.20135" lon="5.87694">
        <ele>766.14</ele>
        <time>2019-04-22T15:51:22.000Z</time>
      </trkpt>
      <trkpt lat="45.20132" lon="5.87664">
        <ele>766.04</ele>
        <time>2019-04-22T15:51:27.000Z</time>
      </trkpt>
      <trkpt lat="45.20127" lon="5.87627">
        <ele>769.09</ele>
        <time>2019-04-22T15:51:32.000Z</time>
      </trkpt>
      <trkpt lat="45.2012" lon="5.87587">
        <ele>767.41</ele>
        <time>2019-04-22T15:51:37.000Z</time>
      </trkpt>
      <trkpt lat="45.20109" lon="5.87558">
        <ele>768.4</ele>
        <time>2019-04-22T15:51:42.000Z</time>
      </trkpt>
      <trkpt lat="45.20106" lon="5.87522">
        <ele>770.9</ele>
        <time>2019-04-22T15:51:47.000Z</time>
      </trkpt>
      <trkpt lat="45.20109" lon="5.87496">
        <ele>772.48</ele>
        <time>2019-04-22T15:51:52.000Z</time>
      </trkpt>
      <trkpt lat="45.20122" lon="5.87463">
        <ele>773.9</ele>
        <time>2019-04-22T15:51:57.000Z</time>
      </trkpt>
      <trkpt lat="45.20134" lon="5.8744">
        <ele>778.65</ele>
        <time>2019-04-22T15:52:02.000Z</time>
      </trkpt>
      <trkpt lat="45.20147" lon="5.87418">
        <ele>780.81</ele>
        <time>2019-04-22T15:52:07.000Z</time>
      </trkpt>
      <trkpt lat="45.20153" lon="5.87388">
        <ele>781.06</ele>
        <time>2019-04-22T15:52:12.000Z</time>
      </trkpt>
      <trkpt lat="45.20146" lon="5.87361">
        <ele>781.46</ele>
        <time>2019-04-22T15:52:17.000Z</time>
      </trkpt>
      <trkpt lat="45.20139" lon="5.87332">
        <ele>783.29</ele>
        <time>2019-04-22T15:52:22.000Z</time>
      </trkpt>
      <trkpt lat="45.20131" lon="5.87298">
        <ele>785.94</ele>
        <time>2019-04-22T15:52:27.000Z</time>
      </trkpt>
      <trkpt lat="45.20124" lon="5.87271">
        <ele>787.31</ele>
        <time>2019-04-22T15:52:32.000Z</time>
      </trkpt>
      <trkpt lat="45.20118" lon="5.87247">
        <ele>791.71</ele>
        <time>2019-04-22T15:52:37.000Z</time>
      </trkpt>
      <trkpt lat="45.20107" lon="5.87222">
        <ele>794.25</ele>
        <time>2019-04-22T15:52:42.000Z</time>
      </trkpt>
      <trkpt lat="45.20095" lon="5.87199">
        <ele>798.01</ele>
        <time>2019-04-22T15:52:47.000Z</time>
      </trkpt>
      <trkpt lat="45.20083" lon="5.87169">
        <ele>795.79</ele>
        <time>2019-04-22T15:52:52.000Z</time>
      </trkpt>
      <trkpt lat="45.20074" lon="5.8715">
        <ele>797.69</ele>
        <time>2019-04-22T15:52:57.000Z</time>
      </trkpt>
      <trkpt lat="45.20064" lon="5.87121">
        <ele>796.88</ele>
        <time>2019-04-22T15:53:02.000Z</time>
      </trkpt>
      <trkpt lat="45.20064" lon="5.87082">
        <ele>797.75</ele>
        <time>2019-04-22T15:53:07.000Z</time>
      </trkpt>
      <trkpt lat="45.20062" lon="5.87043">
        <ele>798.8</ele>
        <time>2019-04-22T15:53:12.000Z</time>
      </trkpt>
      <trkpt lat="45.20057" lon="5.87007">
        <ele>804.77</ele>
        <time>2019-04-22T15:53:17.000Z</time>
      </trkpt>
      <trkpt lat="45.20071" lon="5.86981">
        <ele>806.65</ele>
        <time>2019-04-22T15:53:22.000Z</time>
      </trkpt>
      <trkpt lat="45.20069" lon="5.86946">
        <ele>802.72</ele>
        <time>2019-04-22T15:53:27.000Z</time>
      </trkpt>
      <trkpt lat="45.20082" lon="5.86922">
        <ele>800.78</ele>
        <time>2019-04-22T15:53:32.000Z</time>
      </trkpt>
      <trkpt lat="45.20091" lon="5.86898">
        <ele>803.24</ele>
        <time>2019-04-22T15:53:37.000Z</time>
      </trkpt>
      <trkpt lat="45.20083" lon="5.86868">
        <ele>807.61</ele>
        <time>2019-04-22T15:53:42.000Z</time>
      </trkpt>
      <trkpt lat="45.20063" lon="5.86836">
        <ele>805.23</ele>
        <time>2019-04-22T15:53:47.000Z</time>
      </trkpt>
      <trkpt lat="45.2005" lon="5.86813">
        <ele>812.25</ele>
        <time>2019-04-22T15:53:52.000Z</time>
      </trkpt>
      <trkpt lat="45.20038" lon="5.86788">
        <ele>816.14</ele>
        <time>2019-04-22T15:53:57.000Z</time>
      </trkpt>
      <trkpt lat="45.20025" lon="5.86765">
        <ele>816.87</ele>
        <time>2019-04-22T15:54:02.000Z</time>
      </trkpt>
      <trkpt lat="45.20008" lon="5.86738">
        <ele>817.51</ele>
        <time>2019-04-22T15:54:07.000Z</time>
      </trkpt>
      <trkpt lat="45.1999" lon="5.86725">
        <ele>819.22</ele>
        <time>2019-04-22T15:54:12.000Z</time>
      </trkpt>
      <trkpt lat="45.19974" lon="5.86723">
        <ele>823.06</ele>
        <time>2019-04-22T15:54:17.000Z</time>
      </trkpt>
      <trkpt lat="45.19957" lon="5.86727">
        <ele>825.33</ele>
        <time>2019-04-22T15:54:22.000Z</time>
      </trkpt>
      <trkpt lat="45.19939" lon="5.86732">
        <ele>826.75</ele>
        <time>2019-04-22T15:54:27.000Z</time>
      </trkpt>
      <trkpt lat="45.19919" lon="5.86737">
        <ele>829.04</ele>
        <time>2019-04-22T15:54:32.000Z</time>
      </trkpt>
      <trkpt lat="45.19899" lon="5.86739">
        <ele>829.76</ele>
        <time>2019-04-22T15:54:37.000Z</time>
      </trkpt>
      <trkpt lat="45.19877" lon="5.86738">
        <ele>834.78</ele>
        <time>2019-04-22T15:54:42.000Z</time>
      </trkpt>
      <trkpt lat="45.19853" lon="5.86739">
        <ele>835.63</ele>
        <time>2019-04-22T15:54:47.000Z</time>
      </trkpt>
      <trkpt lat="45.19834" lon="5.86733">
        <ele>836.33</ele>
        <time>2019-04-22T15:54:52.000Z</time>
      </trkpt>
      <trkpt lat="45.19806" lon="5.86723">
        <ele>835.99</ele>
        <time>2019-04-22T15:54:59.000Z</time>
      </trkpt>
      <trkpt lat="45.19787" lon="5.86719">
        <ele>835.48</ele>
        <time>2019-04-22T15:55:04.000Z</time>
      </trkpt>
      <trkpt lat="45.19768" lon="5.86713">
        <ele>838.78</ele>
        <time>2019-04-22T15:55:09.000Z</time>
      </trkpt>
      <trkpt lat="45.19749" lon="5.8671">
        <ele>836.55</ele>
        <time>2019-04-22T15:55:14.000Z</time>
      </trkpt>
      <trkpt lat="45.1973" lon="5.86721">
        <ele>839.4</ele>
        <time>2019-04-22T15:55:19.000Z</time>
      </trkpt>
      <trkpt lat="45.19717" lon="5.86744">
        <ele>846.01</ele>
        <time>2019-04-22T15:55:24.000Z</time>
      </trkpt>
      <trkpt lat="45.19715" lon="5.86774">
        <ele>848.07</ele>
        <time>2019-04-22T15:55:29.000Z</time>
      </trkpt>
      <trkpt lat="45.19718" lon="5.86804">
        <ele>847.14</ele>
        <time>2019-04-22T15:55:34.000Z</time>
      </trkpt>
      <trkpt lat="45.1971" lon="5.86835">
        <ele>845.07</ele>
        <time>2019-04-22T15:55:39.000Z</time>
      </trkpt>
      <trkpt lat="45.19695" lon="5.86852">
        <ele>847.34</ele>
        <time>2019-04-22T15:55:44.000Z</time>
      </trkpt>
      <trkpt lat="45.19675" lon="5.86856">
        <ele>852.95</ele>
        <time>2019-04-22T15:55:49.000Z</time>
      </trkpt>
      <trkpt lat="45.19654" lon="5.86855">
        <ele>851.61</ele>
        <time>2019-04-22T15:55:54.000Z</time>
      </trkpt>
      <trkpt lat="45.19635" lon="5.86856">
        <ele>855.15</ele>
        <time>2019-04-22T15:55:59.000Z</time>
      </trkpt>
      <trkpt lat="45.19615" lon="5.86858">
        <ele>858.15</ele>
        <time>2019-04-22T15:56:04.000Z</time>
      </trkpt>
      <trkpt lat="45.19593" lon="5.86858">
        <ele>858.85</ele>
        <time>2019-04-22T15:56:09.000Z</time>
      </trkpt>
      <trkpt lat="45.1957" lon="5.86862">
        <ele>862.94</ele>
        <time>2019-04-22T15:56:14.000Z</time>
      </trkpt>
      <trkpt lat="45.19553" lon="5.8687">
        <ele>865.02</ele>
        <time>2019-04-22T15:56:19.000Z</time>
      </trkpt>
      <trkpt lat="45.19536" lon="5.86889">
        <ele>865.71</ele>
        <time>2019-04-22T15:56:24.000Z</time>
      </trkpt>
      <trkpt lat="45.19527" lon="5.86914">
        <ele>868.4</ele>
        <time>2019-04-22T15:56:29.000Z</time>
      </trkpt>
      <trkpt lat="45.19528" lon="5.86941">
        <ele>867.22</ele>
        <time>2019-04-22T15:56:34.000Z</time>
      </trkpt>
      <trkpt lat="45.19532" lon="5.86969">
        <ele>866.39</ele>
        <time>2019-04-22T15:56:39.000Z</time>
      </trkpt>
      <trkpt lat="45.19538" lon="5.86997">
        <ele>869.72</ele>
        <time>2019-04-22T15:56:44.000Z</time>
      </trkpt>
      <trkpt lat="45.19546" lon="5.87024">
        <ele>869.76</ele>
        <time>2019-04-22T15:56:49.000Z</time>
      </trkpt>
      <trkpt lat="45.19557" lon="5.87049">
        <ele>873.11</ele>
        <time>2019-04-22T15:56:54.000Z</time>
      </trkpt>
      <trkpt lat="45.19568" lon="5.87071">
        <ele>875.92</ele>
        <time>2019-04-22T15:56:59.000Z</time>
      </trkpt>
      <trkpt lat="45.19579" lon="5.87087">
        <ele>873.98</ele>
        <time>2019-04-22T15:57:04.000Z</time>
      </trkpt>
      <trkpt lat="45.1959" lon="5.871">
        <ele>874.38</ele>
        <time>2019-04-22T15:57:09.000Z</time>
      </trkpt>
      <trkpt lat="45.19601" lon="5.87115">
        <ele>872.99</ele>
        <time>2019-04-22T15:57:14.000Z</time>
      </trkpt>
      <trkpt lat="45.19615" lon="5.87133">
        <ele>871.31</ele>
        <time>2019-04-22T15:57:19.000Z</time>
      </trkpt>
      <trkpt lat="45.19629" lon="5.87154">
        <ele>871.77</ele>
        <time>2019-04-22T15:57:24.000Z</time>
      </trkpt>
      <trkpt lat="45.19644" lon="5.87177">
        <ele>871.84</ele>
        <time>2019-04-22T15:57:29.000Z</time>
      </trkpt>
      <trkpt lat="45.19663" lon="5.87206">
        <ele>875.1</ele>
        <time>2019-04-22T15:57:34.000Z</time>
      </trkpt>
      <trkpt lat="45.19677" lon="5.87252">
        <ele>873.71</ele>
        <time>2019-04-22T15:57:39.000Z</time>
      </trkpt>
      <trkpt lat="45.19682" lon="5.87303">
        <ele>871.9</ele>
        <time>2019-04-22T15:57:44.000Z</time>
      </trkpt>
      <trkpt lat="45.19683" lon="5.87349">
        <ele>873.27</ele>
        <time>2019-04-22T15:57:49.000Z</time>
      </trkpt>
      <trkpt lat="45.19686" lon="5.87392">
        <ele>872.52</ele>
        <time>2019-04-22T15:57:54.000Z</time>
      </trkpt>
      <trkpt lat="45.19686" lon="5.87431">
        <ele>873.19</ele>
        <time>2019-04-22T15:57:59.000Z</time>
      </trkpt>
      <trkpt lat="45.1969" lon="5.87461">
        <ele>870.9</ele>
        <time>2019-04-22T15:58:04.000Z</time>
      </trkpt>
      <trkpt lat="45.19683" lon="5.87496">
        <ele>870.04</ele>
        <time>2019-04-22T15:58:09.000Z</time>
      </trkpt>
      <trkpt lat="45.19665" lon="5.87525">
        <ele>871.55</ele>
        <time>2019-04-22T15:58:14.000Z</time>
      </trkpt>
      <trkpt lat="45.19643" lon="5.87551">
        <ele>869.11</ele>
        <time>2019-04-22T15:58:19.000Z</time>
      </trkpt>
      <trkpt lat="45.19623" lon="5.87573">
        <ele>869.3</ele>
        <time>2019-04-22T15:58:24.000Z</time>
      </trkpt>
      <trkpt lat="45.19603" lon="5.87599">
        <ele>865.06</ele>
        <time>2019-04-22T15:58:29.000Z</time>
      </trkpt>
      <trkpt lat="45.19582" lon="5.87623">
        <ele>870.44</ele>
        <time>2019-04-22T15:58:34.000Z</time>
      </trkpt>
      <trkpt lat="45.19561" lon="5.87647">
        <ele>874.45</ele>
        <time>2019-04-22T15:58:39.000Z</time>
      </trkpt>
      <trkpt lat="45.19537" lon="5.87661">
        <ele>875.89</ele>
        <time>2019-04-22T15:58:44.000Z</time>
      </trkpt>
      <trkpt lat="45.19512" lon="5.87672">
        <ele>877.71</ele>
        <time>2019-04-22T15:58:49.000Z</time>
      </trkpt>
      <trkpt lat="45.19484" lon="5.87666">
        <ele>881.31</ele>
        <time>2019-04-22T15:58:54.000Z</time>
      </trkpt>
      <trkpt lat="45.19458" lon="5.87665">
        <ele>884.08</ele>
        <time>2019-04-22T15:58:59.000Z</time>
      </trkpt>
      <trkpt lat="45.19432" lon="5.87663">
        <ele>886.56</ele>
        <time>2019-04-22T15:59:04.000Z</time>
      </trkpt>
      <trkpt lat="45.19408" lon="5.87663">
        <ele>888.01</ele>
        <time>2019-04-22T15:59:09.000Z</time>
      </trkpt>
      <trkpt lat="45.19384" lon="5.87672">
        <ele>889.19</ele>
        <time>2019-04-22T15:59:14.000Z</time>
      </trkpt>
      <trkpt lat="45.19366" lon="5.87693">
        <ele>888.62</ele>
        <time>2019-04-22T15:59:19.000Z</time>
      </trkpt>
      <trkpt lat="45.1935" lon="5.87724">
        <ele>885.68</ele>
        <time>2019-04-22T15:59:24.000Z</time>
      </trkpt>
      <trkpt lat="45.19348" lon="5.87756">
        <ele>888.46</ele>
        <time>2019-04-22T15:59:29.000Z</time>
      </trkpt>
      <trkpt lat="45.19348" lon="5.87791">
        <ele>888.33</ele>
        <time>2019-04-22T15:59:34.000Z</time>
      </trkpt>
      <trkpt lat="45.19346" lon="5.87828">
        <ele>886.88</ele>
        <time>2019-04-22T15:59:39.000Z</time>
      </trkpt>
      <trkpt lat="45.19346" lon="5.87871">
        <ele>887.45</ele>
        <time>2019-04-22T15:59:44.000Z</time>
      </trkpt>
      <trkpt lat="45.19355" lon="5.87916">
        <ele>887</ele>
        <time>2019-04-22T15:59:49.000Z</time>
      </trkpt>
      <trkpt lat="45.19379" lon="5.87962">
        <ele>883.19</ele>
        <time>2019-04-22T15:59:54.000Z</time>
      </trkpt>
      <trkpt lat="45.19406" lon="5.88004">
        <ele>881.39</ele>
        <time>2019-04-22T15:59:59.000Z</time>
      </trkpt>
      <trkpt lat="45.19426" lon="5.88046">
        <ele>880.78</ele>
        <time>2019-04-22T16:00:04.000Z</time>
      </trkpt>
      <trkpt lat="45.19434" lon="5.88112">
        <ele>873.89</ele>
        <time>2019-04-22T16:00:09.000Z</time>
      </trkpt>
      <trkpt lat="45.19425" lon="5.88169">
        <ele>875.05</ele>
        <time>2019-04-22T16:00:14.000Z</time>
      </trkpt>
      <trkpt lat="45.19405" lon="5.88207">
        <ele>871.12</ele>
        <time>2019-04-22T16:00:19.000Z</time>
      </trkpt>
      <trkpt lat="45.19399" lon="5.8822">
        <ele>870.59</ele>
        <time>2019-04-22T16:00:24.000Z</time>
      </trkpt>
      <trkpt lat="45.19392" lon="5.88229">
        <ele>872.64</ele>
        <time>2019-04-22T16:00:29.000Z</time>
      </trkpt>
      <trkpt lat="45.19392" lon="5.88244">
        <ele>876.76</ele>
        <time>2019-04-22T16:00:46.000Z</time>
      </trkpt>
      <trkpt lat="45.19395" lon="5.88298">
        <ele>878.85</ele>
        <time>2019-04-22T16:00:51.000Z</time>
      </trkpt>
      <trkpt lat="45.1938" lon="5.88358">
        <ele>876.72</ele>
        <time>2019-04-22T16:00:56.000Z</time>
      </trkpt>
      <trkpt lat="45.19361" lon="5.88416">
        <ele>870.78</ele>
        <time>2019-04-22T16:01:01.000Z</time>
      </trkpt>
      <trkpt lat="45.19307" lon="5.88442">
        <ele>864.54</ele>
        <time>2019-04-22T16:01:06.000Z</time>
      </trkpt>
      <trkpt lat="45.19248" lon="5.88457">
        <ele>859.33</ele>
        <time>2019-04-22T16:01:11.000Z</time>
      </trkpt>
      <trkpt lat="45.19182" lon="5.88463">
        <ele>852.54</ele>
        <time>2019-04-22T16:01:16.000Z</time>
      </trkpt>
      <trkpt lat="45.19113" lon="5.88456">
        <ele>847.9</ele>
        <time>2019-04-22T16:01:21.000Z</time>
      </trkpt>
      <trkpt lat="45.19044" lon="5.88451">
        <ele>842.72</ele>
        <time>2019-04-22T16:01:26.000Z</time>
      </trkpt>
      <trkpt lat="45.18969" lon="5.88459">
        <ele>839.01</ele>
        <time>2019-04-22T16:01:31.000Z</time>
      </trkpt>
      <trkpt lat="45.18899" lon="5.88479">
        <ele>838.07</ele>
        <time>2019-04-22T16:01:36.000Z</time>
      </trkpt>
      <trkpt lat="45.18836" lon="5.88484">
        <ele>839.4</ele>
        <time>2019-04-22T16:01:41.000Z</time>
      </trkpt>
      <trkpt lat="45.18796" lon="5.88428">
        <ele>836.94</ele>
        <time>2019-04-22T16:01:46.000Z</time>
      </trkpt>
      <trkpt lat="45.18767" lon="5.88369">
        <ele>833.32</ele>
        <time>2019-04-22T16:01:51.000Z</time>
      </trkpt>
      <trkpt lat="45.18741" lon="5.8832">
        <ele>831.28</ele>
        <time>2019-04-22T16:01:56.000Z</time>
      </trkpt>
      <trkpt lat="45.18716" lon="5.88271">
        <ele>830.46</ele>
        <time>2019-04-22T16:02:01.000Z</time>
      </trkpt>
      <trkpt lat="45.18706" lon="5.8821">
        <ele>828.5</ele>
        <time>2019-04-22T16:02:06.000Z</time>
      </trkpt>
      <trkpt lat="45.18714" lon="5.88141">
        <ele>825.27</ele>
        <time>2019-04-22T16:02:11.000Z</time>
      </trkpt>
      <trkpt lat="45.18716" lon="5.88071">
        <ele>821.73</ele>
        <time>2019-04-22T16:02:16.000Z</time>
      </trkpt>
      <trkpt lat="45.18696" lon="5.8799">
        <ele>820.61</ele>
        <time>2019-04-22T16:02:21.000Z</time>
      </trkpt>
      <trkpt lat="45.18657" lon="5.87915">
        <ele>813.71</ele>
        <time>2019-04-22T16:02:26.000Z</time>
      </trkpt>
      <trkpt lat="45.186" lon="5.87855">
        <ele>807.81</ele>
        <time>2019-04-22T16:02:31.000Z</time>
      </trkpt>
      <trkpt lat="45.18527" lon="5.87816">
        <ele>800.61</ele>
        <time>2019-04-22T16:02:36.000Z</time>
      </trkpt>
      <trkpt lat="45.1846" lon="5.8779">
        <ele>792.39</ele>
        <time>2019-04-22T16:02:41.000Z</time>
      </trkpt>
      <trkpt lat="45.18396" lon="5.87824">
        <ele>786.47</ele>
        <time>2019-04-22T16:02:46.000Z</time>
      </trkpt>
      <trkpt lat="45.18336" lon="5.8789">
        <ele>777.8</ele>
        <time>2019-04-22T16:02:51.000Z</time>
      </trkpt>
      <trkpt lat="45.18285" lon="5.87961">
        <ele>767.71</ele>
        <time>2019-04-22T16:02:56.000Z</time>
      </trkpt>
      <trkpt lat="45.18252" lon="5.8801">
        <ele>762.8</ele>
        <time>2019-04-22T16:03:01.000Z</time>
      </trkpt>
      <trkpt lat="45.18251" lon="5.87993">
        <ele>754.37</ele>
        <time>2019-04-22T16:03:08.000Z</time>
      </trkpt>
      <trkpt lat="45.18263" lon="5.87942">
        <ele>749.1</ele>
        <time>2019-04-22T16:03:13.000Z</time>
      </trkpt>
      <trkpt lat="45.18265" lon="5.87872">
        <ele>744.46</ele>
        <time>2019-04-22T16:03:18.000Z</time>
      </trkpt>
      <trkpt lat="45.18278" lon="5.87797">
        <ele>737.91</ele>
        <time>2019-04-22T16:03:23.000Z</time>
      </trkpt>
      <trkpt lat="45.18293" lon="5.87731">
        <ele>731.95</ele>
        <time>2019-04-22T16:03:28.000Z</time>
      </trkpt>
      <trkpt lat="45.18297" lon="5.87693">
        <ele>733.46</ele>
        <time>2019-04-22T16:03:33.000Z</time>
      </trkpt>
      <trkpt lat="45.18297" lon="5.87674">
        <ele>731.18</ele>
        <time>2019-04-22T16:03:38.000Z</time>
      </trkpt>
      <trkpt lat="45.18303" lon="5.8764">
        <ele>724.62</ele>
        <time>2019-04-22T16:03:43.000Z</time>
      </trkpt>
      <trkpt lat="45.18314" lon="5.87608">
        <ele>715.93</ele>
        <time>2019-04-22T16:03:48.000Z</time>
      </trkpt>
      <trkpt lat="45.18323" lon="5.87578">
        <ele>713.42</ele>
        <time>2019-04-22T16:03:53.000Z</time>
      </trkpt>
      <trkpt lat="45.18333" lon="5.87549">
        <ele>709.78</ele>
        <time>2019-04-22T16:03:58.000Z</time>
      </trkpt>
      <trkpt lat="45.18344" lon="5.87513">
        <ele>705.34</ele>
        <time>2019-04-22T16:04:03.000Z</time>
      </trkpt>
      <trkpt lat="45.18357" lon="5.87476">
        <ele>703.89</ele>
        <time>2019-04-22T16:04:08.000Z</time>
      </trkpt>
      <trkpt lat="45.1837" lon="5.87439">
        <ele>700.9</ele>
        <time>2019-04-22T16:04:13.000Z</time>
      </trkpt>
      <trkpt lat="45.18376" lon="5.87407">
        <ele>696.22</ele>
        <time>2019-04-22T16:04:18.000Z</time>
      </trkpt>
      <trkpt lat="45.18385" lon="5.87381">
        <ele>692.96</ele>
        <time>2019-04-22T16:04:23.000Z</time>
      </trkpt>
      <trkpt lat="45.18393" lon="5.8739">
        <ele>697.77</ele>
        <time>2019-04-22T16:05:54.000Z</time>
      </trkpt>
      <trkpt lat="45.18384" lon="5.87392">
        <ele>694.98</ele>
        <time>2019-04-22T16:07:30.000Z</time>
      </trkpt>
      <trkpt lat="45.18373" lon="5.87385">
        <ele>693.61</ele>
        <time>2019-04-22T16:08:13.000Z</time>
      </trkpt>
      <trkpt lat="45.18383" lon="5.87387">
        <ele>705.27</ele>
        <time>2019-04-22T16:14:47.000Z</time>
      </trkpt>
      <trkpt lat="45.18383" lon="5.87384">
        <ele>698.92</ele>
        <time>2019-04-22T16:17:55.000Z</time>
      </trkpt>
    </trkseg>
  </trk>
</gpx>